GFSWCAN_850_spd_000.txt.gz
Wind_Speed
30 39 37 39 32 33 31 31 30 29 27 24 23 22 20 18 18 19 20 18 18 12 21 15 18 16 9 8 5 3 0 4 2 4 4 5 4 5 4 13 6 8 4 5 5 7 11 4 3 5 17 39 43 44
20 30 41 40 46 37 32 31 31 31 30 29 27 26 26 22 21 21 23 23 22 24 13 15 20 27 29 23 17 10 11 7 4 3 3 3 3 3 4 10 6 5 10 10 12 10 19 21 23 32 42 41 47 39
9 18 21 27 33 47 38 39 34 31 31 31 30 28 28 27 25 26 25 27 23 24 27 25 33 35 31 32 29 20 13 22 16 27 11 4 10 3 7 7 10 6 17 11 14 15 30 32 36 42 47 39 40 41
9 9 9 19 23 30 38 35 43 37 33 32 31 29 29 29 28 27 27 30 26 11 7 16 21 28 26 24 26 33 32 28 25 23 16 5 8 13 5 8 8 13 9 8 18 26 40 33 36 38 42 42 41 37
9 9 9 9 9 18 27 26 34 39 37 35 33 30 30 31 27 28 26 29 28 26 5 6 15 17 21 26 28 27 26 28 28 13 8 6 8 7 12 11 11 10 8 7 18 36 33 41 43 42 47 43 41 34
5 7 6 6 7 9 13 22 26 24 30 30 32 35 35 34 32 23 22 33 32 30 12 3 9 18 26 26 30 35 31 26 29 14 11 10 25 12 4 7 16 21 23 31 33 36 43 47 49 43 38 40 39 32
3 2 5 6 3 7 7 10 17 22 27 30 25 27 32 33 33 28 9 6 15 27 6 7 6 8 22 24 17 20 20 21 23 19 11 17 20 10 3 17 44 35 38 38 35 36 37 37 35 38 39 34 29 25
8 5 5 2 5 11 8 10 11 11 11 12 12 12 12 15 21 21 12 9 7 11 4 2 3 4 10 6 6 12 6 9 10 10 8 10 16 11 7 26 39 38 38 35 32 28 27 33 35 28 26 28 29 25
14 11 7 5 6 5 8 8 7 8 6 7 10 11 9 8 6 9 12 15 14 8 4 5 2 1 5 4 4 3 7 2 8 6 8 10 7 8 18 32 33 37 34 36 31 29 26 19 24 26 27 28 24 18
15 14 13 10 8 7 6 8 9 9 9 9 8 5 3 4 4 3 1 1 3 5 7 4 4 1 4 3 1 3 7 4 4 5 6 4 14 34 39 41 41 38 29 20 15 15 17 23 24 26 21 15 11 9
14 14 14 11 9 8 7 8 8 7 8 6 5 4 6 4 6 3 3 6 5 4 4 4 7 7 9 6 4 8 3 3 4 3 4 3 5 15 18 17 15 16 10 8 12 16 16 18 18 13 12 12 12 7
15 14 12 12 12 11 11 10 9 9 6 6 6 5 6 4 3 2 3 3 4 3 3 3 3 6 6 9 8 6 4 4 7 3 2 3 4 3 4 3 4 6 9 13 16 19 19 15 7 11 5 1 2 4
15 15 15 14 12 12 12 11 10 10 9 8 4 4 3 2 4 5 5 3 3 3 1 1 1 3 3 2 6 2 4 1 3 2 3 3 8 5 5 6 7 10 13 18 21 19 16 7 9 9 8 5 5 7
14 14 13 14 13 12 11 11 12 14 6 3 5 4 4 5 5 4 2 2 2 3 6 5 2 3 4 2 2 5 3 2 4 4 5 1 5 11 11 11 13 13 16 20 22 17 11 11 11 8 7 5 8 7
13 13 13 13 13 12 11 11 13 15 5 3 4 4 6 3 2 2 3 2 2 3 3 3 4 3 3 4 4 4 4 5 4 4 1 7 10 14 16 19 18 20 20 21 18 12 11 11 11 7 5 8 9 10
14 14 13 13 13 13 12 12 11 10 3 4 5 4 4 2 5 4 5 4 4 4 1 2 3 3 6 4 6 6 4 6 7 3 11 13 20 21 23 28 28 23 22 22 20 22 15 12 12 8 4 12 8 8
14 10 14 14 13 12 11 14 7 6 5 4 5 8 8 4 5 5 5 5 4 4 2 3 5 11 1 4 5 5 8 10 16 18 20 23 26 29 34 35 33 27 25 26 25 21 18 11 12 6 10 9 8 8
12 11 9 13 16 16 14 9 5 5 7 9 6 9 10 10 9 9 13 12 9 7 5 5 5 5 5 8 12 10 17 22 25 27 26 27 29 34 34 32 28 29 29 29 26 18 14 12 11 10 12 9 8 6
12 10 9 18 21 16 9 9 7 5 10 7 8 10 12 11 17 18 17 17 15 11 5 5 6 7 10 15 15 19 25 27 25 31 33 32 31 33 33 32 33 31 28 25 18 16 16 11 13 14 11 9 8 7
12 13 15 17 17 8 5 5 7 5 5 6 8 10 8 8 12 14 15 15 15 8 9 6 9 21 25 32 34 33 31 30 29 30 35 32 26 26 28 30 25 25 18 13 12 16 14 15 17 13 11 11 9 8
16 17 18 18 17 13 4 6 7 5 5 6 5 8 6 8 12 13 14 13 13 12 14 24 31 36 37 38 39 36 36 35 32 31 33 36 30 30 33 31 30 17 13 12 13 14 16 15 14 12 12 12 11 10
18 18 21 21 15 10 10 11 5 5 5 4 4 6 7 9 11 11 14 10 14 27 32 35 35 35 36 36 36 35 35 37 39 35 36 35 32 27 25 19 14 13 13 13 14 15 14 15 15 13 13 13 10 8
16 15 15 10 9 8 3 14 9 8 4 5 5 4 5 7 7 6 6 10 17 29 28 29 34 35 36 39 40 41 42 39 37 37 33 29 25 22 16 12 12 11 12 16 16 15 15 14 13 14 13 10 9 8
18 9 7 7 10 4 8 8 8 6 7 4 4 5 7 7 6 6 7 22 34 30 25 26 24 26 28 27 28 30 29 21 25 26 23 20 21 17 14 13 13 15 14 14 15 15 15 14 13 13 13 11 10 8
7 9 7 6 8 8 7 5 5 5 6 6 5 7 4 4 4 6 12 27 29 28 24 19 11 14 17 21 24 21 22 22 18 19 15 15 14 15 14 15 14 13 13 14 15 16 15 14 13 12 10 9 7 7
7 11 10 12 9 8 9 6 8 9 6 6 8 5 2 4 5 7 5 14 18 19 14 12 16 19 18 19 24 24 25 19 12 15 15 11 12 14 13 13 11 11 12 14 13 12 13 13 12 10 8 6 7 8
7 9 10 11 8 7 5 2 4 4 7 9 4 6 5 6 8 6 13 18 16 14 12 13 17 19 22 24 22 22 20 13 12 11 11 10 11 12 13 11 11 11 12 14 13 12 10 10 9 8 8 8 9 11
12 10 12 15 8 10 6 5 6 7 6 9 6 7 6 7 6 10 13 16 19 20 18 18 21 20 20 20 19 19 16 12 11 10 10 10 12 14 14 13 13 12 11 13 13 12 12 11 10 10 11 12 14 16
14 13 9 7 9 7 13 9 11 17 19 13 7 9 8 18 24 23 27 23 21 19 20 21 20 20 20 20 16 14 13 14 12 14 16 13 15 17 17 16 16 13 14 18 15 13 12 13 13 13 14 15 17 16
14 19 14 12 9 11 20 20 15 19 22 26 27 26 29 31 32 30 25 22 20 19 19 21 22 20 18 15 14 14 14 13 14 18 14 16 18 18 17 15 11 12 14 17 17 17 17 16 16 16 15 14 12 11
9 16 7 10 8 15 19 19 21 24 19 18 21 21 27 19 21 21 20 19 18 16 18 18 15 12 10 9 9 10 10 8 7 11 14 13 11 11 11 8 8 9 11 12 13 15 16 17 15 12 10 10 9 9
10 12 8 5 5 12 12 7 7 9 11 9 9 10 8 6 6 10 11 11 11 10 11 9 6 5 5 4 4 3 4 3 2 2 4 3 5 8 8 8 7 6 5 6 7 6 7 9 9 8 7 6 7 7
7 8 8 4 4 5 8 7 7 5 6 5 7 7 7 6 4 5 6 6 7 6 5 4 4 3 2 1 2 3 3 2 3 3 4 5 5 6 6 6 7 7 7 7 8 9 9 8 8 8 7 7 8 9

GFSWCAN_850_spd_003.txt.gz
Wind_Speed
25 30 31 29 31 35 33 33 31 29 27 25 23 21 18 16 13 14 13 13 14 9 16 12 15 17 12 9 7 4 3 4 1 3 4 5 4 5 7 14 10 11 4 4 4 8 10 3 6 3 14 35 39 37
25 29 31 41 43 35 32 33 31 31 30 29 27 25 24 20 18 17 20 18 18 20 12 10 17 26 22 23 21 12 11 6 10 4 4 3 5 2 5 14 18 13 14 11 11 9 21 38 35 38 39 41 34 37
14 19 26 32 34 39 40 34 31 32 30 30 29 28 27 26 24 23 23 23 21 23 27 32 25 32 26 27 22 24 17 21 19 20 14 4 7 4 6 6 6 7 23 17 20 18 29 36 44 45 37 33 39 36
12 13 16 21 26 34 38 41 45 37 33 30 30 29 27 27 26 25 27 27 24 10 7 11 19 28 20 20 23 27 28 25 23 20 14 3 3 11 6 12 14 12 8 13 23 31 38 33 33 34 33 37 34 32
9 13 14 13 17 23 26 32 36 46 37 35 33 33 30 28 26 27 27 30 29 22 4 5 10 12 15 18 23 25 26 26 27 14 8 7 7 8 14 12 12 17 18 13 14 38 31 40 38 38 34 30 34 34
6 8 9 13 13 11 13 21 26 32 38 40 37 40 35 31 25 24 23 33 34 31 11 2 8 16 23 26 28 29 27 28 29 12 7 10 22 11 4 11 11 15 21 30 35 37 44 43 36 29 32 34 27 27
5 7 9 7 5 8 7 10 19 27 30 29 31 35 33 30 25 29 8 6 12 27 7 5 6 3 21 25 27 27 25 22 20 21 12 12 18 11 4 20 44 34 34 39 40 40 32 31 30 33 26 26 28 30
9 6 7 8 8 7 3 2 3 8 18 24 25 26 28 25 25 21 11 8 14 19 8 2 3 3 8 6 5 7 6 9 9 9 7 6 13 12 7 26 35 34 32 32 30 28 28 30 26 23 25 29 31 28
17 12 10 7 3 5 11 11 8 7 8 9 11 12 13 14 12 12 14 13 10 6 5 4 1 1 5 3 3 2 5 3 6 5 7 8 6 8 17 29 32 36 34 29 26 24 18 16 20 26 30 32 25 23
21 18 14 9 7 5 7 8 8 9 10 9 8 5 4 7 9 3 1 5 7 7 6 4 5 2 4 5 1 2 4 3 3 6 7 4 12 33 38 38 36 19 17 20 15 15 18 21 24 29 27 20 18 24
19 19 17 14 10 8 6 7 10 14 16 7 5 4 10 10 5 4 2 4 4 3 6 6 12 5 5 3 3 6 2 3 3 5 4 4 6 14 9 10 14 12 9 8 11 15 19 22 27 24 17 17 13 10
18 17 16 16 12 10 9 11 13 9 5 6 8 11 8 4 3 2 3 4 4 3 7 5 4 5 3 5 5 5 3 4 7 3 2 4 1 5 6 6 8 10 11 13 14 18 24 27 22 17 16 16 13 12
18 16 14 12 13 14 13 13 12 10 10 8 2 3 3 3 4 5 6 3 3 3 2 2 3 1 1 2 4 2 4 3 2 3 3 4 6 3 4 9 13 16 15 20 23 24 25 25 20 20 19 18 15 12
18 17 16 15 16 14 14 14 14 13 5 2 3 4 5 5 5 4 3 3 4 8 9 6 2 1 2 2 3 4 3 2 4 5 8 5 6 6 11 12 13 15 18 25 27 26 24 23 22 21 17 15 12 9
20 19 18 19 17 16 15 15 17 13 4 4 5 5 6 5 1 4 4 6 5 3 2 1 1 2 3 4 3 4 4 6 5 6 5 11 5 12 16 17 19 24 28 29 26 25 27 23 22 20 14 13 8 12
19 18 19 20 19 17 16 15 12 8 3 4 4 3 2 1 4 3 4 3 5 5 3 1 2 3 5 4 6 7 5 10 10 6 15 19 19 22 23 25 26 34 33 30 27 28 30 26 27 22 13 12 9 13
18 8 19 19 17 16 17 8 6 5 5 3 4 6 4 1 1 4 7 5 7 7 3 3 5 9 4 5 6 6 10 11 19 20 21 23 28 28 24 27 31 30 28 26 26 27 27 28 22 16 13 9 13 11
8 12 18 18 18 17 8 5 4 3 5 7 4 5 6 6 7 7 6 8 10 7 9 6 6 9 7 13 13 12 21 25 25 26 27 32 29 29 32 31 32 27 27 30 29 31 31 25 18 14 11 14 13 11
10 14 16 18 18 10 6 7 4 4 8 5 8 8 9 11 14 14 13 12 12 12 6 5 6 9 11 19 19 25 25 26 28 33 34 30 29 30 32 28 28 29 27 29 26 26 23 18 14 11 10 12 10 9
14 11 13 18 16 5 5 3 6 4 4 6 10 11 12 8 8 13 14 14 13 9 9 6 11 23 25 30 31 32 32 31 31 31 34 33 30 29 30 29 30 31 35 30 27 18 14 16 15 16 14 12 11 10
15 13 14 16 12 6 3 5 6 4 4 5 7 11 9 9 12 11 13 13 14 11 17 26 33 38 36 35 35 35 36 36 36 34 35 36 34 31 34 34 31 32 27 22 15 13 14 14 12 15 14 14 13 13
18 19 14 19 7 5 7 9 5 4 5 5 4 7 8 12 16 16 12 11 14 26 32 32 31 30 31 30 30 32 35 36 36 36 38 38 36 32 29 29 27 27 24 17 15 14 14 15 14 13 13 14 14 15
15 20 15 12 8 8 5 13 10 7 5 6 6 5 5 6 7 6 7 15 23 27 25 26 27 27 28 31 33 35 35 33 33 33 31 32 32 30 29 31 26 25 17 15 14 13 15 15 15 14 14 15 15 14
17 9 6 8 12 4 8 8 8 5 5 4 5 7 9 10 7 6 10 23 30 27 26 27 25 25 23 22 22 28 27 22 23 26 28 29 31 29 24 26 19 16 14 10 15 17 16 15 14 15 15 15 14 12
7 9 7 7 9 7 6 5 6 7 6 8 11 8 3 5 5 8 14 26 26 26 28 24 19 18 19 21 25 25 19 21 24 26 30 25 23 22 22 15 12 12 16 18 16 15 15 15 15 15 15 14 12 9
8 10 11 9 9 7 8 5 7 10 10 11 7 5 0 4 6 8 8 15 16 17 18 18 17 16 17 19 23 24 22 23 25 30 23 16 18 17 16 12 10 14 14 11 11 14 15 15 15 14 13 12 11 11
5 8 9 12 11 9 6 4 7 6 8 7 5 7 5 6 7 9 17 16 14 12 12 15 17 19 19 20 20 22 25 25 23 20 17 17 16 15 15 16 12 10 10 12 14 16 14 13 14 13 11 10 10 11
10 7 13 15 10 16 13 10 7 7 8 13 13 10 5 6 7 13 10 9 12 15 19 22 24 24 24 25 24 25 25 22 19 17 18 16 13 13 12 13 13 12 13 12 11 13 14 13 13 13 11 11 10 13
12 16 12 13 18 11 13 11 14 20 19 16 11 13 17 23 24 24 22 21 25 29 31 29 26 24 24 24 25 23 20 18 15 14 15 15 14 14 15 17 17 17 17 16 14 15 15 14 14 14 13 14 15 15
20 20 21 21 10 12 23 18 22 23 23 26 30 31 32 33 35 33 34 36 34 30 26 24 24 23 23 20 18 15 16 17 14 14 15 15 13 14 16 15 19 20 20 16 15 19 17 15 15 15 16 17 17 15
8 13 17 23 22 34 34 29 28 27 24 20 21 23 28 27 24 26 28 27 25 24 21 17 16 15 13 12 10 11 10 10 12 11 11 13 14 16 15 14 13 10 9 9 11 13 13 13 14 16 18 16 13 11
9 12 9 7 10 16 19 10 9 10 12 14 17 17 14 8 9 10 15 14 13 10 13 13 10 7 9 7 7 6 5 6 5 6 3 3 3 2 2 2 2 3 4 5 7 9 10 10 10 10 8 8 7 7
16 18 19 15 8 7 9 9 7 6 9 8 9 15 14 9 5 6 6 8 9 9 9 9 8 7 6 5 4 3 3 3 2 2 2 0 2 3 4 4 5 5 5 5 5 6 8 8 7 8 8 8 9 8

GFSWCAN_850_spd_006.txt.gz
Wind_Speed
20 28 38 32 33 33 32 31 28 26 24 22 20 17 15 13 11 11 10 11 10 6 13 11 12 14 13 9 3 4 3 4 2 3 3 4 3 4 5 8 7 8 6 4 5 5 11 5 13 5 18 29 33 28
20 21 25 32 27 35 31 35 30 30 28 26 24 22 21 18 16 14 16 13 14 13 10 8 14 22 18 19 18 12 7 6 8 3 3 3 3 2 2 8 14 5 7 7 9 7 29 40 38 31 45 36 37 33
18 19 19 23 28 28 30 28 30 31 28 28 28 26 25 23 21 20 20 18 16 17 22 25 26 30 26 26 22 18 13 13 14 14 9 4 5 3 4 4 5 6 19 12 16 19 30 38 44 41 37 34 32 31
10 13 18 22 24 27 29 33 34 29 29 30 28 27 26 25 24 23 23 21 21 10 6 14 24 31 27 21 22 23 26 24 24 20 12 4 3 12 5 9 10 8 11 12 21 29 33 32 31 37 39 37 22 27
10 10 11 13 17 22 25 29 32 35 35 33 30 31 30 28 26 24 25 26 24 20 5 7 14 20 17 17 19 24 24 26 24 14 8 4 6 5 13 10 7 12 15 10 17 33 29 38 40 40 29 20 21 21
8 9 11 14 13 13 16 21 25 31 35 38 38 37 33 30 28 23 23 35 31 29 9 3 9 15 22 28 27 29 29 30 28 13 8 11 23 11 4 12 14 23 22 24 29 45 45 40 33 27 22 22 21 24
7 6 8 8 11 15 14 14 17 23 26 26 29 35 37 32 31 33 9 9 16 21 6 5 5 4 20 24 20 25 28 29 24 17 12 11 10 13 3 11 33 30 31 38 40 31 22 21 21 19 16 20 25 20
9 5 7 9 7 6 8 8 8 13 18 21 21 20 24 30 28 23 23 13 15 18 8 3 4 3 6 5 6 9 4 9 8 6 2 3 6 9 5 22 30 33 30 30 21 21 18 16 17 19 21 24 23 18
14 9 7 7 6 9 9 5 3 3 3 7 14 15 16 17 11 13 15 12 20 11 6 5 3 2 7 4 2 1 2 1 4 5 7 5 4 7 11 22 24 27 26 15 13 13 12 15 20 23 26 27 20 16
17 13 10 7 4 2 4 7 8 5 7 11 13 5 5 5 8 5 4 3 5 6 6 5 5 3 6 6 3 1 1 2 2 5 7 4 9 31 32 32 28 8 7 7 9 14 19 20 22 25 26 23 18 24
19 19 14 10 7 5 4 5 8 11 11 8 4 3 9 13 5 3 2 2 3 3 5 5 11 2 3 2 2 6 1 2 3 3 4 3 4 13 14 5 4 5 6 7 9 12 16 21 24 27 28 25 28 20
18 19 18 14 12 9 6 8 14 9 3 5 7 13 11 3 2 2 3 4 3 3 6 5 4 3 4 2 3 5 2 3 6 4 2 4 3 6 2 3 3 5 11 13 13 19 24 27 28 28 29 27 25 20
16 17 18 16 15 10 10 12 13 7 11 9 3 4 4 3 4 4 6 3 4 2 2 3 3 2 2 0 2 2 4 5 4 3 3 3 4 10 2 2 6 10 13 12 23 26 28 28 29 29 29 28 24 18
18 18 18 17 16 13 13 14 13 13 4 3 3 3 4 4 4 2 2 3 4 9 10 8 4 1 3 1 2 3 4 3 4 5 5 1 6 3 5 7 11 15 14 25 26 30 32 31 29 29 28 24 22 17
17 15 15 15 15 15 15 15 16 8 4 2 2 3 5 2 5 4 6 7 12 8 4 3 3 1 1 2 3 3 4 6 6 4 3 12 10 7 10 15 19 23 23 27 32 30 32 32 30 32 28 30 25 12
19 17 17 18 19 17 16 15 12 6 2 2 3 2 2 2 2 1 2 4 6 6 3 2 2 2 4 4 6 8 5 7 4 3 15 16 17 18 18 25 24 23 28 29 32 29 28 31 32 33 31 28 18 9
19 15 20 19 18 15 16 11 7 5 4 3 4 5 1 2 2 6 7 6 7 7 2 3 3 8 4 5 7 5 6 7 13 16 19 21 25 26 28 28 28 30 32 31 28 30 32 34 31 32 30 21 12 10
15 10 18 21 19 19 13 6 4 2 3 6 4 5 7 6 6 8 9 8 9 8 5 5 6 8 6 11 11 9 18 21 24 26 28 31 31 33 30 26 33 35 31 29 33 31 33 35 32 28 23 12 11 14
10 12 20 22 21 11 6 7 3 3 7 3 7 5 7 9 13 12 11 10 14 12 5 5 7 8 10 16 18 23 26 24 25 29 30 31 31 31 34 33 32 31 31 31 29 33 39 29 25 18 10 11 13 11
10 15 21 21 14 5 4 3 4 3 3 5 8 11 13 10 8 13 16 15 14 10 9 6 9 22 21 24 26 27 30 32 31 30 34 35 34 32 32 32 32 33 34 33 31 32 27 22 16 13 14 12 12 10
13 16 18 16 9 5 3 4 5 4 4 5 5 11 9 11 15 14 11 14 12 10 14 20 29 35 33 33 34 34 35 33 34 30 33 36 38 35 36 36 35 33 30 28 31 31 24 17 14 15 16 15 13 13
13 19 16 17 5 4 5 8 5 5 5 6 5 5 6 8 12 13 13 13 15 25 31 34 30 28 29 30 30 29 29 30 35 36 37 36 33 31 31 30 30 30 30 31 30 28 20 15 12 11 13 12 12 12
20 17 9 8 4 4 5 9 7 6 4 5 5 4 6 6 7 8 6 13 21 29 28 27 28 27 28 30 30 32 31 31 30 31 31 30 30 28 30 35 32 33 30 27 24 17 15 12 12 12 12 12 12 12
18 11 7 9 11 4 6 7 6 5 6 6 4 5 7 8 12 10 9 20 32 27 26 28 27 28 27 26 26 24 25 25 27 28 27 27 31 32 35 34 30 29 22 16 12 12 9 10 14 14 13 13 12 12
7 7 6 6 9 7 5 4 6 6 6 8 12 8 4 5 4 7 11 26 26 25 24 23 22 22 21 22 20 22 24 24 22 26 32 29 33 26 22 23 23 16 10 13 12 6 11 16 13 13 13 13 11 10
7 10 10 8 10 7 8 5 7 11 10 11 6 6 4 3 6 7 7 14 15 15 17 18 16 14 17 18 21 23 23 24 27 29 31 27 22 20 21 20 20 16 13 12 12 16 13 10 13 14 13 12 12 10
6 8 8 10 10 9 5 8 9 7 7 6 5 9 4 5 6 7 15 14 13 13 12 11 13 15 18 23 25 24 27 28 27 28 29 27 23 21 19 18 19 20 12 10 11 11 12 14 15 13 12 11 9 8
8 6 10 15 12 14 10 9 6 6 6 11 11 10 5 5 6 14 10 13 14 17 22 23 24 28 33 32 29 29 29 28 28 27 26 23 20 17 14 14 15 13 10 9 10 11 13 13 12 11 11 10 9 10
9 11 11 11 16 9 12 11 14 20 22 19 11 13 20 27 29 29 30 29 28 29 32 34 37 35 30 27 25 25 24 20 20 22 21 22 20 18 17 15 13 15 16 16 17 16 16 13 12 11 10 11 12 12
15 16 14 15 13 12 27 20 25 26 23 24 26 29 32 38 43 40 36 34 35 36 36 34 32 29 25 23 22 20 14 14 13 15 18 20 20 20 18 13 14 16 18 19 19 19 16 15 14 12 12 12 13 14
12 11 17 22 21 31 32 30 30 30 30 30 29 29 34 36 34 32 30 31 31 31 29 26 20 14 12 13 12 12 11 9 10 14 13 13 12 11 10 9 10 10 8 8 8 6 8 9 9 9 10 11 12 14
9 13 15 14 19 23 21 14 15 18 21 20 25 25 26 19 14 15 17 18 17 14 11 12 13 11 13 13 8 9 10 10 8 9 8 7 6 6 5 4 3 2 1 1 1 3 6 6 7 11 11 10 9 8
19 20 22 21 18 18 22 12 8 9 16 21 21 21 20 17 7 7 7 7 10 13 14 13 11 8 8 7 8 7 6 6 6 6 6 5 4 4 3 2 3 5 5 5 5 7 8 7 6 5 7 7 9 10

GFSWCAN_850_spd_009.txt.gz
Wind_Speed
22 36 35 31 34 32 30 27 24 22 20 19 17 15 13 11 9 8 8 6 5 5 11 8 7 12 8 5 4 3 4 1 4 2 3 3 4 4 2 4 3 5 3 4 2 5 8 5 12 5 14 26 35 32
11 16 32 34 31 34 31 31 27 27 24 22 20 18 16 14 12 11 12 11 9 10 9 8 9 18 17 13 9 4 5 2 8 3 3 2 3 1 4 6 3 3 7 4 9 6 11 29 25 33 39 37 37 29
12 11 16 31 32 31 29 31 30 29 27 26 23 21 19 18 16 15 15 15 14 12 20 24 27 24 22 21 19 11 11 11 10 16 9 4 4 3 4 5 5 2 12 6 6 5 25 31 41 38 36 34 23 18
8 14 13 14 19 28 30 26 30 24 29 27 25 24 24 22 21 19 19 18 17 7 6 14 21 27 29 22 23 22 25 26 28 23 15 3 3 13 4 6 8 7 7 8 14 24 32 27 28 33 24 20 16 10
7 8 13 16 14 17 23 26 25 27 26 24 25 24 23 21 20 20 21 22 20 16 5 6 10 12 8 15 15 17 22 27 29 12 7 4 6 4 6 3 3 15 15 8 15 28 23 33 25 28 13 10 11 15
8 8 8 8 9 11 12 17 21 25 27 31 29 24 21 21 21 21 20 30 26 24 10 3 7 17 19 22 29 29 29 30 29 13 8 11 24 14 4 7 13 25 24 26 22 30 37 24 21 15 11 15 17 18
7 6 8 7 9 10 9 9 12 17 22 26 28 28 29 27 27 31 7 4 14 22 12 6 5 4 20 23 23 24 25 22 23 20 11 15 14 11 2 11 29 27 25 31 38 36 14 8 8 10 13 17 19 16
9 6 6 6 4 3 5 8 10 11 13 17 20 20 20 24 27 27 28 23 19 22 8 2 3 3 7 5 5 8 6 9 8 9 3 4 6 7 5 17 24 20 22 25 11 7 7 9 12 13 15 19 20 19
10 5 3 5 5 5 4 2 3 5 9 13 15 14 16 17 12 12 16 17 22 11 6 4 2 2 5 4 4 1 2 1 6 4 5 6 2 6 8 17 19 22 16 5 4 4 5 11 15 19 22 24 24 26
12 10 5 5 2 1 4 5 3 7 11 17 21 7 5 6 8 10 7 7 12 7 7 4 5 2 8 7 2 1 2 2 2 4 4 3 6 22 27 30 29 2 5 7 9 6 9 16 21 26 26 25 29 29
13 14 10 7 5 5 6 7 7 10 13 9 4 4 13 13 4 4 2 2 2 2 5 4 11 1 3 3 2 5 1 1 2 4 3 3 3 7 10 6 6 5 5 4 5 6 14 21 25 29 31 32 31 31
14 17 16 11 8 7 7 11 15 8 6 6 6 14 9 3 2 2 3 3 3 3 7 4 3 3 2 2 2 4 1 1 5 7 1 3 4 11 5 9 14 6 1 5 6 12 28 27 27 26 28 30 30 29
15 17 17 13 11 9 8 13 9 9 11 13 4 4 4 2 3 4 5 3 2 3 2 4 3 3 2 2 2 1 3 4 4 1 3 4 7 13 12 9 11 14 13 15 20 25 27 31 32 28 28 27 27 30
16 13 15 16 14 11 10 13 12 10 4 2 3 3 4 3 3 1 1 2 3 7 10 9 5 2 2 2 1 2 4 1 3 3 4 3 13 11 11 13 16 19 23 23 24 26 32 39 35 32 30 27 28 27
16 16 18 17 16 14 14 13 13 11 2 1 2 3 4 2 4 6 6 6 8 9 8 7 4 2 2 1 3 1 3 4 5 4 2 8 9 12 13 17 21 24 24 26 28 34 39 36 32 34 32 33 27 26
19 19 17 15 15 15 16 18 17 10 1 1 2 1 2 4 4 4 5 9 9 10 6 3 3 2 3 3 2 6 2 6 3 1 9 16 18 20 21 21 26 31 30 31 34 39 35 34 34 35 36 34 30 22
19 14 15 13 14 16 17 14 6 4 4 2 3 5 3 3 3 7 9 7 8 7 2 2 2 9 3 2 3 4 5 3 10 20 24 26 25 27 27 30 30 32 33 39 36 35 34 34 35 35 37 35 23 17
17 14 16 16 17 18 15 6 5 4 3 5 4 7 9 5 4 5 7 10 10 8 4 4 4 2 5 5 4 5 14 23 30 32 33 35 31 29 32 33 34 35 36 36 37 34 36 33 32 33 34 26 17 12
14 12 17 18 22 9 5 6 3 2 6 3 7 6 6 5 9 9 10 9 13 11 3 4 3 4 5 7 13 25 28 27 23 25 33 38 34 30 32 34 35 36 37 37 36 38 36 34 30 34 25 19 11 8
10 14 22 22 17 5 4 4 6 3 2 4 9 12 11 9 11 12 14 13 13 10 10 5 6 19 18 23 24 25 29 33 35 31 34 37 34 33 35 36 38 37 36 35 34 34 33 33 35 30 18 13 11 10
18 25 27 20 9 5 3 4 3 3 4 4 6 13 5 9 16 16 14 13 12 7 7 21 33 38 33 33 35 35 36 36 36 31 31 34 41 38 38 37 35 33 31 32 35 36 34 34 31 21 13 15 9 6
21 24 20 13 3 3 3 7 3 2 4 4 3 5 3 4 10 14 12 15 10 20 28 33 33 32 32 32 32 31 31 29 29 32 35 33 31 36 35 36 34 35 37 37 35 32 30 26 19 12 8 7 10 14
22 18 8 6 2 3 3 7 5 5 3 3 3 2 4 5 6 7 8 10 17 31 31 31 32 31 32 33 33 33 31 30 30 30 28 28 32 30 32 33 31 33 31 30 29 25 19 15 12 9 7 9 13 13
15 12 6 7 8 4 4 6 5 4 5 4 3 3 4 7 6 8 4 14 28 30 29 29 29 31 31 29 28 25 24 23 23 24 26 28 30 33 31 28 24 23 24 26 20 15 12 7 7 6 9 14 12 10
6 8 6 6 8 5 4 3 6 4 4 6 3 4 4 6 2 3 4 19 26 28 28 26 25 22 23 24 19 18 19 21 24 26 27 27 29 29 30 28 24 24 21 18 13 6 6 6 6 12 9 10 11 9
5 10 11 12 9 6 7 5 6 7 4 4 6 5 4 2 2 6 4 10 13 16 17 17 16 14 13 14 15 17 23 26 28 29 32 29 26 27 30 28 27 25 17 14 14 11 10 13 10 10 12 12 10 12
6 7 8 12 8 8 4 6 9 4 5 6 3 4 3 4 6 6 17 18 11 8 8 9 10 13 18 22 26 29 30 31 29 30 29 26 26 21 18 22 22 20 17 14 13 13 12 11 14 13 14 12 13 13
9 6 7 12 10 13 5 3 5 7 5 7 5 5 6 8 6 12 13 10 15 21 25 29 28 27 27 28 30 32 33 26 22 22 22 20 18 18 16 15 15 17 15 10 13 12 12 14 12 14 15 13 12 9
6 9 12 11 13 7 8 8 9 12 17 17 6 4 11 25 28 29 31 31 32 35 39 42 40 32 31 29 28 25 19 16 17 19 19 21 23 20 20 21 20 16 13 14 15 17 17 17 17 16 14 13 13 12
7 14 8 8 7 6 17 18 22 25 23 25 27 28 31 39 42 39 37 34 30 31 31 30 29 27 26 24 20 15 11 12 13 14 16 19 20 18 17 17 14 11 13 13 12 14 15 14 13 14 13 14 14 13
11 11 15 18 12 27 33 34 31 30 32 34 32 28 32 38 38 33 27 28 29 30 29 27 25 19 14 13 13 12 12 11 11 12 13 11 10 11 12 12 11 9 7 5 6 5 4 2 5 6 7 7 7 8
10 11 14 10 18 27 26 26 25 24 24 24 26 26 28 23 18 17 20 18 18 16 14 12 10 12 12 13 12 12 11 11 9 8 8 7 7 7 8 7 6 7 7 7 7 6 6 3 3 6 8 7 6 6
15 20 22 17 7 6 16 15 9 12 19 23 24 24 25 22 9 7 7 5 7 9 11 12 14 13 8 8 6 8 8 6 5 5 6 7 7 7 7 7 7 7 6 6 7 8 10 10 8 5 5 6 7 7

GFSWCAN_850_spd_012.txt.gz
Wind_Speed
20 36 35 34 32 30 27 23 22 21 19 17 15 13 11 10 10 9 9 8 8 5 6 4 6 6 6 5 4 6 3 1 4 2 3 4 3 5 1 4 5 6 3 4 2 3 8 4 2 1 9 15 29 31
8 21 34 36 34 33 31 28 25 22 21 19 18 16 14 12 11 11 10 9 8 7 4 6 11 16 16 10 5 8 4 5 10 3 2 2 3 2 5 7 1 3 7 5 9 7 5 8 22 21 29 32 23 12
8 10 20 37 32 32 35 31 29 26 23 21 19 18 16 15 13 12 11 9 8 8 15 20 20 19 19 15 13 7 10 12 8 13 7 4 4 3 5 5 4 4 7 4 6 8 16 24 37 38 26 19 13 14
4 10 10 22 33 35 31 34 32 30 28 25 24 21 19 18 16 15 15 13 11 5 5 10 17 23 22 22 20 21 24 24 23 20 12 3 3 13 4 6 7 9 8 5 14 22 31 30 23 19 11 8 7 5
5 6 8 8 16 25 30 30 28 30 28 27 27 22 21 21 19 19 18 17 16 11 3 4 11 18 13 11 10 13 15 20 23 18 6 3 6 5 6 2 4 15 15 7 14 24 20 24 16 5 9 6 7 15
8 7 7 13 11 9 14 24 33 25 26 28 23 25 24 21 20 17 12 22 20 19 6 2 7 17 23 25 32 29 32 28 27 12 7 11 20 9 4 4 12 23 25 32 25 33 31 13 3 4 2 9 13 17
7 7 8 9 11 13 11 8 16 26 27 27 28 26 22 21 22 23 7 4 12 23 5 6 4 6 17 20 23 24 25 25 19 16 11 19 17 11 2 9 32 22 25 32 33 29 11 5 6 5 10 19 20 20
8 8 8 7 8 9 11 14 15 15 19 22 24 23 24 22 23 26 22 14 10 22 7 3 2 2 4 3 4 6 5 5 8 8 3 5 5 7 5 28 21 23 24 19 9 3 8 4 8 13 13 18 22 21
10 6 8 9 8 8 8 7 8 10 13 15 17 16 16 18 14 16 22 21 24 13 5 4 4 3 6 4 4 2 3 1 4 3 3 3 1 5 7 11 18 23 10 8 10 12 8 8 15 18 23 22 22 26
12 9 8 8 7 7 9 8 8 10 13 17 18 9 6 6 8 9 8 9 13 6 5 5 6 3 10 11 3 2 2 2 2 3 3 3 5 21 32 36 32 7 6 8 12 10 12 12 15 20 22 23 23 27
14 12 9 9 9 10 12 14 15 19 23 14 6 4 15 16 4 6 3 2 2 2 3 3 10 1 3 3 2 4 1 1 2 3 2 2 2 6 5 12 13 9 10 8 7 5 12 19 23 27 28 26 25 26
15 15 13 12 10 11 12 16 14 14 8 6 7 15 10 4 2 1 2 1 3 4 5 5 3 4 3 3 2 4 1 2 4 3 1 3 3 14 18 15 14 10 8 8 12 21 25 26 26 28 25 24 24 26
15 17 16 13 11 11 16 16 13 14 14 14 4 5 3 2 1 5 6 3 2 3 6 6 3 2 3 2 2 2 1 4 1 1 3 3 1 9 8 7 8 13 18 22 26 26 24 24 28 30 29 27 26 29
16 17 17 15 14 13 16 13 13 15 7 3 4 2 3 2 3 3 2 2 2 3 8 10 5 2 2 2 2 3 3 2 2 3 5 2 5 9 12 17 22 22 20 24 27 26 28 32 37 33 31 31 31 35
17 17 17 17 17 14 16 15 14 12 2 2 4 3 4 3 3 5 4 6 6 11 8 7 5 1 1 2 2 0 3 3 4 4 3 4 7 13 15 18 18 21 28 29 30 31 33 37 36 36 34 34 31 29
20 19 18 19 17 16 17 16 14 9 2 1 2 3 4 5 4 3 4 7 10 10 7 3 2 3 3 3 2 5 5 6 4 3 0 8 10 12 14 18 25 33 31 32 34 34 35 36 38 34 37 34 30 34
22 17 17 19 18 17 17 15 8 5 3 2 2 4 5 2 7 8 9 11 10 9 2 3 3 9 1 2 3 4 5 4 4 9 13 11 12 22 30 31 29 30 34 35 37 38 37 36 35 36 36 34 31 37
20 18 20 19 17 16 16 7 4 5 3 3 4 7 11 4 5 7 10 11 12 7 3 3 1 2 5 5 4 4 4 15 25 24 27 27 34 32 31 28 32 34 36 37 35 33 34 34 33 35 32 34 36 32
19 19 18 15 16 12 4 6 3 2 3 4 6 6 6 7 12 11 8 13 15 8 3 3 1 4 4 6 8 19 21 16 20 32 38 35 31 29 28 32 34 35 35 35 35 34 34 33 36 33 31 32 30 17
18 16 18 22 20 5 4 3 5 4 4 3 6 11 7 6 8 9 13 14 12 8 7 4 6 13 16 26 22 21 28 33 32 33 35 33 31 30 33 34 32 35 35 37 37 33 36 36 33 27 25 24 15 9
24 26 21 22 10 4 3 5 4 3 2 3 3 10 3 8 13 14 11 12 13 5 5 20 31 36 35 36 35 35 34 28 29 30 32 34 36 35 33 31 34 32 35 37 33 34 32 30 28 27 20 14 9 9
24 27 19 14 2 3 3 5 2 2 3 2 1 5 3 4 7 8 10 13 9 20 30 32 35 36 36 33 30 26 26 26 28 30 31 30 30 27 29 31 30 35 35 29 27 30 31 31 24 18 11 5 6 7
27 20 8 4 2 4 2 7 4 4 2 2 2 1 3 3 5 7 6 9 13 27 30 31 31 31 32 31 31 30 28 26 26 26 23 23 24 26 27 30 32 28 28 26 26 28 28 22 19 14 6 8 6 9
17 10 5 7 4 3 4 4 4 3 3 3 2 3 3 7 6 6 3 8 27 30 30 32 31 31 31 30 29 24 19 18 16 16 19 24 28 30 30 35 31 27 25 24 23 24 23 17 10 5 6 5 10 12
6 5 4 4 4 5 3 1 4 2 4 4 3 4 5 6 2 3 4 21 31 29 20 15 15 17 20 17 15 12 9 11 17 25 29 27 28 30 35 35 32 29 23 17 18 19 16 13 10 8 10 8 9 11
3 9 11 11 8 6 7 5 5 7 4 3 6 5 4 3 2 5 4 16 18 18 18 13 8 7 8 9 11 15 19 27 31 32 31 29 29 28 28 28 29 28 21 16 19 21 18 15 15 16 14 13 13 12
4 6 8 10 7 7 4 6 6 4 5 6 3 2 3 3 6 6 17 18 18 16 8 7 7 11 19 22 24 28 29 28 28 31 34 27 21 16 17 21 25 24 21 19 18 17 17 16 17 15 17 17 15 13
9 7 7 12 10 14 5 3 4 6 5 8 5 4 7 8 6 17 21 13 12 17 23 23 28 33 35 34 31 27 27 28 29 29 23 21 13 12 16 20 23 26 27 22 19 17 17 17 18 18 19 18 17 15
6 5 10 10 10 7 9 9 9 12 18 17 6 4 12 26 29 29 30 32 36 39 37 36 34 28 27 25 24 24 24 23 17 17 18 18 16 15 17 16 17 16 16 13 14 15 14 17 20 21 21 20 20 17
6 14 7 9 7 7 16 19 23 24 24 26 28 29 29 32 35 35 36 34 30 29 29 31 29 23 22 22 23 18 13 12 12 14 16 17 17 14 13 14 14 14 13 11 10 12 13 12 12 12 12 13 13 13
5 9 8 14 12 27 31 32 33 32 32 34 34 32 31 34 33 27 24 26 26 25 24 23 21 19 16 12 11 10 12 13 13 13 14 12 11 12 12 11 10 9 9 10 11 11 10 9 7 6 4 3 4 7
7 8 9 6 16 24 24 26 28 27 28 28 28 30 32 23 16 17 19 16 14 13 13 10 8 9 10 11 13 12 12 11 12 10 8 8 8 8 9 9 10 11 12 11 10 10 10 9 9 9 10 8 7 6
10 15 20 19 11 6 11 15 11 11 17 23 26 29 27 17 5 4 4 5 6 7 8 10 11 11 9 9 7 7 7 7 6 6 7 7 9 9 10 11 11 12 13 13 13 14 13 13 11 8 7 7 7 6

GFSWCAN_850_spd_015.txt.gz
Wind_Speed
19 43 35 34 32 28 27 25 23 21 19 18 16 14 13 11 10 10 9 9 9 4 6 9 9 8 7 6 4 6 3 1 3 2 3 3 3 5 1 4 5 5 3 5 2 3 8 6 1 5 10 25 17 21
6 21 44 40 35 33 29 27 25 23 21 19 18 16 13 12 11 10 9 9 9 6 4 13 14 12 11 9 6 13 4 5 9 3 2 2 3 1 4 4 3 4 8 4 9 6 5 11 13 28 19 21 16 8
14 7 23 43 40 37 33 31 27 24 23 22 20 18 15 13 12 11 9 8 7 7 11 16 17 14 14 11 13 9 9 10 7 10 9 3 4 3 4 5 3 4 9 4 5 7 24 22 32 36 33 14 13 9
9 6 13 32 40 39 37 33 31 28 25 22 20 18 16 14 13 12 11 9 8 2 3 7 10 11 10 12 16 19 20 18 17 14 9 3 3 13 4 5 7 9 4 5 10 22 28 30 18 21 17 11 2 4
7 4 12 12 36 38 36 35 34 31 30 26 24 21 19 17 15 14 14 13 11 9 2 7 11 13 15 14 17 19 21 23 23 8 5 3 6 4 5 3 4 13 7 6 10 25 23 27 19 9 10 4 5 12
6 2 6 7 15 36 35 34 34 35 34 29 30 26 23 21 18 15 9 20 20 18 5 2 11 19 22 21 21 17 17 18 17 8 5 7 15 10 4 4 10 22 21 27 27 33 24 19 2 5 11 10 15 18
7 5 5 8 7 9 18 31 38 33 30 35 29 27 27 24 22 22 6 5 11 20 4 5 5 6 13 18 21 20 22 18 13 8 8 18 19 10 2 10 20 25 29 29 27 18 4 2 3 5 14 15 16 19
6 7 6 7 9 10 6 10 20 31 36 29 29 25 22 19 22 23 26 15 13 17 7 3 2 3 3 3 4 6 4 6 9 6 4 5 4 8 4 11 18 14 13 15 8 4 5 8 7 11 16 21 23 25
8 8 8 8 9 11 14 13 10 13 21 26 23 21 21 21 12 14 16 19 21 12 4 3 3 3 3 1 1 1 2 1 3 3 3 2 1 4 4 9 21 24 14 5 14 15 10 11 11 13 23 27 25 26
10 8 11 9 8 9 9 13 17 18 18 19 19 9 6 9 7 3 5 4 7 5 5 4 4 1 7 7 1 1 1 1 2 2 3 2 2 6 17 11 10 13 14 14 12 7 13 14 18 24 26 25 25 25
12 9 9 9 8 10 10 12 17 21 24 20 6 4 17 17 6 5 3 4 3 2 2 2 8 1 4 2 2 5 1 1 2 3 2 2 2 6 17 20 20 18 15 13 11 13 17 24 28 25 25 29 29 27
16 13 11 10 11 15 18 21 25 23 14 12 9 15 11 3 3 3 1 1 2 3 4 4 5 6 3 3 2 2 1 1 4 3 1 2 2 7 9 10 14 16 15 12 14 18 21 21 22 22 26 31 28 27
17 17 15 13 12 14 15 17 15 15 18 18 5 6 3 1 1 5 6 2 2 3 6 6 2 2 3 2 3 2 2 4 3 1 3 3 8 5 6 8 10 13 13 17 22 21 21 23 23 24 30 29 30 30
20 20 17 14 14 19 17 16 17 19 8 3 4 3 3 2 2 3 3 3 4 2 5 8 4 1 2 2 2 2 2 1 2 2 5 1 7 3 8 12 13 16 19 25 24 23 25 27 29 30 30 31 28 31
22 22 21 17 16 19 17 15 15 13 3 3 3 3 3 3 3 4 3 5 4 9 8 6 4 2 2 2 1 0 1 3 4 4 2 6 7 8 9 11 16 21 22 24 27 30 32 33 33 33 33 31 30 31
25 23 21 20 18 18 16 15 11 6 2 2 3 4 4 5 2 6 5 6 9 11 6 3 3 3 3 3 2 5 5 6 4 3 2 7 9 7 15 21 24 25 24 27 28 31 32 32 32 32 33 31 30 27
28 23 25 21 19 18 14 11 6 2 1 2 2 4 10 3 7 9 9 8 12 9 2 3 3 8 3 3 2 4 4 3 6 7 5 5 10 19 22 24 23 23 28 28 30 32 33 35 34 33 34 36 36 29
24 24 24 22 20 18 14 8 4 3 2 2 4 6 10 4 5 7 13 12 11 7 4 3 2 2 5 5 3 4 6 4 11 10 20 27 25 24 22 22 24 26 28 28 31 33 35 37 32 34 36 35 31 25
24 23 18 17 15 11 4 5 3 3 2 3 4 6 6 5 7 5 7 11 13 8 2 2 1 3 4 7 7 10 11 14 19 30 33 28 23 21 21 24 26 27 27 30 31 33 35 30 26 28 32 28 28 26
18 19 18 16 15 5 4 3 5 3 5 5 7 7 4 1 2 5 8 11 14 7 7 4 6 8 13 21 20 24 27 28 29 30 29 26 24 25 27 27 25 24 28 31 34 35 31 31 32 28 29 25 25 20
25 24 19 21 13 4 3 5 5 4 4 3 2 5 2 6 8 9 9 12 12 6 5 16 27 33 34 35 33 31 30 25 23 22 27 33 29 29 26 23 23 26 28 33 34 32 27 29 30 28 25 24 19 9
27 24 21 14 3 4 3 4 3 5 3 2 2 5 3 3 5 7 7 8 6 18 29 33 33 32 32 31 25 23 24 25 25 26 26 24 26 24 24 24 27 29 31 34 31 30 29 29 27 27 23 20 12 5
28 19 8 3 3 3 3 8 3 3 2 3 2 1 2 3 4 5 4 7 10 24 26 28 27 27 29 28 28 27 25 26 26 21 18 16 16 21 26 27 27 29 33 34 30 28 26 22 23 21 20 15 10 8
19 7 4 5 2 3 5 3 3 3 4 2 2 2 3 6 5 5 3 6 24 25 26 27 29 29 26 25 22 18 15 15 17 14 13 18 28 32 29 30 30 30 28 28 24 22 20 20 21 17 13 8 7 12
6 4 3 3 3 4 2 1 1 2 3 2 2 4 5 6 2 2 4 12 25 23 17 15 13 13 16 15 13 13 10 12 15 20 25 30 30 31 34 34 29 24 18 20 20 20 20 23 21 19 17 15 16 16
3 5 7 10 5 4 5 4 4 6 3 2 6 4 4 3 2 5 4 10 15 17 18 17 14 13 11 8 11 18 23 22 24 29 32 27 25 28 33 29 30 28 22 22 23 25 25 25 20 20 20 21 20 20
1 5 7 8 6 5 3 4 4 3 4 5 3 2 3 3 6 6 11 12 12 17 16 7 6 13 20 26 28 30 28 28 30 27 25 24 27 25 22 23 24 26 28 28 28 28 27 24 22 22 22 21 20 20
6 7 7 10 7 10 4 3 5 6 4 8 5 4 7 8 6 13 18 22 21 18 18 24 30 33 32 29 27 25 25 23 20 25 28 24 19 16 14 16 20 21 20 20 19 17 15 18 20 21 22 22 23 23
4 5 10 8 7 7 10 9 8 9 12 12 7 4 10 23 25 28 30 28 27 29 32 34 33 28 27 25 21 21 20 22 24 21 17 16 13 14 16 15 15 14 15 15 14 14 15 17 19 20 21 22 23 24
6 13 7 6 5 6 12 15 19 24 25 29 30 31 31 31 30 32 35 35 30 28 28 28 27 23 19 18 18 18 17 15 14 14 15 16 15 15 12 13 13 12 12 12 13 15 15 15 15 15 14 13 11 9
3 7 6 7 8 20 25 27 29 31 32 33 33 33 33 33 29 25 24 23 22 23 22 20 18 18 15 13 11 9 10 13 13 13 14 15 12 10 10 12 12 13 13 14 15 15 15 15 15 15 15 14 12 10
6 8 6 3 15 24 26 27 28 29 31 30 30 30 31 26 15 9 13 15 12 11 10 9 10 10 10 9 10 11 11 10 11 11 9 8 8 9 11 12 13 14 15 16 16 17 17 17 17 16 14 12 10 9
6 10 12 7 3 4 5 9 7 8 18 26 29 29 25 10 4 0 4 7 8 9 9 8 8 7 5 4 5 6 6 7 7 8 8 9 10 11 12 13 15 16 17 17 17 16 16 15 14 12 10 8 8 7

GFSWCAN_850_spd_018.txt.gz
Wind_Speed
24 34 33 27 26 24 24 23 21 19 19 17 14 12 9 8 8 7 7 6 5 3 5 7 7 6 7 7 4 7 4 1 3 3 3 4 3 5 2 4 5 5 4 4 1 2 8 6 3 4 8 12 22 26
4 24 38 35 31 28 25 25 24 22 19 18 16 14 11 10 9 8 6 6 5 3 1 8 9 9 8 4 6 11 2 4 7 4 2 3 2 1 4 3 2 4 7 4 8 7 7 6 16 26 25 25 25 13
15 5 23 39 38 34 29 26 25 24 22 19 17 15 13 10 9 8 7 6 4 3 7 10 9 10 13 13 12 5 6 7 6 6 9 2 3 4 4 6 5 4 6 4 2 8 22 23 33 39 28 14 8 6
7 10 7 33 37 35 33 31 27 24 23 21 19 17 15 12 10 9 8 7 6 1 1 3 4 4 12 13 15 15 16 12 10 9 6 3 2 10 4 5 5 7 2 4 7 20 26 28 26 18 11 8 3 2
4 7 13 11 33 40 38 34 32 29 25 22 19 17 15 14 12 11 9 9 8 7 2 4 9 14 15 13 17 15 18 20 16 6 4 3 5 3 5 2 3 10 7 5 10 24 20 15 6 6 4 8 13 14
3 6 4 8 12 40 37 41 35 32 30 26 23 22 19 16 14 12 7 15 15 13 3 2 4 8 12 17 21 24 21 20 19 7 6 7 12 9 3 3 7 24 30 31 29 25 11 3 7 1 7 10 12 16
4 5 7 4 3 21 44 36 38 36 32 29 27 24 21 19 19 19 6 4 15 18 4 3 5 5 11 13 14 16 18 14 13 8 6 9 14 9 1 9 15 27 29 26 16 10 4 2 5 8 9 14 19 22
4 2 6 11 4 6 12 39 38 35 34 33 30 25 23 22 22 23 22 11 15 14 7 3 3 3 3 1 3 4 5 6 7 5 3 3 3 6 3 5 11 12 13 5 1 3 13 11 7 6 12 19 25 25
5 3 0 4 4 3 6 10 20 33 34 30 27 27 24 26 21 21 21 19 18 10 5 5 4 3 3 3 2 0 1 1 3 2 2 3 1 4 5 13 11 10 1 15 16 15 10 11 14 18 24 22 19 26
7 7 7 6 7 7 6 6 9 14 24 29 28 12 7 11 17 16 5 4 8 3 4 3 3 2 6 5 3 1 1 1 2 1 3 2 1 6 9 15 20 18 14 7 5 11 18 20 21 25 25 23 21 27
9 7 8 7 7 8 10 13 11 11 16 19 5 4 15 18 8 4 4 4 3 1 2 3 7 2 4 2 3 5 1 1 1 3 1 1 2 5 12 13 13 13 14 12 11 13 16 19 23 26 29 29 28 32
12 9 8 8 10 12 14 18 24 26 15 10 9 15 12 3 4 3 2 2 2 3 4 3 2 3 2 3 2 2 2 1 4 3 1 2 3 11 7 7 9 9 10 12 16 19 20 21 23 26 29 31 31 31
15 12 10 10 16 15 21 26 17 15 15 15 4 5 3 3 2 4 6 2 2 4 5 5 2 3 3 2 3 1 2 3 2 1 3 3 10 9 3 5 8 10 15 17 20 21 21 23 25 27 30 31 30 31
19 15 12 11 14 14 13 14 17 20 6 4 4 3 2 1 1 3 2 3 4 3 7 10 5 2 2 2 2 2 1 1 1 1 5 1 9 3 4 6 10 17 19 21 20 22 25 26 29 31 32 32 31 32
21 19 17 13 16 15 15 16 17 9 3 3 3 3 2 4 3 3 4 6 4 6 8 6 4 2 1 3 1 2 1 3 4 4 2 8 2 5 6 11 19 22 22 22 22 26 26 28 31 33 36 36 32 32
22 20 18 18 19 17 14 12 10 4 3 2 3 5 5 4 2 5 6 5 8 11 7 3 3 3 2 3 2 5 5 5 3 3 5 2 5 7 15 21 22 21 20 22 25 26 27 30 32 35 37 33 30 30
27 18 22 20 20 17 15 11 6 3 2 2 2 3 9 2 11 9 8 7 10 9 2 3 3 6 4 2 2 4 5 3 9 2 3 5 16 22 23 23 22 21 22 24 25 26 29 31 34 35 33 32 29 32
28 20 24 21 21 17 12 6 3 3 2 2 3 4 9 3 7 9 13 11 11 6 5 2 4 2 4 5 4 4 8 9 5 5 12 20 22 23 19 20 20 22 25 25 24 26 29 33 34 29 30 29 30 29
25 25 24 24 21 13 4 4 3 3 2 3 2 4 6 3 5 3 6 10 11 5 4 2 2 3 4 7 6 4 2 10 18 23 26 23 20 18 19 21 22 23 23 23 25 27 31 32 30 26 28 28 28 28
24 26 26 20 17 5 4 4 5 3 3 4 4 4 2 2 3 6 8 9 12 6 6 4 6 4 6 9 13 18 21 25 25 26 27 25 21 21 21 21 22 21 23 26 28 29 33 33 31 28 25 26 26 26
28 24 21 20 11 5 4 4 4 3 3 3 5 4 2 4 5 6 7 12 11 5 5 13 22 27 29 30 29 27 26 22 21 19 23 29 27 24 22 20 18 20 26 29 30 33 33 28 30 24 25 25 24 23
30 25 20 14 4 3 3 4 5 6 3 3 4 3 1 2 3 4 7 7 6 12 21 29 30 29 28 27 21 20 22 23 23 24 24 24 26 23 20 17 24 29 28 28 30 31 32 29 26 20 23 25 22 20
25 18 10 4 3 3 3 8 2 3 3 2 3 1 2 3 2 6 3 6 9 19 21 22 21 20 22 23 24 24 22 22 22 20 19 18 20 20 22 28 29 28 32 35 27 24 24 24 24 21 22 22 20 16
16 5 3 3 4 3 5 2 1 3 3 2 3 1 3 4 5 3 3 5 18 21 19 19 18 20 19 18 16 13 11 12 14 16 15 17 21 25 29 33 29 28 31 25 21 23 23 23 23 24 24 21 18 15
5 3 2 4 3 4 3 4 2 1 2 2 2 3 4 6 2 2 4 6 15 14 9 10 11 13 17 16 16 11 5 8 16 22 24 24 28 31 36 32 29 29 26 22 22 24 27 27 27 26 24 21 20 21
3 2 4 7 5 4 6 4 4 5 3 3 6 3 4 3 1 6 4 8 9 7 7 13 16 18 12 6 7 14 23 24 25 29 34 32 32 31 27 26 30 29 22 17 23 26 25 26 26 22 23 23 22 23
3 4 5 5 5 6 4 3 4 3 3 5 3 3 3 3 6 6 8 9 7 8 15 15 14 13 16 24 29 31 30 29 31 29 28 26 22 24 24 23 23 19 20 23 19 18 20 21 21 21 23 24 24 24
3 8 7 10 6 7 5 4 4 6 4 6 6 4 7 8 5 5 11 15 19 24 21 17 19 23 25 29 31 27 22 22 23 22 21 23 21 16 14 15 18 20 19 14 13 13 13 15 17 18 20 22 23 22
3 5 9 5 4 5 9 10 8 8 8 10 7 4 11 23 25 25 27 27 28 28 29 29 28 27 28 27 25 21 20 19 19 20 19 16 13 12 13 15 16 15 12 10 9 13 15 15 16 17 18 20 21 20
5 11 6 6 5 5 8 12 10 16 19 21 25 29 30 30 29 29 30 29 27 28 26 23 22 23 24 23 19 19 19 17 15 13 14 14 14 16 15 12 13 13 12 12 13 14 14 15 15 17 18 19 19 17
1 7 4 5 6 10 16 17 20 24 28 31 33 34 37 29 22 18 15 14 14 15 15 15 15 15 15 14 11 9 9 10 11 12 13 13 13 10 10 11 13 14 15 15 16 17 18 19 19 19 19 17 15 13
4 8 5 3 8 15 20 14 10 14 23 22 25 25 25 16 4 3 15 13 11 10 11 12 12 10 9 9 7 7 7 7 7 8 8 8 8 9 10 12 13 14 16 17 18 18 18 17 17 15 14 12 10 10
4 8 9 6 3 2 2 5 4 6 7 6 2 7 4 2 5 9 8 14 15 17 16 12 8 6 3 1 2 4 5 7 8 9 9 9 10 11 12 14 16 17 17 16 15 14 13 13 12 12 11 10 10 10

GFSWCAN_850_spd_021.txt.gz
Wind_Speed
13 26 24 21 21 18 19 20 19 18 16 15 14 11 9 7 7 6 5 5 4 4 9 7 6 6 7 6 4 8 5 1 3 3 3 3 3 4 1 2 4 4 4 4 2 4 7 4 1 3 4 16 25 23
4 19 28 26 23 20 18 20 20 19 18 16 14 12 10 9 8 7 6 5 5 3 4 6 6 5 6 5 7 15 2 5 8 4 2 3 3 1 3 3 0 4 6 3 9 7 5 5 17 24 24 20 14 8
3 3 23 31 25 25 23 19 21 21 19 17 16 14 11 9 8 7 7 6 5 4 3 5 5 8 8 8 7 5 4 6 7 6 9 2 4 4 4 6 3 3 5 4 2 8 12 25 31 18 10 3 6 2
4 1 6 23 35 29 26 24 21 22 20 18 17 15 13 10 8 7 6 6 5 4 3 3 5 4 9 11 10 11 10 7 7 8 4 3 2 11 4 4 5 9 2 4 8 19 24 17 8 9 1 9 5 4
5 5 5 11 21 40 35 31 25 23 20 20 18 16 14 12 9 7 7 7 7 4 3 2 5 8 9 8 8 10 12 13 10 4 4 3 4 3 3 1 4 9 6 4 6 19 19 13 4 4 6 5 8 9
3 6 5 9 11 29 34 35 33 27 25 22 18 16 14 12 9 6 2 9 9 7 1 1 3 7 9 10 13 15 15 14 12 6 5 6 11 6 2 3 6 17 21 24 20 14 6 3 3 7 6 9 12 15
4 6 6 3 11 12 39 35 34 31 29 25 22 19 17 16 14 12 4 2 13 13 3 2 5 2 9 13 13 13 15 10 10 7 8 7 8 10 2 2 4 7 8 5 4 3 5 3 4 6 10 13 20 22
4 5 6 5 3 7 23 43 36 34 31 29 25 21 18 17 17 19 18 10 9 12 6 2 3 2 4 4 4 4 4 7 5 4 4 5 3 7 3 2 10 5 1 6 8 5 11 9 5 10 17 20 24 26
3 4 4 2 7 4 7 26 43 38 37 30 25 20 22 22 15 17 19 18 20 10 6 6 4 3 4 3 3 3 3 1 2 2 2 4 2 4 1 3 6 5 5 16 11 9 5 7 12 16 19 22 26 30
4 6 3 2 2 3 6 9 21 39 34 34 31 17 8 9 15 17 14 12 13 5 3 4 6 2 6 6 1 3 1 1 2 1 2 2 1 3 7 14 15 14 10 4 3 9 12 14 17 20 22 24 27 30
6 6 5 4 4 3 6 11 9 21 31 27 9 6 16 20 6 4 4 4 4 2 3 3 4 3 4 2 2 3 1 2 2 1 2 2 2 7 15 11 10 8 5 4 8 11 13 16 20 23 27 29 31 32
7 4 3 2 3 8 10 8 12 17 7 8 12 20 16 5 3 4 2 3 2 3 4 3 4 3 3 3 2 1 2 1 3 2 1 2 0 18 13 7 4 2 4 8 12 15 18 19 21 24 26 28 29 31
11 7 5 8 7 10 14 15 7 8 11 11 5 5 5 2 3 4 5 1 3 6 6 6 3 3 3 2 4 2 2 2 0 1 3 1 11 14 8 4 2 3 10 16 18 19 19 21 22 23 26 28 30 34
13 10 8 11 11 9 18 18 26 23 5 4 3 4 1 2 1 2 2 3 6 8 13 11 6 3 2 3 2 2 1 1 2 2 4 2 13 10 6 6 4 13 18 20 21 20 20 23 24 26 28 29 32 33
17 14 11 10 11 9 13 22 14 9 3 4 3 2 1 4 6 7 9 9 8 11 13 8 5 2 2 2 1 3 2 2 4 3 2 12 9 6 7 8 15 22 22 22 20 21 22 24 25 29 31 32 30 30
19 17 14 11 11 13 16 14 9 5 3 4 4 5 7 5 4 6 7 9 10 12 10 5 3 2 1 2 2 4 4 6 3 3 13 7 5 4 12 17 21 22 22 21 21 23 25 24 26 29 33 32 30 27
23 16 22 18 15 14 12 9 4 3 3 3 3 7 6 4 10 9 8 8 12 10 2 4 3 3 4 2 2 4 4 3 10 7 5 5 8 17 20 22 22 20 20 21 24 24 24 25 27 31 35 33 30 29
22 18 21 21 18 14 11 3 3 3 4 4 3 6 4 6 11 11 9 11 8 5 5 3 6 2 4 5 3 4 9 7 7 4 9 12 19 20 19 20 20 21 23 23 22 23 25 27 30 32 36 30 29 27
27 21 22 19 17 8 4 3 3 4 3 3 6 9 6 5 6 4 9 11 8 6 5 5 2 3 3 6 5 6 6 7 11 18 20 19 18 17 16 18 20 22 22 22 21 24 28 29 30 33 32 28 24 25
26 23 24 22 15 4 4 4 4 4 3 3 6 7 6 5 6 6 8 10 10 5 3 2 5 5 6 6 6 10 14 18 20 23 26 23 17 17 18 19 22 22 21 20 23 27 30 32 32 30 26 24 22 24
27 28 28 27 13 5 4 4 3 4 5 4 7 6 3 4 4 5 6 10 7 4 6 12 18 22 22 22 23 24 23 20 21 20 22 26 25 23 22 20 18 17 19 25 30 31 32 32 29 26 25 27 21 23
28 25 22 14 4 4 4 4 5 6 3 5 6 4 2 1 2 3 6 5 6 11 16 21 24 23 22 21 15 15 16 18 21 23 24 23 25 23 20 18 17 21 26 27 27 31 32 28 23 23 24 25 23 24
28 22 9 5 4 3 3 6 2 3 3 4 5 2 1 1 1 6 3 6 9 15 14 15 14 13 16 16 17 18 19 19 20 19 16 14 14 15 19 23 24 27 30 29 28 30 27 25 24 23 22 24 25 24
18 6 3 3 3 3 5 2 2 2 3 2 2 1 2 2 4 2 3 5 12 16 16 14 12 12 12 13 14 14 12 13 14 10 9 15 21 26 25 28 29 30 31 27 28 29 23 22 25 25 24 24 23 23
6 3 3 4 3 4 3 3 2 1 1 0 2 2 1 4 1 2 3 6 14 13 6 5 5 7 11 14 16 16 12 7 13 20 23 22 25 32 34 31 28 22 21 26 25 21 21 23 21 22 22 22 21 21
5 1 2 4 4 4 5 4 4 4 2 2 5 2 3 3 1 5 4 7 9 8 7 5 9 13 16 16 15 11 13 20 25 28 31 28 27 26 27 25 26 25 22 18 19 23 21 18 19 20 21 21 21 22
4 2 3 4 6 7 5 4 4 3 4 5 3 3 3 2 5 6 6 7 7 4 8 16 16 18 20 19 19 23 25 27 29 26 26 24 25 20 21 24 23 18 17 19 20 15 15 14 14 15 17 18 19 21
3 6 6 8 4 4 5 3 4 5 4 6 8 4 6 7 5 1 3 9 11 15 23 25 26 25 23 24 29 30 30 29 24 23 23 22 22 17 16 15 14 16 18 19 14 10 11 14 15 15 17 19 21 22
1 3 6 4 2 3 6 9 7 6 5 11 6 3 6 10 15 17 23 27 28 28 28 27 27 26 26 27 26 24 22 21 19 20 20 20 15 11 12 15 17 14 15 13 10 11 12 13 14 16 18 20 20 19
3 8 5 5 5 5 6 11 6 8 8 10 12 17 22 20 16 17 18 21 21 20 19 19 19 20 19 20 18 16 16 14 13 12 10 9 10 13 14 13 11 11 11 13 14 14 14 16 16 18 18 18 16 14
5 10 4 6 5 6 9 9 11 15 21 23 23 23 22 11 10 7 11 15 16 17 18 19 17 16 15 14 12 8 7 7 7 8 8 9 9 9 9 10 11 12 13 14 15 17 18 18 17 16 15 13 11 10
4 6 3 3 4 4 12 11 6 7 11 13 13 8 4 5 3 7 15 17 17 17 18 17 15 13 11 7 5 5 5 7 7 8 8 8 8 9 9 11 12 14 15 16 15 15 14 13 13 12 12 11 11 10
2 5 5 4 3 1 1 3 3 5 5 4 1 2 3 3 4 9 9 14 17 18 18 13 12 11 10 9 9 9 10 11 11 11 11 11 11 12 12 13 14 14 14 13 12 11 11 11 11 11 11 11 11 12

GFSWCAN_850_spd_024.txt.gz
Wind_Speed
30 28 26 23 21 21 20 21 20 18 16 15 12 10 9 8 8 8 8 7 6 4 11 8 7 6 7 7 5 9 5 2 3 2 3 3 2 3 3 1 3 4 6 4 3 4 6 1 4 3 12 21 21 20
13 29 25 23 22 20 20 21 20 18 17 16 14 11 10 9 9 9 8 8 7 4 7 10 8 8 8 8 8 12 1 5 8 4 3 3 3 1 2 3 4 5 6 3 6 7 12 17 17 19 16 16 7 4
6 11 25 24 22 22 20 21 20 19 17 16 15 13 11 9 8 8 9 9 8 6 6 7 7 10 9 9 10 5 5 6 5 5 6 2 3 5 4 5 8 7 11 4 7 10 17 17 22 7 8 11 5 7
8 4 7 26 25 24 21 19 19 20 18 16 16 14 12 10 9 9 9 9 8 5 4 4 8 10 12 12 12 11 8 11 8 8 4 3 2 8 3 4 6 10 10 11 14 19 21 10 4 4 1 5 4 2
7 7 2 8 20 27 23 22 20 18 19 17 16 15 13 11 9 8 8 9 9 5 4 4 8 9 10 11 13 13 11 12 8 5 3 3 3 4 2 1 4 18 17 6 5 12 8 3 2 0 2 3 3 7
4 5 5 2 10 16 27 26 22 21 18 18 17 15 13 11 8 7 4 8 9 7 3 2 5 7 13 13 12 11 10 9 8 5 5 5 7 5 3 3 8 9 11 12 9 8 2 6 1 6 2 3 7 13
3 4 6 2 5 11 17 34 28 26 23 21 18 16 14 13 11 8 3 3 14 9 3 1 2 3 8 8 7 8 11 6 6 4 6 7 7 7 2 4 4 1 1 2 3 3 5 4 2 3 4 9 14 16
4 5 7 1 2 4 12 21 36 31 28 24 21 18 16 15 15 15 11 4 10 8 4 3 2 2 7 4 4 5 5 8 7 5 4 4 5 6 3 5 3 5 4 5 2 2 3 5 1 6 10 14 17 19
2 2 5 5 3 5 6 15 34 37 31 29 23 21 20 23 17 19 17 15 11 9 4 6 5 4 7 4 4 4 5 2 4 4 4 5 2 5 2 4 4 8 5 9 9 5 2 2 7 10 14 17 19 22
1 1 2 3 3 4 6 10 25 37 36 31 29 17 11 12 15 19 13 8 8 11 11 5 7 3 6 7 3 5 2 1 2 1 2 2 2 2 4 8 9 12 11 6 2 1 5 9 12 14 15 17 19 23
3 2 1 1 2 3 2 5 15 31 32 34 16 9 14 25 14 11 7 5 5 1 5 6 7 4 7 3 3 4 2 2 2 2 2 2 3 7 13 12 10 10 6 3 2 5 9 12 15 16 18 19 20 25
4 2 1 2 1 3 3 11 20 26 15 15 16 22 16 6 3 4 3 4 3 4 6 5 5 5 5 4 4 5 2 2 2 1 2 3 2 14 15 12 11 7 3 2 6 10 12 14 14 17 21 22 26 29
6 2 1 5 3 4 4 9 6 9 18 21 6 6 5 3 3 6 7 2 3 6 6 6 4 4 4 3 5 2 4 2 2 2 3 0 10 16 13 10 7 5 3 10 13 14 15 17 18 20 23 24 27 31
7 4 3 7 3 5 10 6 7 10 3 4 4 4 0 3 2 2 3 3 3 8 13 12 6 3 3 3 1 2 2 2 3 4 4 3 14 14 10 7 6 6 11 18 20 19 18 18 22 23 22 24 27 31
12 6 6 8 7 9 11 18 19 5 4 4 2 3 2 3 4 9 11 7 7 14 11 8 6 2 2 2 1 2 4 4 4 2 2 10 13 11 7 7 8 14 19 21 20 19 18 20 23 25 24 26 29 31
16 9 10 9 8 10 17 12 10 5 3 2 4 4 5 4 4 6 9 12 13 14 9 4 3 3 2 2 3 5 3 5 1 2 7 12 9 7 5 10 15 17 19 20 18 19 21 22 22 24 27 28 31 32
19 10 17 12 10 9 6 4 3 4 4 3 3 9 4 4 8 8 9 9 15 10 2 3 4 2 5 2 3 4 3 0 4 8 9 6 6 8 14 19 20 19 19 18 20 21 22 21 22 25 30 32 33 32
18 14 16 16 15 12 7 3 3 4 5 4 2 6 2 6 12 10 8 13 7 4 4 1 5 3 3 3 2 3 6 5 11 8 4 7 13 18 19 20 19 19 21 22 22 22 21 21 25 23 25 26 28 25
15 18 20 18 15 8 3 2 4 4 4 4 8 9 6 10 10 10 11 13 5 6 4 3 1 2 2 5 5 6 7 8 8 8 13 18 18 17 16 17 19 21 22 22 22 19 19 24 28 29 26 21 23 26
20 20 21 23 19 4 3 3 4 4 3 4 7 8 6 6 9 10 13 15 10 5 3 3 5 5 6 6 7 8 5 9 16 16 16 13 14 14 17 19 20 20 21 20 18 20 25 27 23 23 25 21 24 27
25 25 22 18 15 6 4 4 3 3 5 3 9 5 3 7 5 5 6 10 5 3 5 10 14 15 14 13 14 17 19 19 17 17 19 17 14 18 21 18 16 16 17 18 22 25 27 28 27 30 27 23 22 25
24 26 22 13 4 4 4 4 5 5 3 5 5 4 3 3 3 3 5 4 5 9 10 13 14 14 13 13 12 13 14 16 19 21 23 23 23 16 13 11 13 18 22 26 27 27 29 30 28 29 27 26 24 22
30 25 7 6 4 3 3 5 2 2 2 4 4 3 2 2 2 5 3 4 7 11 11 12 11 10 11 11 12 12 13 16 17 17 16 15 14 11 15 19 20 23 28 29 27 28 26 25 27 24 23 22 22 23
22 6 4 3 3 3 4 2 3 3 3 2 2 2 2 2 3 1 2 5 9 10 10 10 10 10 9 9 7 8 11 15 19 19 9 10 17 21 22 26 28 29 27 25 21 21 24 22 21 22 19 20 20 22
7 3 3 4 3 4 3 3 3 2 2 2 2 2 3 2 2 3 3 5 8 8 6 5 6 6 7 10 13 14 14 15 11 12 16 21 25 28 27 20 22 25 20 21 20 18 18 18 19 16 17 17 17 18
5 2 2 3 4 2 4 4 4 4 3 3 3 1 2 2 2 4 3 3 6 7 5 4 6 10 12 14 19 21 21 17 17 22 27 27 28 26 26 25 23 21 23 16 15 17 20 17 14 14 15 16 17 19
4 2 2 4 5 7 5 3 4 3 4 4 4 5 3 3 4 2 1 6 4 5 8 11 16 20 23 29 32 29 27 29 30 30 31 30 28 25 25 25 24 21 19 16 16 19 17 14 14 16 16 16 17 19
4 4 5 6 3 3 4 3 4 5 4 5 7 5 4 5 0 1 2 8 13 18 20 22 24 25 24 25 27 28 29 29 31 32 30 27 24 22 21 18 16 14 14 16 16 15 13 13 15 15 16 18 20 21
3 7 6 4 2 2 4 4 4 4 5 8 4 3 2 3 2 7 14 17 19 21 23 25 23 22 22 22 21 22 24 22 20 19 17 12 11 14 13 11 13 15 15 13 12 11 12 13 14 16 18 19 19 18
2 5 3 3 3 3 2 8 2 4 5 6 3 4 5 6 6 8 10 12 14 16 17 18 19 20 20 21 21 15 13 11 10 10 10 8 8 10 11 12 11 10 10 10 11 12 12 13 15 15 15 14 13 11
4 5 2 2 3 3 5 7 9 9 10 14 17 14 7 6 6 4 8 10 12 14 15 15 14 14 15 16 16 14 11 11 11 11 10 11 11 11 11 11 11 10 10 11 12 13 13 13 12 11 11 10 10 10
2 2 2 2 3 4 4 6 7 5 5 5 4 3 4 4 3 2 8 11 12 13 14 14 13 12 11 11 12 13 14 15 15 15 14 14 14 14 13 13 12 11 11 11 11 10 9 9 9 9 10 10 11 11
3 5 5 3 3 1 1 2 2 3 3 0 2 2 3 3 3 4 8 13 15 15 16 15 14 14 13 15 16 17 18 18 18 18 17 17 17 16 16 15 14 12 11 10 9 9 9 9 10 10 10 10 10 11

GFSWCAN_850_spd_027.txt.gz
Wind_Speed
30 27 28 22 23 22 22 23 21 19 16 14 12 10 9 9 9 9 7 7 6 4 7 5 6 7 6 10 5 10 6 2 3 2 4 4 1 4 2 4 5 7 6 4 3 3 6 2 5 5 9 17 14 13
32 29 25 24 23 21 21 22 22 20 17 15 13 11 10 10 10 8 4 6 6 5 6 10 9 11 10 6 5 14 2 6 9 3 3 2 2 0 1 3 5 4 7 4 8 5 14 14 10 6 7 6 7 7
20 33 27 25 24 19 20 21 21 21 19 16 14 12 11 10 10 10 8 9 6 5 5 5 4 9 8 10 11 6 4 6 7 2 7 3 3 5 4 5 8 6 12 5 7 7 15 20 10 6 7 5 5 4
6 17 30 27 23 22 19 20 21 20 19 17 15 13 12 10 9 9 9 10 7 5 4 4 7 8 11 10 10 8 7 10 8 5 4 3 3 10 4 7 7 10 12 10 13 19 17 6 6 11 8 6 3 3
10 9 11 29 23 21 21 19 20 19 18 16 15 13 12 10 9 9 9 10 10 2 3 2 5 9 11 13 9 6 7 6 4 4 3 3 4 1 3 3 8 13 13 9 7 1 2 2 4 2 1 2 4 7
11 11 7 6 18 27 24 20 19 19 19 16 15 14 13 11 10 5 3 8 9 7 3 2 2 3 8 7 6 7 8 8 5 5 4 5 5 5 4 4 7 9 9 5 5 3 5 1 1 2 0 4 7 12
8 8 8 3 6 14 26 24 22 19 18 17 15 12 12 12 12 7 3 4 12 9 3 2 2 1 7 6 5 6 10 5 5 4 5 6 8 6 2 6 12 6 4 2 5 4 3 3 3 3 4 8 12 15
7 8 7 6 5 6 12 21 26 24 19 17 15 15 14 13 12 8 5 4 12 6 4 3 2 2 6 4 4 5 4 6 5 4 3 4 4 4 4 8 7 6 5 5 4 2 2 4 3 3 7 11 15 18
5 6 7 6 2 3 4 13 23 31 26 21 19 16 15 16 13 16 12 7 10 4 3 4 5 4 7 4 4 4 4 2 3 3 4 5 3 5 6 8 10 11 7 6 6 6 4 1 3 7 11 14 16 18
3 3 4 4 5 3 4 6 14 29 32 27 23 14 10 11 14 14 11 6 6 7 8 7 6 4 7 6 4 5 3 1 2 2 3 2 3 6 6 6 8 11 9 11 8 3 1 5 8 11 13 15 17 18
2 3 2 3 4 4 8 5 8 19 31 35 18 10 11 24 18 9 6 6 6 2 6 7 12 5 7 4 3 5 3 3 3 3 3 2 3 8 12 12 12 13 11 6 3 1 5 8 11 14 15 15 16 18
2 3 3 4 5 4 8 3 7 17 15 15 14 17 19 8 4 3 3 4 4 4 6 6 4 5 7 5 4 4 3 2 3 5 2 3 2 11 14 14 12 10 8 4 2 5 9 12 13 14 15 17 17 22
1 2 2 6 6 5 6 5 9 14 22 18 4 7 4 1 3 6 8 3 4 8 9 7 4 5 5 4 4 3 4 3 2 2 3 0 8 12 13 12 10 8 7 5 6 10 13 14 15 17 19 21 22 24
2 2 3 4 3 4 5 5 6 12 8 3 3 3 1 3 0 1 3 4 4 9 14 15 6 3 3 2 2 3 2 2 3 3 4 2 9 12 11 9 8 7 9 11 17 17 17 19 18 18 20 20 22 25
4 3 2 5 1 5 4 6 4 3 4 3 3 2 2 2 5 5 8 7 10 15 12 9 6 3 2 2 0 3 4 3 4 2 2 5 10 11 9 6 5 8 12 17 15 17 20 19 20 22 20 20 23 27
5 7 5 6 3 7 9 11 10 4 4 3 3 3 4 5 4 6 8 10 10 9 9 6 3 1 2 1 2 3 1 3 2 2 4 9 10 8 6 6 8 12 17 18 17 17 17 20 21 22 22 23 25 27
6 8 7 6 10 6 7 4 3 4 4 2 2 4 6 6 4 3 5 4 9 5 2 3 1 3 2 1 2 2 2 2 2 5 6 7 8 6 6 10 15 17 18 16 15 16 18 21 22 22 24 21 21 23
8 14 12 9 9 7 6 4 4 2 3 4 3 6 5 5 7 7 6 9 7 4 3 2 4 2 3 3 2 2 4 2 5 7 6 5 5 9 13 15 15 16 16 17 20 21 20 17 17 17 21 23 23 22
12 14 18 15 13 6 3 2 3 3 3 3 5 5 4 7 8 9 10 12 6 7 7 3 2 3 2 3 3 2 4 4 5 6 7 9 14 17 17 16 17 19 19 16 16 15 15 16 17 18 20 23 25 26
11 15 20 16 13 4 3 2 4 3 3 3 5 5 4 4 6 7 10 6 5 4 2 2 4 3 3 2 1 3 4 4 6 12 15 14 13 14 14 14 15 16 16 16 15 16 16 18 19 21 22 25 28 27
11 19 20 19 11 5 3 3 3 3 4 3 6 4 3 5 4 3 3 7 2 3 4 8 9 6 7 9 10 8 10 12 13 14 16 16 13 14 16 16 16 14 14 13 17 21 25 26 24 23 28 28 30 25
13 21 16 15 4 4 3 3 3 5 3 5 6 4 4 3 3 3 3 4 5 10 8 7 7 7 8 9 8 9 10 11 12 13 16 16 17 14 13 13 12 14 17 21 20 25 27 25 24 23 24 24 25 23
21 22 8 5 4 3 2 5 3 2 3 5 5 4 3 3 2 3 3 5 6 7 9 8 7 7 8 8 9 9 9 10 12 13 16 16 15 15 14 13 16 20 23 23 21 23 24 23 23 25 22 23 21 20
17 5 4 4 3 4 5 3 3 3 4 4 3 3 3 3 3 2 3 4 4 4 4 5 5 5 5 6 5 5 7 10 14 16 16 17 16 16 16 17 22 21 22 23 23 23 22 22 20 20 21 20 18 18
6 3 4 4 2 4 3 4 2 2 2 2 3 2 4 4 3 3 3 1 4 5 5 5 3 2 3 5 7 8 10 12 15 19 20 21 23 26 25 23 24 23 22 26 23 22 21 18 16 17 16 16 16 17
4 1 1 3 4 3 4 4 4 4 3 3 3 2 3 3 3 3 3 4 5 7 8 9 8 8 7 9 12 15 17 18 20 22 24 24 30 29 28 28 30 27 21 22 23 19 16 16 15 14 13 14 15 16
4 3 2 3 5 7 5 4 5 3 4 4 4 6 4 4 4 3 4 5 2 5 8 9 11 13 16 18 20 24 25 25 24 26 30 32 34 31 30 30 30 23 22 22 19 15 15 16 15 13 14 13 13 15
4 4 5 5 3 2 4 4 4 5 3 4 7 5 3 3 1 2 2 2 8 10 11 13 14 16 15 16 17 18 21 23 24 24 23 19 17 18 20 16 14 14 13 12 13 16 16 15 14 13 13 14 16 18
4 6 6 4 2 2 2 3 4 4 4 6 3 3 3 2 3 2 5 8 10 11 12 13 12 13 12 13 12 13 16 18 19 19 17 14 15 16 17 17 16 15 14 14 13 13 13 13 14 14 16 17 16 15
3 3 3 2 1 1 1 3 2 4 5 5 3 2 2 2 2 4 5 7 8 9 9 10 11 12 12 13 13 11 12 15 16 16 16 16 18 21 21 20 19 17 15 14 12 12 13 13 13 11 13 12 11 10
3 2 2 3 2 1 2 4 4 5 5 4 7 4 0 3 4 4 4 5 6 8 9 9 9 10 12 13 14 15 15 15 18 17 17 19 20 21 21 20 19 18 17 15 14 13 13 10 9 9 9 10 11 11
2 2 0 0 1 3 3 1 2 3 3 2 1 1 3 3 2 1 3 5 5 7 9 11 12 13 13 12 14 14 18 20 21 23 23 24 23 23 23 22 21 19 17 15 14 13 11 9 9 8 9 10 11 12
1 1 0 2 2 1 1 1 2 2 2 1 1 1 1 1 3 2 2 6 7 8 11 13 15 17 16 15 17 18 20 20 22 23 23 23 24 24 23 21 20 18 16 14 12 12 11 10 10 10 10 10 10 11

GFSWCAN_850_spd_030.txt.gz
Wind_Speed
32 31 28 27 26 25 24 22 20 17 15 12 10 9 8 7 7 7 5 6 7 4 4 4 4 3 1 8 4 13 5 2 3 3 3 3 1 3 0 4 7 6 6 4 3 3 6 4 7 2 5 13 6 8
33 29 26 26 24 23 22 22 21 19 16 14 12 10 9 8 8 6 2 5 6 5 6 9 10 9 8 5 5 16 3 7 8 4 3 1 1 2 4 2 4 3 6 4 9 5 9 6 10 4 2 8 7 7
35 31 28 24 22 20 21 21 21 20 18 15 13 11 10 9 8 9 6 7 5 6 5 4 3 7 9 7 12 5 4 4 7 4 7 3 3 4 4 4 4 4 10 3 3 8 13 6 9 10 9 5 4 3
28 31 29 26 24 20 20 20 20 19 18 16 14 12 10 8 8 8 7 8 6 5 5 3 5 5 8 8 10 7 8 10 9 7 4 3 3 11 5 5 5 6 6 5 10 14 8 11 10 4 5 6 2 1
13 20 27 23 23 21 18 19 19 18 17 16 14 12 10 9 8 7 6 7 8 3 4 2 4 7 7 7 5 5 7 6 5 4 3 3 4 1 1 2 4 9 8 6 7 2 1 5 2 4 4 4 2 3
15 9 14 26 24 22 20 19 19 18 16 15 14 12 11 10 8 7 2 6 8 7 3 2 2 1 2 4 6 5 6 8 5 5 4 4 4 6 2 3 7 11 10 3 1 5 5 5 4 4 6 3 3 6
15 14 9 8 19 21 18 19 19 19 17 15 14 12 11 11 12 6 3 3 9 8 4 2 2 1 6 6 6 4 6 5 5 3 6 4 4 5 2 5 8 10 5 4 8 6 4 3 3 7 5 4 5 8
13 11 10 7 5 12 23 21 18 16 17 16 14 11 10 9 8 4 2 3 9 4 3 3 2 2 6 4 2 1 3 4 4 3 4 4 4 1 4 10 14 11 7 8 8 2 2 5 6 5 3 5 8 12
11 10 9 7 5 3 6 20 23 19 17 16 12 11 10 11 8 7 6 2 9 4 3 4 6 4 7 4 4 3 4 1 2 3 4 4 2 6 8 9 8 12 9 10 8 7 6 4 2 2 5 8 11 13
8 7 8 7 7 5 7 8 17 25 21 18 16 7 7 10 9 12 5 3 5 6 6 6 7 3 7 7 4 5 3 2 2 3 4 2 3 14 7 4 8 12 10 11 11 8 3 1 3 5 8 11 11 13
8 8 7 6 5 5 2 11 12 19 27 24 12 6 9 19 13 6 5 5 5 3 6 7 13 6 6 4 3 6 3 3 2 3 3 3 3 7 9 9 10 12 11 10 4 5 1 2 5 9 11 12 16 16
7 8 8 7 7 9 9 9 12 20 20 16 11 15 15 6 5 4 4 2 3 4 5 5 3 5 6 6 4 5 3 2 4 10 2 3 1 12 12 12 12 12 11 8 4 1 3 6 8 11 15 19 17 20
5 7 7 9 11 13 13 10 6 11 16 17 5 5 3 2 3 5 7 3 3 5 6 6 4 4 4 4 4 2 5 4 2 2 3 1 8 9 10 11 10 9 9 8 1 3 8 12 15 17 18 17 19 21
4 6 6 7 7 9 13 11 14 19 7 3 3 3 1 3 0 1 2 2 4 5 12 13 6 4 4 2 3 3 1 2 3 3 3 5 8 10 9 9 7 8 6 6 10 15 17 19 20 19 18 20 21 21
3 4 5 4 5 4 4 5 7 5 4 3 3 2 3 3 4 2 2 6 8 12 11 8 6 4 2 2 0 3 4 3 2 1 2 11 10 11 10 7 4 2 5 10 14 18 21 20 21 21 20 21 21 23
3 4 5 3 3 4 3 1 3 4 4 3 3 2 3 4 3 6 11 10 9 10 7 5 3 1 2 1 2 1 1 0 2 3 7 10 10 9 8 5 4 6 13 18 19 19 18 18 19 23 25 24 22 20
2 2 4 2 3 2 1 3 3 4 4 3 3 8 7 8 5 5 6 5 4 5 2 2 2 4 1 1 1 1 2 2 4 6 7 8 8 6 4 5 11 17 18 18 18 19 20 22 23 22 21 18 18 19
3 4 7 6 6 5 7 5 3 3 4 4 3 5 5 6 4 3 3 4 3 3 2 2 3 1 1 1 1 2 4 3 4 4 4 5 5 5 7 13 17 16 18 19 20 21 22 19 16 19 19 21 24 21
3 6 10 9 6 2 2 2 3 3 4 3 5 4 3 3 4 4 4 5 4 7 6 2 0 1 0 0 1 3 2 3 2 4 5 6 7 13 19 17 17 18 19 19 19 19 20 19 20 21 24 22 23 28
2 8 11 13 9 3 2 2 4 3 3 4 5 5 4 3 5 7 8 8 7 3 2 1 2 2 3 3 1 1 2 2 2 5 9 11 11 13 14 18 21 22 21 22 22 20 18 19 20 24 23 25 27 30
5 8 12 15 9 3 3 2 3 3 4 3 6 6 4 5 4 3 4 5 1 1 3 5 5 4 6 7 7 6 6 7 9 10 11 12 13 15 19 22 21 21 22 22 20 20 23 25 27 24 26 29 26 27
7 7 12 11 4 4 2 4 3 4 3 5 7 5 4 3 4 3 4 3 3 4 5 3 4 5 4 5 5 5 6 8 9 10 10 11 16 18 19 21 20 21 20 20 22 24 24 24 26 27 28 27 29 26
9 12 7 4 4 3 2 4 3 3 3 5 5 4 3 3 2 3 2 4 4 4 5 5 4 6 6 6 7 7 7 7 8 9 12 15 17 20 22 23 22 22 25 27 26 25 27 25 27 25 26 26 22 23
10 5 3 4 3 4 5 2 3 4 4 4 4 3 4 3 4 4 2 2 1 2 3 3 3 3 3 4 3 3 5 6 8 10 12 18 23 25 25 26 28 30 29 28 27 30 30 30 23 20 22 22 21 18
4 2 3 3 3 5 4 5 3 3 3 3 4 2 4 5 3 3 2 5 2 5 6 6 7 5 5 3 3 6 10 12 16 22 26 21 23 26 27 31 34 33 35 35 34 31 29 24 24 21 18 19 16 17
2 1 1 3 5 3 5 4 4 4 4 4 3 4 3 3 3 3 2 7 8 3 7 8 6 6 6 8 10 15 21 24 25 26 25 25 26 26 27 27 27 26 26 26 23 21 18 19 17 16 17 16 15 14
4 3 3 3 5 6 4 4 6 3 3 4 4 5 3 3 4 4 5 6 3 1 5 5 6 7 9 11 14 15 17 19 21 22 22 18 16 18 17 16 17 21 25 22 22 17 14 15 16 17 15 14 13 12
2 2 4 5 4 2 4 3 3 3 2 4 9 4 3 2 3 3 4 4 1 3 3 6 11 11 10 12 11 12 15 17 16 16 12 6 12 17 17 18 19 19 19 17 17 17 17 17 17 15 14 13 15 17
3 5 4 4 3 2 2 2 2 2 3 6 3 2 4 3 7 5 4 2 4 4 5 6 8 7 6 6 8 9 17 20 20 20 19 17 20 22 23 23 23 23 22 20 17 14 12 16 17 15 14 14 14 11
3 3 2 2 1 2 3 2 2 4 3 3 3 3 4 3 3 3 1 3 3 4 4 4 5 7 8 10 11 11 9 17 18 17 18 21 24 26 26 27 27 25 23 22 21 18 16 15 13 8 10 15 12 6
3 3 2 2 2 2 1 1 1 1 1 2 2 2 4 4 3 5 3 1 2 3 2 4 5 7 10 11 12 14 14 15 18 17 21 22 24 25 26 27 26 25 24 22 19 16 16 15 8 8 11 12 11 9
2 3 1 1 3 3 3 2 0 1 2 2 3 1 2 4 3 2 0 5 1 1 4 6 9 10 12 11 11 11 14 19 19 21 23 24 27 28 27 27 26 24 22 20 17 14 14 13 11 11 10 13 12 10
2 2 2 1 1 2 1 1 1 1 3 3 2 1 0 2 3 3 2 1 2 4 7 9 11 11 10 13 15 13 18 21 21 19 21 23 26 26 26 25 24 22 20 17 13 13 15 13 12 12 11 10 10 10

GFSWCAN_850_spd_033.txt.gz
Wind_Speed
36 31 30 31 30 27 25 22 20 17 14 12 10 9 9 9 8 8 10 8 7 5 7 5 7 8 10 16 5 10 4 1 4 4 3 4 3 4 1 7 7 7 6 4 2 2 7 10 5 6 5 11 10 3
36 31 30 30 29 27 25 23 20 18 15 13 11 10 9 9 9 9 10 8 7 4 5 6 10 9 12 10 11 18 4 6 7 4 1 2 2 1 1 2 3 2 7 6 8 6 8 8 7 10 10 13 3 1
36 31 30 29 27 26 24 22 20 18 16 14 11 10 9 9 9 8 10 9 8 7 7 5 5 5 7 9 15 8 5 7 8 6 7 3 3 3 3 4 1 3 11 3 4 6 8 17 16 12 9 5 4 5
32 31 27 25 24 23 22 21 20 19 17 14 12 11 9 9 9 7 9 8 7 6 5 2 4 5 5 9 10 10 12 9 14 9 5 3 2 11 4 4 4 6 3 1 2 7 14 11 12 8 1 1 6 7
33 29 25 22 22 20 20 21 20 19 17 15 13 11 10 9 8 6 7 7 7 4 5 4 4 3 5 7 6 6 7 11 7 4 3 3 4 1 1 2 3 5 5 4 5 6 5 8 12 3 1 9 8 4
21 32 27 25 23 21 19 19 19 18 17 15 14 12 11 10 9 9 3 6 8 8 4 2 2 1 3 7 7 8 8 5 4 5 3 4 3 6 3 3 7 12 13 14 8 8 6 8 8 4 10 9 6 3
21 20 26 30 26 22 18 19 19 18 17 16 14 12 12 11 12 7 4 4 10 8 4 3 0 1 7 10 7 6 7 4 4 5 6 4 3 4 2 4 7 10 5 7 8 8 8 8 4 10 11 7 5 1
22 21 18 19 26 23 19 19 19 19 17 15 14 13 12 11 11 7 5 6 10 7 4 3 2 1 8 3 3 3 3 4 1 2 4 3 4 0 4 11 17 19 11 11 8 2 5 8 8 9 6 4 0 4
18 16 17 14 14 17 22 20 20 18 18 16 12 12 11 8 6 7 5 4 8 4 6 4 5 3 7 3 4 3 3 1 2 2 4 4 1 5 6 6 7 16 16 13 9 12 10 10 9 7 2 3 5 9
15 16 13 11 10 10 9 23 18 18 17 15 13 6 4 10 7 9 2 2 4 6 5 4 7 2 7 5 2 4 2 2 1 3 4 2 3 14 11 2 11 16 10 15 17 12 12 8 4 1 2 7 11 14
14 14 13 11 9 6 9 11 20 23 21 17 8 4 9 16 8 6 4 1 2 1 6 6 10 6 7 4 3 5 3 2 2 3 3 2 3 5 4 11 13 10 14 14 11 13 11 7 2 3 7 12 17 19
14 15 15 13 10 9 12 14 13 19 16 17 12 14 12 5 3 3 3 1 2 3 3 4 4 6 6 5 4 6 3 2 4 10 2 3 1 15 12 11 12 16 16 14 11 8 5 2 5 10 13 16 15 14
13 15 16 18 18 17 14 10 12 14 13 14 4 4 3 2 3 5 7 2 2 5 5 5 3 4 5 5 4 2 5 5 5 3 3 1 9 13 16 16 14 13 14 13 7 3 3 9 11 13 14 14 15 18
12 12 14 13 16 18 16 16 19 15 6 4 3 3 1 2 2 2 1 2 3 2 9 10 6 3 2 2 3 4 2 2 2 2 3 1 11 12 15 14 12 11 8 5 4 8 12 15 16 15 15 16 17 19
10 10 11 11 10 10 11 10 6 6 4 4 3 2 2 3 3 2 3 4 5 7 10 6 5 3 1 2 0 3 2 2 1 1 2 5 12 16 14 10 9 8 3 4 9 14 16 15 15 17 17 19 19 19
8 9 9 10 8 6 6 6 5 5 4 3 4 3 5 5 4 9 10 8 8 10 7 4 2 2 2 1 1 1 3 1 2 1 10 11 9 10 11 7 3 1 8 14 15 14 15 16 17 19 21 18 15 16
7 5 7 7 5 4 3 5 4 5 5 3 3 8 10 11 8 7 8 8 7 4 2 2 3 2 1 1 1 3 3 2 6 7 13 11 11 8 5 4 4 12 17 17 18 18 19 19 20 20 17 16 18 19
5 5 5 6 5 7 7 5 4 4 4 4 3 5 8 7 8 7 7 8 5 4 2 2 4 2 1 1 1 2 6 6 4 6 5 4 5 5 5 8 16 16 15 17 19 20 19 19 19 19 19 21 23 25
3 5 6 6 4 4 3 3 4 4 4 5 8 6 7 7 7 5 5 5 5 7 9 4 2 1 2 3 5 6 6 5 3 5 4 1 3 6 10 13 15 18 19 20 20 21 21 20 20 20 19 21 23 23
2 5 7 7 4 1 3 3 4 3 3 4 7 7 5 2 5 7 5 5 6 4 2 1 1 2 5 8 7 5 2 2 4 4 4 7 7 9 12 14 17 20 23 24 24 25 23 22 20 21 23 24 23 26
2 2 3 9 6 0 3 3 2 3 5 3 7 6 5 6 4 4 5 4 1 0 0 1 1 1 2 3 3 4 4 4 5 6 7 9 8 9 13 16 19 21 22 23 24 26 24 25 25 24 25 26 29 27
3 5 2 8 3 4 2 4 4 4 3 4 7 5 4 3 4 3 2 2 2 1 1 1 2 2 2 1 1 3 3 4 4 4 5 7 11 14 16 19 22 24 26 26 26 29 30 28 26 25 27 30 25 24
6 4 2 3 3 2 3 9 3 5 4 6 5 4 2 3 3 5 2 3 2 1 1 1 0 3 1 3 2 2 3 4 5 3 3 7 10 15 24 22 19 20 24 28 28 28 30 29 32 30 28 30 25 23
3 4 3 2 2 4 5 2 4 4 5 4 3 2 3 3 4 2 2 4 6 7 6 7 5 3 4 5 6 5 4 3 3 6 12 18 24 28 28 27 26 25 25 29 29 28 27 29 31 29 31 19 19 18
2 2 3 2 3 4 4 3 3 3 2 3 2 2 3 5 2 2 2 4 4 4 5 7 12 11 9 6 3 6 10 14 18 21 20 20 21 23 24 23 19 15 20 27 28 27 26 21 21 13 15 15 15 15
3 2 2 5 4 3 5 3 4 4 3 2 2 5 5 3 2 3 2 6 7 3 3 2 2 2 2 4 9 14 18 18 18 17 15 15 18 17 18 19 22 22 22 22 23 23 21 17 16 15 15 17 17 15
4 3 2 2 2 4 3 4 6 4 3 4 4 5 3 3 4 3 8 7 6 5 2 1 1 4 7 10 11 10 13 13 14 14 12 6 8 13 19 22 22 24 23 22 22 22 22 21 19 20 19 18 16 13
1 3 4 4 2 1 3 3 2 3 2 5 11 2 6 3 2 3 5 6 6 5 3 6 6 5 6 6 6 9 11 11 12 12 7 9 14 19 18 20 22 23 24 22 21 21 20 19 19 19 18 16 15 15
2 4 4 3 2 1 1 1 2 2 2 8 4 2 4 4 6 6 6 5 5 5 4 2 3 2 3 3 5 9 13 16 19 20 19 20 22 24 26 28 29 27 27 26 23 20 19 17 19 20 16 14 11 10
2 2 2 2 1 1 2 3 3 3 5 5 4 6 5 6 8 7 4 3 3 2 1 2 2 4 5 6 8 8 11 15 16 19 19 21 26 27 27 29 30 29 29 27 25 23 18 17 15 10 9 10 12 13
4 2 1 3 3 3 0 1 3 3 5 3 2 3 5 6 6 3 5 2 2 2 3 2 2 5 8 9 10 12 12 15 18 20 22 23 22 26 29 29 28 27 26 25 23 19 15 16 15 12 12 12 13 13
2 2 1 2 3 2 3 2 1 1 1 2 2 3 4 4 4 1 5 6 4 1 1 4 7 8 9 9 8 10 13 16 19 21 20 22 25 27 28 28 26 24 22 21 18 13 13 16 14 14 14 13 12 10
3 3 3 2 2 2 3 2 2 2 3 2 3 4 3 3 4 2 4 4 1 2 5 6 9 10 11 10 13 14 14 16 17 17 18 20 22 24 24 23 21 20 19 18 14 14 15 16 14 12 11 10 8 8

GFSWCAN_850_spd_036.txt.gz
Wind_Speed
41 30 27 29 29 27 24 21 19 17 16 14 13 13 13 12 12 13 13 10 7 6 9 5 8 10 12 10 5 9 5 2 4 4 3 3 3 4 2 5 6 7 6 4 2 2 8 11 6 7 6 16 18 13
37 37 30 31 31 28 25 22 19 17 15 14 13 12 12 12 13 14 14 10 8 6 9 12 14 11 10 10 13 15 5 5 7 4 1 3 2 2 2 3 3 2 7 6 9 6 6 20 8 11 15 16 15 10
41 35 33 33 31 29 26 23 20 17 15 14 13 12 12 11 11 11 13 12 9 13 8 6 9 11 7 9 12 8 6 8 7 6 8 3 3 4 4 5 3 4 8 3 3 4 8 14 9 9 11 12 9 5
37 34 32 31 29 28 26 23 21 18 15 13 12 12 11 10 10 9 11 10 7 7 5 4 5 7 6 6 10 8 9 14 14 10 5 3 3 10 3 3 4 5 7 4 2 2 6 9 10 13 11 6 6 8
36 32 30 30 28 26 25 23 21 19 17 14 12 12 11 10 10 9 9 8 7 3 5 5 6 4 5 4 5 6 10 14 11 5 3 3 4 3 0 2 3 7 6 4 6 10 7 7 19 15 9 9 14 12
36 31 29 27 25 24 24 22 21 20 17 15 13 12 11 11 12 12 4 6 7 7 4 2 3 2 6 7 7 8 8 7 5 5 4 4 3 4 3 3 9 12 13 14 7 9 8 8 16 10 11 15 12 10
34 31 27 25 24 22 21 21 20 19 17 15 14 12 11 11 11 4 5 7 10 8 4 4 2 3 9 8 7 5 6 4 3 3 4 3 2 3 2 4 5 10 11 9 9 13 12 14 8 12 14 11 11 9
27 31 30 26 24 22 19 19 20 18 17 15 14 12 12 11 10 8 7 8 10 5 4 4 1 0 7 5 4 3 3 4 1 2 3 3 3 2 3 11 13 10 13 13 14 8 7 13 13 18 14 12 10 5
25 26 23 28 26 24 19 17 19 18 17 16 14 12 11 9 6 7 7 7 7 3 7 3 5 4 7 3 3 3 2 2 1 1 2 3 2 4 6 6 7 11 16 16 12 10 15 19 15 14 13 7 3 4
23 20 19 19 23 25 19 19 18 18 17 14 15 5 5 8 8 9 4 3 4 3 3 3 6 2 6 4 2 3 1 1 1 3 4 2 3 13 13 9 7 10 14 19 23 17 18 18 13 8 3 2 6 10
19 16 17 18 15 17 22 20 21 18 17 15 6 3 8 14 6 4 2 2 2 1 3 2 6 4 4 3 3 3 2 2 2 3 3 2 3 3 5 4 11 12 17 18 17 15 11 9 8 5 3 7 11 14
20 18 15 13 15 13 16 23 23 25 18 13 9 13 13 4 2 3 2 2 1 3 3 4 4 4 5 4 4 5 3 2 5 8 2 3 1 9 12 15 16 16 18 19 13 12 11 5 0 5 9 11 12 12
20 23 21 20 17 15 15 12 16 23 17 18 6 5 3 1 2 5 6 1 2 5 5 5 2 4 4 4 4 2 4 4 7 2 3 2 9 9 13 16 16 16 13 11 11 6 2 5 9 11 11 11 12 13
17 18 21 21 19 17 15 13 16 16 8 3 3 4 1 1 1 1 1 2 3 1 7 6 5 2 2 2 2 3 1 2 2 2 3 1 13 14 13 14 15 13 11 7 2 4 9 13 13 12 12 12 14 15
14 14 14 15 15 13 10 8 8 8 5 4 3 2 2 4 3 3 5 5 5 6 8 6 5 3 2 2 0 2 1 2 1 1 1 3 9 10 14 12 10 7 3 3 8 13 13 12 13 14 14 15 17 15
12 12 11 10 9 7 6 8 9 5 5 4 4 3 7 4 3 4 6 5 6 8 7 4 2 2 1 1 1 2 3 2 1 2 6 10 9 10 11 10 7 4 5 12 12 12 14 15 16 18 18 17 12 13
9 10 7 7 6 5 6 8 4 5 5 3 3 8 7 10 6 4 6 5 8 4 1 3 2 2 0 1 1 3 2 2 6 5 8 7 8 10 7 5 1 8 13 12 13 14 16 16 16 16 17 16 14 16
11 8 5 4 6 8 10 6 4 5 5 4 3 6 9 8 9 7 7 5 2 2 3 2 4 2 2 2 2 4 8 9 10 9 10 9 6 4 1 4 9 11 13 14 16 17 18 19 20 20 19 17 18 20
7 6 4 4 8 7 4 5 4 5 5 6 9 8 7 9 8 6 6 4 5 7 6 2 3 1 2 2 4 8 11 9 10 9 8 6 3 2 6 8 9 11 13 15 17 18 20 21 22 22 21 20 23 23
4 4 3 2 2 5 3 4 4 5 3 3 6 6 4 2 5 4 2 2 3 2 2 2 2 1 3 8 7 6 5 4 4 8 6 2 3 4 5 8 10 13 15 17 18 20 22 23 22 23 24 26 27 28
4 2 3 4 1 3 4 3 4 4 6 4 10 4 4 6 4 3 2 1 1 2 1 2 6 5 4 2 1 1 3 2 3 3 4 3 2 2 5 8 12 16 20 22 24 26 25 25 27 29 29 27 28 27
3 6 4 3 1 3 2 3 5 6 3 6 7 5 4 3 3 3 2 1 1 2 1 3 5 5 4 4 6 6 5 3 4 5 4 2 5 8 11 14 20 24 24 24 25 27 30 32 32 31 30 32 33 32
1 3 2 2 1 1 2 8 2 4 3 7 5 3 2 3 5 4 3 3 2 2 5 7 6 3 7 8 6 7 7 6 6 3 2 5 10 14 17 19 20 21 23 23 24 27 29 30 29 28 29 30 27 27
2 1 1 1 2 1 4 2 4 4 4 4 3 2 2 5 5 4 2 3 5 6 7 8 9 10 12 11 9 8 5 2 3 7 11 15 17 17 16 15 16 16 19 24 27 28 27 27 26 25 23 23 17 17
1 1 1 1 2 3 2 1 1 2 3 3 3 1 3 5 2 1 3 4 8 7 9 7 9 7 8 6 2 2 5 8 11 12 13 14 14 14 14 14 16 20 24 27 28 29 29 28 26 25 23 22 21 19
2 3 3 7 3 3 5 3 4 5 3 2 2 5 4 3 2 3 1 5 7 4 3 5 4 2 1 1 4 7 10 11 10 9 11 13 13 15 18 22 26 26 24 24 27 29 30 28 27 26 26 25 25 25
2 4 4 4 2 2 1 1 3 3 2 4 3 2 3 3 4 2 7 7 7 4 3 3 2 2 3 5 6 7 9 9 9 9 9 10 11 14 19 23 24 25 25 26 26 26 28 28 28 26 26 24 20 21
2 4 3 4 3 2 2 1 1 2 2 4 9 2 6 4 2 3 4 7 6 6 6 5 4 5 5 5 6 7 8 7 7 8 9 10 13 16 18 20 22 25 27 26 26 25 25 25 25 25 26 25 24 18
2 2 5 2 1 1 1 2 2 1 1 9 4 2 3 4 4 5 7 7 8 9 8 6 4 4 5 7 8 9 11 13 14 13 13 15 18 21 23 25 27 29 30 29 26 23 22 20 19 18 16 12 5 6
2 2 3 1 0 1 2 4 3 5 5 5 6 7 6 8 6 5 5 5 6 6 5 5 4 3 3 4 7 10 13 14 15 15 18 21 22 24 25 26 27 27 26 25 25 22 18 16 13 12 14 14 14 14
2 2 2 2 3 3 2 1 4 5 5 5 4 3 6 7 8 6 4 4 3 3 4 4 3 5 7 9 10 10 11 13 15 17 20 21 22 22 23 24 25 25 24 22 21 19 18 17 17 16 15 16 16 15
3 4 2 2 2 1 2 1 1 1 2 2 2 3 6 4 3 4 5 4 2 1 1 2 4 7 9 11 12 13 14 15 17 19 19 20 21 21 22 23 22 21 20 20 19 17 17 17 16 15 15 14 13 12
2 1 2 3 3 2 1 1 3 3 2 2 3 5 4 2 3 3 5 5 3 2 4 5 7 9 11 12 13 14 15 16 17 18 19 19 20 20 21 20 19 18 18 18 17 16 15 15 14 13 12 12 11 10

GFSWCAN_850_spd_039.txt.gz
Wind_Speed
35 35 36 35 33 30 27 25 24 22 21 19 18 20 21 21 19 17 13 9 6 7 7 5 8 9 10 9 5 10 5 1 4 4 3 3 3 5 2 4 6 7 6 4 3 2 7 10 5 7 6 6 19 24
34 33 34 34 31 28 26 24 22 21 20 18 18 18 18 18 18 15 14 10 8 8 11 14 13 9 7 9 13 14 4 5 7 5 1 3 2 2 2 3 2 2 6 5 9 6 4 17 7 16 8 8 19 19
32 29 31 32 30 26 25 23 21 19 18 17 17 17 16 16 16 14 15 13 11 19 12 9 11 11 7 8 9 8 6 7 7 6 8 3 3 4 4 6 3 4 7 3 3 4 11 12 21 11 10 8 14 14
34 31 29 31 33 26 23 22 20 18 17 16 16 15 15 14 12 11 14 13 8 10 6 3 7 7 6 5 8 5 5 12 12 8 5 3 3 9 3 3 3 5 8 4 4 5 4 11 17 15 12 12 14 12
33 30 31 30 39 25 23 22 20 18 16 15 14 14 13 13 12 11 11 10 7 3 6 7 9 5 4 3 4 5 7 12 9 5 3 3 5 3 1 1 3 8 6 4 6 10 8 6 15 17 17 15 12 15
35 32 31 31 35 26 22 21 19 17 15 14 13 13 13 12 13 13 5 6 7 8 5 2 4 4 5 5 7 10 9 8 6 5 4 4 4 5 3 3 9 13 17 18 6 6 14 10 10 18 14 12 15 15
33 31 30 29 28 27 21 19 18 17 15 14 13 12 12 12 12 4 5 8 9 7 4 4 2 3 6 6 5 5 5 3 2 4 3 3 4 4 3 4 5 8 12 13 13 9 6 14 10 16 12 17 14 12
32 30 28 26 25 24 21 18 17 16 15 14 12 12 11 10 8 7 8 10 10 4 3 4 1 1 5 3 3 2 4 4 2 2 2 3 3 2 3 8 9 8 8 8 12 8 4 10 10 15 16 14 16 11
32 28 26 25 24 22 21 20 16 17 15 14 13 12 10 8 4 7 8 7 7 3 5 3 5 4 6 3 3 2 2 3 0 1 2 2 1 5 5 6 6 5 5 7 9 4 9 13 17 13 14 10 6 5
27 29 25 24 22 19 19 19 19 19 17 15 15 5 4 7 9 10 4 3 3 2 2 3 4 2 4 3 2 2 3 1 1 3 2 2 3 10 10 9 11 8 10 9 16 14 18 21 18 12 7 5 4 4
22 22 26 25 22 20 17 17 18 18 17 15 5 3 10 14 5 3 3 4 3 2 2 2 2 3 2 3 2 1 2 1 2 3 3 2 2 4 9 5 2 4 11 14 17 19 15 10 10 7 5 4 8 11
18 19 20 24 26 22 17 19 20 22 14 10 9 15 12 2 3 4 2 2 1 3 2 3 3 4 4 3 5 3 2 1 4 5 1 2 1 4 9 14 16 17 18 15 12 13 12 10 5 2 6 9 10 10
26 22 16 15 19 20 24 25 25 19 17 17 5 4 2 2 3 5 6 1 2 4 5 4 2 3 3 2 4 2 4 4 6 2 3 0 8 10 16 19 14 14 16 17 15 11 6 2 6 8 8 9 10 10
23 23 22 20 16 14 14 14 19 24 15 4 3 3 1 1 2 1 1 2 3 2 8 8 5 2 2 2 2 3 1 1 3 3 3 1 11 11 9 10 11 11 14 10 7 4 7 9 9 9 10 11 13 14
16 17 17 18 16 15 15 13 9 7 6 5 4 2 1 3 4 5 6 6 5 7 7 6 5 3 2 2 1 2 1 2 1 2 2 5 9 7 10 12 11 10 7 5 7 8 9 9 11 13 13 15 16 17
13 13 16 13 10 9 8 9 10 7 5 4 4 3 7 4 3 3 4 6 6 8 7 4 2 2 1 1 2 3 3 2 2 2 11 12 8 9 9 10 9 5 6 9 9 10 11 13 15 17 18 17 17 18
5 14 12 10 9 8 11 10 4 6 5 4 3 9 8 10 7 5 6 5 8 4 2 3 2 3 2 2 1 2 2 2 7 8 6 2 4 9 10 5 0 4 7 8 9 10 12 14 15 17 20 20 20 19
14 11 10 10 8 10 9 6 5 5 5 5 4 7 9 8 10 8 7 7 3 3 4 2 4 2 2 2 2 2 9 11 10 10 10 10 7 4 4 2 2 4 6 7 9 11 13 15 18 20 22 23 24 24
8 6 6 9 9 5 4 5 4 5 5 6 9 10 8 10 9 7 6 6 6 7 7 2 3 2 2 4 4 14 16 13 13 8 6 7 7 5 2 1 2 4 6 10 13 16 19 20 22 24 25 26 28 29
7 3 3 6 9 5 4 4 5 5 3 3 7 7 5 4 5 3 4 3 4 3 2 2 2 1 2 7 6 8 8 7 8 10 10 8 5 4 3 3 6 8 11 15 19 23 27 29 28 28 30 32 33 35
7 5 4 4 7 8 5 4 5 4 6 4 9 4 4 5 4 2 2 3 1 2 1 3 10 10 8 7 7 6 5 5 7 8 8 6 4 3 4 7 10 14 18 22 25 25 25 26 28 30 31 31 31 31
6 7 3 3 3 3 5 4 5 5 3 7 7 5 4 3 2 2 2 1 1 1 2 3 5 7 7 6 6 5 5 4 4 4 5 5 4 6 10 13 17 19 19 20 21 23 25 27 28 29 29 29 29 29
7 8 4 4 3 3 3 5 2 2 2 5 5 3 2 3 2 3 1 2 2 1 4 6 7 7 6 9 9 8 7 6 5 4 1 3 6 9 11 13 14 16 18 19 22 25 27 27 28 28 29 28 28 27
4 4 4 4 5 2 3 2 2 2 3 3 2 1 1 4 4 2 1 2 2 3 5 7 9 12 12 11 9 7 5 2 1 3 5 7 8 9 10 12 14 16 19 23 25 27 28 29 30 31 30 30 29 29
2 2 1 2 2 1 2 2 2 2 1 0 2 1 3 4 2 1 2 3 8 7 8 10 11 11 10 8 5 3 1 3 5 6 7 8 8 8 9 12 17 21 24 27 29 30 31 31 31 32 32 30 30 30
0 1 1 4 2 2 3 2 3 5 3 2 2 2 3 3 1 3 1 4 8 6 6 5 4 5 5 4 2 1 4 6 7 7 8 8 10 12 16 20 22 22 23 26 29 32 32 32 32 32 31 29 28 27
2 3 1 3 2 2 2 3 2 2 3 4 3 3 2 2 3 2 4 5 6 6 3 1 2 4 3 1 2 4 6 7 6 7 7 8 12 15 18 20 23 24 25 27 28 28 30 30 29 27 27 27 27 25
2 2 2 2 4 4 2 2 2 4 3 4 8 2 5 5 2 2 3 5 4 4 2 2 1 0 1 2 4 5 5 7 9 8 8 11 13 15 16 18 20 23 25 25 26 25 25 24 22 22 20 20 19 17
2 3 4 2 2 1 2 2 2 1 0 7 3 2 3 4 4 6 7 5 4 4 5 4 3 3 3 4 5 6 9 9 8 9 11 14 17 18 21 22 23 24 23 23 20 21 21 19 18 17 15 17 18 19
2 4 3 2 0 1 2 4 5 4 3 6 6 7 7 8 7 6 4 4 5 5 4 3 3 3 3 5 8 10 12 13 14 15 17 18 19 20 22 23 24 23 22 22 22 21 19 18 17 17 17 17 17 18
1 1 2 1 3 3 5 3 4 6 5 7 7 6 8 7 7 3 1 1 2 1 2 2 2 3 5 7 8 10 11 13 16 17 18 19 20 21 22 22 22 22 22 22 21 21 20 20 19 19 18 17 17 16
3 4 2 2 2 3 2 1 1 1 2 2 3 3 4 4 4 4 3 2 1 3 2 3 4 6 7 10 12 14 16 18 18 19 20 20 20 22 22 22 21 20 20 20 19 19 18 18 18 17 16 16 15 15
1 1 2 2 1 1 3 2 2 2 1 3 3 3 3 2 3 3 5 4 1 2 4 5 5 8 11 13 14 16 17 18 19 20 20 20 21 22 21 21 20 18 18 18 17 17 17 16 16 15 15 15 15 14

GFSWCAN_850_spd_042.txt.gz
Wind_Speed
50 47 44 41 38 35 32 31 28 25 23 25 27 29 30 32 32 23 12 9 5 7 7 6 7 9 11 10 5 11 6 1 4 4 3 3 3 5 2 4 6 7 6 4 3 2 7 9 4 7 5 6 13 21
44 42 40 37 35 32 30 29 27 24 23 24 26 27 29 30 27 28 9 8 10 8 12 16 12 9 7 8 14 16 6 6 7 5 1 3 2 2 2 3 2 3 6 5 8 6 4 17 5 13 4 5 11 19
41 39 37 35 32 30 29 27 26 23 22 23 23 23 24 26 25 25 21 15 14 22 14 9 12 12 9 10 11 8 6 8 7 6 9 3 3 4 4 5 3 4 6 3 2 4 11 15 22 21 11 12 10 13
37 37 35 32 30 29 27 25 24 23 22 21 21 21 21 22 20 18 19 17 12 10 6 4 7 9 8 8 7 7 8 14 14 8 5 3 3 8 3 3 3 4 7 4 5 10 10 18 18 21 19 14 11 14
34 35 33 31 29 26 24 24 23 22 21 20 19 19 19 19 18 18 18 13 13 4 6 8 11 9 8 6 6 6 10 13 9 5 3 3 5 4 1 2 3 9 7 5 6 9 6 8 9 11 14 13 13 14
31 32 32 30 27 22 22 22 22 21 21 21 19 19 19 19 18 17 7 9 10 11 7 3 4 5 8 8 9 10 9 7 5 4 3 5 4 4 3 3 8 11 15 14 6 6 9 10 9 9 11 12 12 13
29 29 29 29 27 23 20 19 19 19 19 20 19 18 17 16 16 6 7 11 10 9 5 4 3 3 5 6 4 4 4 3 3 4 3 4 3 4 3 4 2 3 7 9 10 8 6 7 3 8 9 10 13 12
29 28 28 35 34 18 17 18 17 17 17 17 16 16 14 13 14 15 14 12 11 6 5 4 1 2 3 2 2 2 2 3 4 3 3 3 5 2 3 6 7 7 6 5 4 2 3 5 10 11 13 16 18 13
28 27 27 34 31 19 17 16 16 16 16 16 15 15 13 9 6 9 10 9 6 4 5 3 4 3 2 3 3 3 2 3 1 1 1 3 1 4 2 7 8 6 5 4 2 3 7 12 15 18 19 16 11 6
28 27 27 27 30 26 17 16 16 17 17 17 16 5 5 8 16 12 4 3 3 4 4 4 4 2 2 2 3 2 4 1 1 3 1 1 2 5 11 9 9 12 7 8 10 15 18 22 21 15 12 9 2 3
29 26 25 24 23 24 22 17 17 16 16 12 4 5 15 13 5 3 4 6 5 5 4 3 3 3 2 2 2 2 2 1 1 3 2 1 2 3 8 10 10 8 9 9 10 18 14 15 14 10 5 1 4 7
26 28 23 22 21 20 19 20 19 17 10 7 11 16 9 3 4 6 2 1 2 3 2 2 4 4 3 2 5 2 3 1 3 4 1 2 1 7 10 14 16 16 17 19 19 19 16 12 9 4 5 7 8 9
25 22 24 24 19 18 18 18 17 14 20 17 5 5 2 3 4 4 5 1 1 4 5 4 3 3 3 3 5 2 3 3 7 2 2 1 10 13 16 17 21 20 21 20 16 12 8 4 4 5 6 8 10 12
19 19 23 20 18 20 20 20 20 21 9 4 3 4 2 2 2 1 1 2 3 4 8 7 5 2 2 2 2 3 1 2 3 3 2 0 12 12 12 14 14 16 13 11 8 5 3 4 5 6 8 10 13 15
21 21 18 18 16 15 17 19 24 23 5 5 4 3 2 4 5 6 7 6 5 8 9 7 5 2 2 2 1 2 1 2 2 3 0 9 13 12 12 12 15 12 7 5 5 5 5 6 8 9 10 13 15 18
15 17 20 15 13 15 12 9 6 8 6 4 5 5 9 6 3 5 9 8 8 10 9 5 3 2 2 2 2 2 3 3 2 1 7 11 11 10 11 13 10 5 5 5 5 6 6 8 10 13 14 16 18 20
11 23 18 12 11 12 12 10 6 7 5 4 4 10 9 10 6 4 5 4 9 4 2 3 3 3 2 2 1 1 3 2 14 12 8 6 6 9 12 9 4 2 2 3 5 6 8 10 13 16 21 23 25 25
17 16 14 11 10 10 9 7 6 6 6 6 4 7 10 9 10 7 7 8 3 3 3 2 4 3 2 3 2 3 8 12 12 9 6 7 8 9 7 3 2 1 2 4 6 8 11 15 20 22 25 29 32 32
11 9 9 9 6 5 5 6 6 5 6 6 8 10 10 11 10 8 7 6 6 7 9 3 4 2 2 2 3 16 18 16 12 7 6 5 8 7 6 4 2 2 4 7 11 14 17 19 21 23 26 29 32 33
10 9 7 7 6 5 5 5 6 5 3 3 6 7 6 5 7 6 6 6 5 3 3 2 2 1 2 5 5 10 13 9 9 10 10 10 8 7 5 3 3 6 8 11 15 19 21 24 26 28 29 30 32 34
10 11 10 7 9 8 6 4 6 5 4 5 8 5 4 7 4 2 4 4 2 2 2 3 9 12 11 10 9 8 7 6 9 9 13 11 8 5 2 3 6 9 13 17 19 22 23 26 28 30 31 32 31 31
12 10 7 8 6 5 6 7 5 5 3 6 4 4 3 3 2 1 1 3 2 2 2 6 9 9 8 6 5 5 5 4 5 6 8 8 4 3 5 7 10 13 16 18 21 24 25 26 28 29 31 32 32 32
8 7 6 7 5 6 4 4 3 3 3 4 5 3 2 2 2 3 2 0 1 1 3 6 9 9 7 8 7 7 6 5 6 6 5 2 1 4 8 10 12 15 17 19 22 24 25 26 27 30 31 33 33 34
8 5 5 5 6 2 2 3 2 2 3 1 2 2 1 2 4 2 0 2 1 2 4 8 10 12 11 9 7 6 5 5 3 2 0 3 5 6 8 10 13 16 19 21 22 23 26 28 29 30 31 32 31 32
3 6 4 4 4 3 4 3 3 3 1 1 2 1 2 3 2 2 1 2 3 4 6 8 10 8 7 6 6 4 3 1 1 2 2 3 5 6 8 11 15 17 20 21 23 25 27 28 28 27 27 27 29 30
5 5 4 2 3 3 2 2 1 3 1 2 2 3 4 3 2 2 1 2 5 5 6 6 7 7 6 5 3 1 1 2 3 4 4 4 6 9 13 15 16 17 18 21 24 26 26 25 24 24 23 22 22 26
2 1 2 1 0 1 1 2 1 1 2 3 2 3 2 2 2 2 2 3 5 5 4 2 1 3 3 3 1 1 3 4 4 4 4 6 10 12 14 16 18 18 19 20 21 22 23 23 23 21 21 19 20 22
1 1 2 0 2 3 2 1 2 3 2 3 6 1 3 4 2 2 2 4 5 3 1 2 2 2 2 1 2 4 5 5 5 5 7 10 12 13 13 15 16 18 19 19 20 20 20 21 21 21 21 22 23 23
1 2 2 2 3 3 2 1 2 0 0 5 3 2 3 4 5 6 6 4 2 0 2 2 1 1 1 2 2 2 4 5 5 6 8 10 12 14 16 17 18 19 19 18 17 18 19 19 19 20 20 20 20 21
2 2 2 1 1 2 3 4 2 1 2 6 7 7 8 10 9 8 5 2 3 4 1 1 2 2 2 2 3 5 7 9 10 13 15 16 17 18 18 19 19 19 20 19 18 17 17 16 16 16 16 16 16 16
4 2 1 2 2 2 3 3 5 5 4 7 7 7 9 7 8 5 3 3 2 0 1 1 2 2 3 5 6 8 10 13 15 15 16 17 18 18 19 19 20 20 20 19 19 18 18 18 18 18 17 17 16 16
4 4 3 2 1 3 1 1 2 2 3 3 3 4 5 4 4 5 4 2 2 4 3 3 3 4 6 8 10 12 14 16 17 18 18 18 18 19 20 20 21 20 18 18 17 17 17 17 17 17 17 16 16 16
3 2 2 2 1 1 2 1 2 2 2 3 3 3 2 3 3 3 4 2 2 2 4 4 4 6 9 11 14 16 17 18 18 18 18 19 20 20 21 21 20 18 17 17 17 17 16 16 16 16 16 15 15 15

GFSWCAN_850_spd_045.txt.gz
Wind_Speed
47 49 46 39 41 39 36 34 31 31 29 29 33 38 42 46 40 26 17 16 10 6 11 8 10 13 10 10 5 11 6 2 3 3 3 3 3 4 2 2 4 5 6 3 3 1 6 7 4 5 3 3 7 16
48 44 42 41 40 38 35 32 28 26 25 28 32 37 40 43 42 24 15 11 9 6 10 14 12 12 10 12 15 21 6 6 8 4 1 3 2 1 2 3 0 3 5 4 8 5 4 13 7 10 3 4 4 10
41 41 39 37 36 34 31 27 24 23 24 27 31 34 37 39 37 23 16 15 8 18 13 11 12 10 11 12 15 9 7 9 8 7 8 2 3 3 4 5 3 4 5 2 1 2 9 19 20 24 20 12 10 10
40 36 35 34 32 30 29 26 24 24 25 26 28 31 34 36 34 23 14 21 12 8 7 5 7 8 8 11 9 9 12 14 16 9 5 3 3 6 3 2 2 2 7 4 4 10 12 15 14 15 16 15 14 10
36 35 34 31 30 29 28 27 24 23 23 26 29 31 35 33 29 35 7 12 12 3 7 8 14 12 10 8 9 11 15 17 10 5 3 2 5 4 2 1 3 9 6 4 5 3 4 6 7 7 7 7 5 8
34 31 30 31 30 28 27 27 23 23 23 27 29 29 28 27 29 31 12 9 10 13 8 3 5 7 12 13 15 15 12 9 5 5 4 4 4 3 3 3 3 3 4 6 4 9 8 9 8 6 1 6 10 11
34 32 30 30 29 24 24 26 26 24 26 28 30 30 30 29 28 19 11 15 13 11 5 4 2 4 6 7 6 7 7 5 4 5 4 4 3 4 3 3 3 9 7 5 5 5 3 4 2 3 5 11 17 18
32 28 27 28 26 24 22 23 25 25 25 22 22 22 21 19 21 21 20 17 12 7 6 4 1 3 3 2 3 3 4 4 6 4 4 4 5 2 2 3 8 7 5 6 5 4 2 6 9 13 16 22 23 17
27 26 26 26 26 20 17 19 23 24 25 26 19 18 20 17 8 15 16 13 10 6 6 4 4 3 2 4 4 3 3 3 2 2 2 3 1 3 1 8 10 6 4 2 6 10 13 15 20 22 20 14 14 12
28 29 28 26 25 22 18 15 19 21 22 23 16 5 6 10 22 14 5 3 4 6 5 4 3 2 3 2 4 2 4 1 2 0 2 2 2 5 7 5 6 4 5 9 14 15 18 25 18 15 16 11 7 4
22 25 27 25 23 21 18 15 16 16 16 5 4 6 19 13 5 5 5 7 7 5 6 4 4 4 3 2 2 3 2 1 2 1 2 1 1 3 5 8 10 9 9 5 11 18 18 18 17 13 8 4 1 3
22 22 22 24 21 18 14 14 15 13 7 11 16 14 6 5 5 7 3 2 3 2 2 3 4 5 4 3 4 2 3 1 2 4 2 2 2 8 11 13 16 16 20 24 22 21 17 13 8 4 2 3 4 6
29 26 22 20 20 22 19 13 13 15 12 5 6 5 7 8 7 4 4 1 1 4 4 4 3 3 3 4 5 2 3 2 8 2 2 2 11 13 18 22 23 22 19 18 16 13 9 5 3 3 4 5 7 9
21 23 24 20 17 17 18 17 17 18 12 5 3 4 2 1 1 1 1 3 3 5 10 10 6 3 3 3 1 3 1 2 3 3 2 4 15 16 21 19 18 17 13 11 8 5 4 4 4 4 6 7 8 10
20 20 21 20 17 18 18 19 20 12 5 5 4 3 2 4 5 7 9 7 7 9 9 8 6 3 2 3 2 3 2 2 2 2 1 10 18 19 15 15 13 10 7 6 6 4 4 4 5 5 6 9 12 15
16 17 20 17 15 16 15 19 17 6 6 5 6 4 5 6 3 5 10 10 9 11 8 5 3 2 2 2 2 2 4 3 2 1 7 18 18 16 14 15 10 7 7 6 4 3 3 4 7 9 11 14 19 23
19 21 14 14 15 15 11 12 7 8 5 4 4 10 9 10 6 5 7 5 10 4 2 2 3 1 2 2 2 1 2 2 11 11 11 15 16 16 15 11 6 4 4 3 2 2 4 7 11 16 20 24 26 28
20 17 12 11 12 13 16 10 7 6 6 8 6 7 12 10 10 7 8 8 3 4 3 2 5 2 2 3 2 3 4 16 13 11 12 12 14 15 12 9 7 5 3 1 3 7 10 14 18 20 23 26 29 31
13 12 10 7 4 4 5 6 6 5 7 6 8 11 12 12 12 10 8 6 7 9 9 3 3 2 1 1 2 13 17 16 14 10 6 7 10 10 10 9 7 4 1 4 8 11 14 16 18 21 24 27 30 31
12 9 8 7 3 5 6 6 6 6 4 3 6 7 7 7 8 9 8 8 7 3 4 3 1 2 3 6 9 12 15 11 8 11 11 11 10 11 10 7 3 2 4 6 9 12 15 18 21 24 26 27 30 31
12 11 9 9 15 11 7 5 6 5 5 5 7 5 5 8 5 5 6 5 3 4 3 3 7 11 10 10 9 9 10 7 9 8 13 15 12 8 5 2 1 3 6 10 13 16 18 21 23 25 27 29 30 31
14 10 10 11 8 7 8 9 6 4 4 4 4 5 4 3 3 3 4 7 4 3 3 7 10 10 10 10 10 8 8 6 7 8 11 11 9 5 2 1 4 7 10 13 15 18 20 21 24 25 27 29 29 28
11 10 9 9 6 6 4 5 4 3 2 2 3 3 2 2 2 3 2 2 3 3 3 8 9 7 8 10 9 9 9 7 8 9 8 6 3 2 1 4 6 8 12 14 17 19 20 22 23 24 23 23 24 26
10 7 7 6 9 3 3 5 4 3 3 2 2 2 2 2 3 2 1 2 4 3 2 7 10 12 11 9 8 8 8 6 6 6 4 2 0 1 4 6 9 12 14 16 17 18 19 20 19 19 20 21 20 22
5 9 6 5 7 5 5 4 4 4 1 1 1 1 1 2 2 1 1 3 4 4 5 7 7 7 8 8 7 6 5 4 3 1 1 1 2 4 6 9 12 14 16 16 16 17 18 17 17 18 19 19 20 20
6 7 4 2 3 3 2 2 1 2 1 2 1 2 2 3 2 1 2 3 3 6 5 5 5 6 6 5 5 4 3 2 1 0 0 1 3 6 9 11 13 14 16 17 18 18 18 18 18 19 18 19 19 21
4 2 3 3 2 2 2 1 1 1 2 3 2 3 1 2 2 2 2 3 4 5 5 3 2 2 4 5 4 3 2 2 1 1 1 3 7 10 12 13 14 15 16 16 17 18 19 19 19 19 19 19 20 21
5 3 2 3 2 1 1 0 1 2 2 1 4 2 1 2 2 2 2 6 5 4 4 4 4 5 5 4 3 3 3 2 1 2 5 7 9 11 12 14 15 16 16 16 17 17 18 18 18 18 19 19 19 20
3 3 3 3 2 2 3 3 4 3 3 1 2 2 3 4 4 7 7 5 4 2 3 3 3 4 3 3 2 2 2 3 4 6 8 9 10 11 13 14 15 16 16 15 16 17 17 17 17 17 17 17 17 17
4 4 2 2 2 2 4 5 3 3 4 5 6 8 9 9 8 8 6 3 1 1 2 3 2 2 2 2 2 2 2 4 6 9 10 12 14 15 15 16 17 17 17 17 16 15 15 15 14 14 14 14 14 14
4 2 1 2 2 3 4 4 4 5 5 8 8 8 9 8 8 7 5 4 3 2 2 3 3 4 3 4 4 6 7 10 12 14 14 15 15 15 16 17 17 17 17 17 16 16 16 15 15 15 15 15 15 15
4 4 2 2 1 3 2 1 2 3 3 3 4 5 6 4 3 3 2 3 4 4 4 4 3 3 4 5 7 10 11 13 14 15 15 15 15 16 16 17 18 18 17 16 15 15 15 15 15 15 15 15 15 14
2 2 3 2 2 2 4 2 3 3 4 4 4 4 3 3 3 3 3 2 3 4 3 3 4 5 7 9 12 14 16 17 16 16 16 16 17 16 17 18 18 17 16 15 15 15 15 14 14 14 14 14 13 13

GFSWCAN_850_spd_051.txt.gz
Wind_Speed
46 43 40 36 32 31 29 33 35 35 37 35 33 40 41 49 46 51 27 14 9 9 13 10 15 23 16 22 7 12 8 3 3 2 3 3 1 5 3 3 6 7 7 3 3 2 6 7 7 2 4 3 5 3
39 36 32 31 30 30 31 33 36 33 32 38 38 39 44 46 47 52 23 11 10 7 8 10 16 17 17 13 14 20 6 13 10 4 2 3 2 1 1 4 4 4 6 2 7 3 4 8 3 2 3 4 4 5
33 33 31 31 33 33 36 42 32 37 44 37 40 40 41 42 47 51 17 10 8 8 9 8 6 10 16 18 17 8 7 9 8 3 6 2 3 4 4 4 4 4 2 3 1 3 5 4 4 4 5 7 7 6
31 30 29 32 31 26 31 39 43 38 40 40 39 39 39 41 44 48 14 15 11 8 5 3 3 3 9 14 17 13 12 15 15 8 4 3 3 4 3 1 4 3 7 5 5 10 5 4 4 5 5 3 3 3
33 36 33 31 28 28 33 39 40 38 36 35 35 37 39 43 44 35 17 18 13 6 5 7 7 5 3 9 12 10 12 14 9 5 3 2 4 4 2 1 3 6 3 4 3 5 4 6 5 6 3 3 3 4
36 39 38 36 33 30 31 32 32 33 34 35 36 37 42 46 44 17 4 14 13 12 8 3 3 5 9 13 14 13 11 8 6 6 4 4 2 2 3 4 4 2 1 2 2 2 3 4 6 6 6 8 10 11
31 30 28 26 24 24 26 29 31 32 33 35 36 41 48 51 28 18 8 20 18 12 7 3 4 3 6 7 6 7 7 6 5 6 4 4 4 4 2 3 7 2 2 2 2 2 4 5 7 10 13 15 15 15
32 34 34 33 28 25 28 31 34 34 36 38 40 42 47 49 18 5 12 24 17 10 7 3 2 4 3 4 4 4 4 4 7 5 4 3 4 1 3 7 5 3 5 6 7 9 13 13 13 14 13 13 17 19
34 34 34 36 35 36 33 32 36 38 37 39 41 40 39 23 9 9 19 18 12 4 7 2 4 3 3 4 3 4 5 4 3 2 2 4 2 3 3 5 1 1 2 6 9 11 12 14 14 14 13 14 14 11
33 31 30 35 41 43 43 41 40 41 42 42 39 21 10 13 20 22 7 5 7 3 4 3 4 3 3 3 3 3 4 2 2 2 4 2 3 4 3 2 1 2 6 9 12 13 14 16 14 12 12 8 7 6
30 28 26 24 24 25 33 33 36 37 36 20 8 5 23 20 10 2 4 1 1 3 4 4 5 6 3 3 3 3 3 1 3 3 4 4 3 5 5 6 7 9 10 6 11 14 13 15 14 10 9 8 7 6
18 20 23 22 22 19 19 16 22 23 18 15 20 27 21 7 4 3 2 2 2 3 3 4 5 6 4 4 4 2 3 2 3 8 3 3 4 11 10 10 10 11 14 18 19 18 14 12 10 10 9 6 5 4
15 15 14 17 20 22 18 17 20 22 27 23 10 5 1 1 5 4 5 1 3 4 5 6 4 4 4 5 5 2 3 3 9 3 3 2 13 13 13 15 17 18 18 17 16 14 13 11 9 7 6 5 4 4
18 19 21 18 17 15 16 18 22 17 8 7 6 5 4 3 3 2 3 3 3 8 14 13 6 4 4 3 1 4 3 4 4 4 3 5 15 15 16 17 18 17 18 15 14 11 10 8 7 6 4 3 4 7
18 15 13 12 15 15 11 8 8 8 7 6 4 4 3 4 5 5 6 6 10 13 8 8 7 5 3 4 2 4 3 3 3 1 3 14 21 21 19 17 17 18 15 12 11 9 8 7 5 3 1 5 9 12
16 14 13 13 11 14 13 7 5 10 7 6 7 4 4 4 3 6 11 8 7 8 6 6 3 3 3 3 3 2 5 3 3 3 12 22 25 20 18 16 15 13 12 12 9 8 6 4 2 1 6 8 11 15
9 20 15 12 12 13 16 15 8 8 6 4 4 11 10 10 6 4 6 4 4 3 3 2 3 3 3 3 3 1 2 3 8 11 20 25 21 19 17 15 14 13 12 9 8 7 4 2 2 4 4 9 13 13
23 22 20 18 18 15 9 9 7 6 6 8 4 6 11 10 8 6 6 5 4 4 3 3 4 2 2 3 3 3 7 11 12 15 19 19 15 16 15 15 13 11 10 9 6 3 1 0 2 4 8 12 12 12
13 10 7 8 10 8 6 7 7 5 7 6 8 10 11 11 13 10 10 10 12 11 5 3 3 2 3 6 9 14 18 15 16 18 18 18 19 19 18 16 13 11 9 7 5 3 0 3 4 7 10 13 14 13
12 9 6 5 5 7 6 6 5 5 4 4 6 9 7 7 11 13 13 11 9 5 7 4 4 5 5 6 10 16 15 14 16 15 13 13 13 14 13 12 10 9 7 4 2 1 1 3 8 10 13 14 13 13
8 8 9 11 17 12 7 5 6 5 5 5 5 6 5 7 8 9 9 9 9 6 4 6 7 8 10 11 13 13 13 12 9 7 13 13 11 11 10 9 8 7 5 3 1 3 4 5 9 12 13 12 13 10
7 6 10 11 8 7 8 9 5 4 4 4 4 5 5 4 5 7 6 10 6 6 5 5 7 8 11 11 9 9 11 9 8 14 15 15 12 10 8 7 5 5 3 1 2 4 5 9 12 13 12 12 11 10
6 8 8 8 7 7 4 7 5 5 3 3 2 3 3 3 4 4 4 5 5 8 4 7 9 10 12 12 12 12 10 10 11 11 12 10 10 9 7 6 5 3 1 3 5 7 9 12 13 14 11 11 11 11
9 6 7 6 8 4 4 4 4 3 3 3 2 3 3 3 3 3 3 5 7 8 7 5 6 9 10 10 10 10 10 9 11 11 9 9 8 7 5 3 1 1 3 6 8 9 11 11 13 11 11 12 11 12
6 9 6 7 6 4 3 3 3 3 3 3 2 3 3 2 2 3 3 4 9 10 10 7 6 6 7 7 8 8 9 7 7 8 7 6 5 5 3 0 2 5 6 8 9 10 11 13 12 12 14 12 13 14
7 10 5 5 4 3 3 2 3 3 2 2 3 3 1 1 2 4 3 8 8 9 9 10 5 6 8 8 7 5 6 7 5 5 5 5 5 3 2 0 1 7 12 13 13 13 13 14 15 15 14 12 13 14
5 6 6 6 4 3 4 5 4 3 2 2 2 1 1 2 4 4 4 9 6 6 5 4 5 5 7 6 5 5 5 5 4 3 4 1 1 2 3 3 6 11 14 15 16 16 16 16 15 14 14 12 13 13
7 8 5 6 6 6 3 3 3 3 3 3 0 3 3 5 3 3 4 4 6 6 7 7 6 6 5 6 6 6 6 6 4 2 2 3 5 7 8 11 14 15 15 16 16 17 17 17 16 14 13 14 14 13
5 5 3 5 4 5 6 6 4 4 6 6 2 3 4 4 3 4 4 4 5 5 6 6 7 6 6 6 6 5 4 5 4 4 4 3 4 8 15 15 14 15 16 16 17 17 17 17 16 16 16 16 15 14
5 6 2 3 3 3 5 7 6 7 10 8 7 9 11 8 7 6 5 4 4 5 5 4 4 4 6 5 5 5 5 6 6 7 7 7 10 15 15 15 15 15 16 16 16 16 15 15 15 12 12 13 11 12
5 5 3 5 4 5 4 6 9 10 8 10 12 11 9 7 6 7 6 7 5 5 6 6 6 6 6 5 5 5 6 9 11 13 14 15 16 16 14 16 15 16 17 16 16 16 16 16 13 12 12 13 14 14
5 5 3 2 4 4 4 2 2 3 4 4 5 5 6 4 4 2 6 9 6 6 6 6 5 5 5 6 7 8 10 13 16 17 17 17 16 16 17 17 16 16 17 17 17 15 15 15 15 14 14 14 14 15
3 4 4 2 2 2 4 2 2 3 4 4 4 5 5 4 4 1 3 5 5 5 5 4 4 4 6 9 12 14 15 17 18 18 18 18 18 18 18 18 17 18 18 17 17 17 16 15 15 15 16 16 15 15

GFSWCAN_850_spd_057.txt.gz
Wind_Speed
49 46 43 42 41 41 39 38 39 38 43 45 44 42 41 39 39 38 51 27 10 5 11 10 36 27 33 25 5 11 7 2 4 3 4 4 3 4 5 9 7 7 6 3 3 2 6 10 5 6 5 10 11 16
43 41 40 38 35 35 37 39 40 40 40 39 38 37 35 33 34 36 35 37 27 15 9 8 11 38 25 34 20 24 12 17 17 4 2 3 3 2 4 2 3 3 7 6 7 6 7 12 19 14 12 15 12 10
36 32 34 38 39 40 40 38 37 35 34 36 35 35 34 39 31 39 41 22 26 16 10 8 5 19 16 20 30 11 8 14 8 7 6 3 4 4 3 4 3 2 7 4 4 3 7 24 21 16 13 14 8 6
38 41 38 36 35 35 34 34 32 33 33 34 34 35 34 32 36 42 49 40 16 5 3 6 10 10 12 21 19 20 14 11 20 14 6 3 3 6 4 4 5 5 6 6 2 10 21 16 16 13 13 14 10 7
32 30 30 29 28 28 30 29 28 32 34 33 31 30 35 28 39 41 40 41 20 11 2 3 8 12 12 15 20 24 29 15 15 5 4 2 4 4 1 3 1 3 5 4 4 8 12 11 11 16 18 18 13 12
27 28 26 26 22 23 26 27 29 35 33 32 30 33 26 32 38 26 13 40 29 17 6 2 5 14 13 17 21 19 22 8 6 6 3 4 3 4 3 3 2 17 17 16 9 17 25 24 21 17 19 16 13 13
26 26 24 21 22 22 24 28 31 31 30 29 30 29 27 27 26 26 8 9 18 21 5 2 3 3 12 14 13 14 18 8 5 4 4 3 3 5 3 3 10 19 22 22 21 25 21 14 18 16 15 16 14 17
22 23 24 24 22 26 27 27 30 32 29 29 32 28 25 29 23 35 15 9 18 10 6 3 1 3 6 6 5 6 5 5 8 4 2 3 4 4 3 10 21 22 21 16 14 9 26 26 20 17 16 18 22 23
22 21 21 24 27 28 30 31 30 34 28 31 33 32 27 27 16 36 10 11 13 6 6 3 3 2 4 5 5 5 4 3 3 2 1 4 1 1 2 16 20 22 11 27 26 28 24 20 19 19 20 21 24 19
12 14 20 22 24 17 25 33 38 33 34 35 33 13 10 11 29 15 3 3 4 5 4 3 5 2 4 4 3 3 4 2 2 2 3 3 2 8 10 15 16 16 28 31 31 24 22 22 22 20 16 18 22 17
19 28 28 26 28 28 30 34 38 42 43 34 7 5 21 22 11 3 4 4 4 4 3 5 5 4 2 3 2 3 2 0 2 3 4 2 3 4 9 10 12 16 23 19 16 17 17 25 27 26 22 19 16 14
24 25 32 35 31 29 33 38 45 47 26 13 25 27 16 6 4 5 3 4 1 1 3 3 5 7 5 5 4 2 2 1 2 5 3 3 3 18 19 17 18 20 21 20 19 24 24 23 21 19 19 18 15 14
35 30 32 34 35 35 38 39 30 18 48 32 9 6 3 4 5 3 4 1 3 3 4 4 3 4 4 4 6 2 3 1 4 2 3 2 15 19 19 17 18 17 21 29 27 26 26 23 16 17 19 15 13 10
29 39 39 35 31 29 20 19 45 24 6 6 5 5 3 3 2 1 1 2 3 8 15 14 7 3 3 3 2 4 1 2 3 2 5 4 19 22 22 21 27 28 28 28 26 22 20 20 20 17 14 12 8 5
24 21 26 26 23 22 23 30 15 7 7 7 6 5 3 3 3 4 7 7 8 18 12 9 6 4 2 3 2 3 3 4 5 4 2 18 26 26 26 26 29 28 24 22 23 22 21 19 18 16 12 8 4 3
16 16 20 17 13 12 15 16 11 11 7 6 8 5 4 4 3 7 13 12 11 11 7 4 3 3 2 4 2 2 6 3 1 2 17 27 26 26 28 29 27 23 20 23 21 20 18 15 13 11 8 4 2 4
16 24 19 14 11 10 11 11 9 10 7 6 4 11 9 10 7 5 6 7 9 5 2 3 3 1 1 2 2 3 2 1 7 16 22 26 25 26 25 26 22 20 20 21 20 17 15 13 10 7 5 3 2 5
20 15 15 17 15 14 18 12 8 7 7 10 5 9 13 9 9 8 7 8 5 3 2 2 4 3 3 2 2 2 6 13 16 20 24 23 24 24 25 24 20 19 20 19 16 16 14 11 10 7 3 3 3 5
18 15 9 7 7 10 6 7 7 5 7 4 8 10 10 12 19 16 14 15 15 10 5 5 5 3 3 4 5 13 14 14 21 23 23 23 25 26 25 23 21 18 16 15 16 15 14 10 6 3 1 2 5 7
17 16 11 8 6 7 7 6 6 7 4 4 8 11 7 10 20 25 23 19 17 8 8 5 4 7 5 8 11 14 16 23 27 28 25 24 22 22 22 22 19 18 19 17 11 8 7 6 2 1 3 6 7 8
13 15 12 18 23 13 8 5 6 5 7 6 9 7 8 20 20 19 17 19 16 7 5 10 15 20 19 17 16 18 16 17 19 23 24 22 18 18 15 12 12 12 12 11 12 10 8 4 3 4 6 8 9 8
14 10 12 14 9 7 9 9 6 5 5 5 4 6 6 4 7 12 18 16 8 12 11 16 18 23 25 23 20 18 17 17 16 16 14 14 15 14 13 12 12 13 11 8 6 5 3 2 5 6 7 9 9 9
9 10 10 11 7 7 4 6 4 5 3 3 3 3 4 4 5 6 7 9 8 15 14 16 16 16 21 20 18 18 17 19 19 18 16 16 15 14 13 11 8 7 7 5 3 2 4 6 8 9 10 11 11 10
10 8 8 7 10 4 4 5 5 4 4 3 3 3 3 4 5 7 4 6 16 21 22 14 8 11 12 15 20 20 16 14 17 15 10 10 10 9 8 9 8 5 3 1 2 5 7 9 11 12 13 13 12 12
7 11 7 6 9 5 4 3 4 4 4 4 3 3 2 4 3 4 3 5 16 16 20 15 13 14 14 13 13 13 10 7 10 14 13 9 7 7 7 7 6 4 1 4 6 8 10 12 13 13 13 12 11 12
7 11 6 10 6 5 4 3 3 4 3 3 3 1 2 3 4 4 4 11 12 12 13 15 9 8 11 10 10 10 9 7 5 8 12 10 9 8 6 2 3 4 6 9 11 12 12 13 14 13 13 11 10 12
6 6 8 8 4 3 3 4 5 5 5 4 2 2 3 5 4 4 4 10 8 9 8 8 9 11 13 13 12 10 7 5 8 11 9 7 6 4 2 3 5 8 10 11 12 13 13 14 14 14 14 11 12 15
7 9 5 10 9 13 3 3 4 5 4 10 4 6 3 4 3 5 7 6 10 11 12 11 10 9 9 9 9 9 10 12 11 8 6 7 7 8 11 13 13 14 15 15 16 15 15 15 15 15 14 14 12 12
6 10 5 7 6 8 11 7 6 6 9 6 4 3 4 7 12 11 5 5 5 5 10 12 13 11 11 11 10 9 8 6 6 5 3 3 7 11 14 13 13 15 15 15 14 14 13 14 14 16 16 12 12 12
9 12 4 8 5 5 9 8 16 14 17 12 13 19 21 16 12 8 9 10 10 9 8 7 9 6 8 8 8 7 8 8 8 7 8 9 11 12 12 13 15 17 16 16 16 16 15 14 14 13 15 14 12 13
7 9 6 7 6 13 16 20 21 22 22 19 15 22 15 12 14 12 12 10 10 6 6 6 6 7 6 5 5 7 10 12 12 12 12 12 12 13 14 14 15 15 14 13 15 18 17 15 15 15 16 17 17 16
7 9 5 3 4 8 10 6 10 15 15 14 10 14 12 7 5 3 7 3 3 4 4 4 7 7 8 9 10 10 11 13 14 16 16 15 15 14 14 14 15 16 16 16 16 16 16 17 15 14 16 19 21 22
7 8 9 5 5 3 4 4 4 5 6 4 6 9 7 5 5 3 5 6 6 5 4 5 5 6 8 11 12 12 13 14 16 17 17 17 15 15 16 18 18 18 17 16 15 15 14 14 14 14 17 19 21 22

GFSWCAN_850_spd_060.txt.gz
Wind_Speed
45 56 59 56 58 57 51 47 46 42 44 44 40 37 43 43 44 56 48 27 16 6 9 16 29 22 29 33 6 7 7 2 3 3 3 4 3 6 4 7 8 7 6 3 3 3 6 9 3 7 6 14 17 16
46 47 51 53 51 45 43 43 42 38 38 37 36 35 41 41 49 48 36 39 25 6 9 12 8 22 35 44 28 20 7 8 8 4 2 2 1 2 5 3 2 2 7 6 8 6 5 4 7 15 21 23 17 17
40 40 40 40 40 41 37 38 38 37 34 38 40 40 44 46 42 46 36 33 23 14 21 8 6 6 24 27 36 11 4 11 11 9 8 3 3 4 4 4 4 2 6 4 4 2 4 16 19 22 19 19 17 15
33 34 35 35 36 36 34 33 32 36 35 40 43 43 42 39 38 40 32 23 29 7 3 3 4 3 12 26 29 35 20 18 19 13 5 3 4 6 4 4 5 6 9 6 4 3 16 11 18 21 19 16 13 11
29 30 31 32 33 33 34 34 35 35 35 35 33 36 37 34 36 34 21 33 18 2 4 3 6 5 10 18 24 24 21 18 7 5 4 3 3 4 1 3 1 4 6 5 5 21 8 12 17 21 20 16 12 8
33 33 33 33 33 33 32 31 30 30 31 31 31 32 34 35 32 30 8 24 43 25 6 2 1 6 6 19 23 23 29 17 6 7 4 8 6 2 4 3 2 4 9 15 10 25 18 25 23 19 17 17 17 18
27 28 29 29 29 30 28 29 30 30 32 31 30 29 31 27 27 22 11 10 42 30 2 3 2 4 9 15 15 10 10 9 7 7 6 5 7 2 3 3 8 11 15 18 26 32 24 26 18 19 19 20 21 23
22 24 22 23 26 24 23 25 29 30 29 27 27 30 21 23 22 21 11 5 23 30 6 2 3 3 6 7 6 5 6 7 5 4 6 1 6 5 2 6 19 24 26 28 26 6 23 26 25 22 21 26 29 29
20 21 19 17 16 18 23 25 30 29 28 26 30 25 24 25 14 29 18 1 22 15 4 2 3 2 5 5 5 5 3 3 3 3 4 5 1 3 4 19 25 31 14 23 19 22 29 27 25 26 29 28 27 26
21 20 18 19 22 26 28 31 31 32 30 28 27 12 9 11 12 32 13 2 4 6 5 2 4 3 5 3 3 4 5 2 3 3 4 3 2 2 8 20 25 15 22 29 32 24 27 26 28 30 28 25 25 24
24 20 22 25 26 28 29 31 34 33 27 22 11 3 27 24 12 9 3 4 3 1 2 4 4 4 4 4 3 3 2 1 3 2 4 2 2 3 10 16 19 22 23 20 12 23 23 30 34 32 26 25 23 20
16 20 22 24 27 28 36 30 37 29 28 12 14 29 18 8 5 5 2 2 2 3 1 3 5 6 6 5 4 1 3 2 3 3 3 2 1 15 14 16 24 25 25 19 23 25 27 27 26 27 28 25 21 18
28 30 31 29 27 34 42 45 43 38 19 18 7 7 4 1 3 4 4 0 3 3 5 6 3 5 5 6 6 3 3 2 4 2 3 2 9 18 19 20 23 24 25 26 26 27 27 29 26 25 25 21 19 17
17 25 33 35 39 42 42 21 19 15 5 5 6 5 2 3 3 1 1 2 1 8 16 15 7 3 5 3 2 2 2 2 2 2 4 4 20 24 23 23 25 26 26 28 30 30 29 24 24 23 20 18 15 13
40 34 27 31 43 30 19 26 4 3 4 5 6 5 4 3 7 4 4 7 9 11 12 11 7 5 2 3 2 2 2 1 4 3 2 13 24 26 24 23 26 27 28 30 30 28 26 25 24 22 17 14 11 8
26 32 34 26 24 20 29 13 7 5 7 8 10 4 1 5 4 7 12 13 13 13 10 7 3 3 2 3 2 1 5 4 2 1 13 26 28 27 27 28 28 28 27 26 25 24 23 21 20 18 16 11 9 5
20 24 20 19 21 17 13 12 9 11 8 6 5 13 9 10 6 5 7 6 7 4 2 3 4 1 2 3 2 3 2 2 2 15 21 28 30 29 29 29 27 25 25 25 22 21 20 18 16 14 12 9 5 1
23 18 16 14 13 15 12 14 9 8 7 10 4 7 13 10 7 9 6 6 3 4 3 3 3 5 4 2 2 1 3 13 17 22 26 26 27 27 28 28 24 22 22 20 20 20 18 17 14 11 8 6 3 2
14 9 8 11 14 12 6 8 8 6 7 4 9 11 14 14 20 14 14 17 17 12 7 6 5 3 3 3 3 8 10 15 21 25 26 25 25 25 22 20 22 22 20 20 20 19 16 12 9 7 5 6 6 6
17 12 8 6 5 7 7 6 6 8 4 5 12 19 11 12 16 24 24 23 20 9 7 5 3 7 5 7 8 13 20 24 28 29 26 25 22 21 21 21 22 21 21 20 18 16 15 12 8 6 5 5 5 7
14 16 13 12 22 14 8 5 7 6 7 6 11 11 12 26 28 23 23 21 18 7 5 11 16 20 18 16 16 16 17 22 22 25 26 24 20 20 20 18 17 17 17 16 15 12 9 6 3 4 4 6 7 8
15 12 16 15 9 7 9 10 6 5 5 6 5 7 7 8 11 17 21 17 10 13 12 17 20 23 24 23 22 20 18 18 21 22 21 21 20 18 16 14 14 14 13 11 8 6 3 1 3 5 6 8 9 10
10 11 10 12 7 7 4 8 5 5 3 3 4 4 4 4 7 8 7 10 12 22 15 17 19 20 23 22 22 22 20 19 20 17 14 14 15 14 14 13 10 9 9 7 4 2 1 3 6 8 9 11 12 12
11 8 8 7 10 3 4 5 4 4 5 3 3 3 2 5 7 7 4 5 16 20 20 15 13 17 18 19 23 21 18 16 18 18 14 11 12 12 10 10 9 8 5 3 1 3 5 8 10 11 12 13 13 13
8 12 8 7 10 6 5 4 4 4 4 4 3 3 2 5 3 4 3 6 16 19 18 15 15 16 19 19 17 16 12 10 10 13 14 11 11 10 9 7 6 4 3 3 5 7 9 11 12 14 15 15 15 15
8 10 5 8 5 4 2 2 3 4 3 3 2 2 5 3 4 4 3 9 11 13 14 13 12 13 16 15 14 15 14 9 7 11 14 9 8 7 6 5 4 4 6 8 10 11 12 13 14 15 15 14 15 15
6 5 8 10 4 3 5 9 10 6 5 5 3 4 4 5 4 3 4 9 8 9 9 10 11 14 15 15 13 12 11 10 9 12 11 8 7 6 5 5 6 7 9 11 12 13 13 13 13 14 14 12 13 14
7 10 5 12 10 15 4 4 5 5 3 7 5 6 4 3 3 4 5 9 11 12 11 11 11 10 11 11 11 10 10 11 10 8 7 6 6 7 10 11 12 12 13 14 15 15 16 16 16 16 17 18 15 11
7 9 7 10 7 9 10 5 5 6 9 3 4 3 4 6 13 12 11 9 6 6 8 12 13 10 11 10 10 10 8 7 5 6 7 8 10 11 12 13 13 13 15 15 15 15 13 13 16 17 16 14 15 16
14 12 5 8 5 5 10 8 11 15 15 14 14 27 27 23 18 11 10 8 7 8 8 7 6 4 7 7 8 7 7 6 6 7 8 9 10 11 12 13 14 15 16 17 17 17 16 17 16 14 15 15 14 16
6 7 7 8 6 14 25 25 25 22 25 25 27 28 20 19 19 15 13 7 7 6 5 6 5 5 5 7 8 9 9 9 9 10 11 11 12 12 13 13 14 15 16 17 17 18 19 19 19 19 18 16 16 17
7 6 5 3 6 18 10 12 15 21 18 18 13 14 9 5 5 3 6 4 3 1 6 6 5 5 5 8 10 10 10 11 12 13 14 13 13 13 13 15 16 17 17 17 17 16 16 16 16 16 16 17 18 19
5 10 10 5 6 6 3 6 4 5 5 4 5 7 6 4 4 3 2 4 5 5 4 2 3 3 6 10 11 11 12 13 14 15 15 15 15 16 17 18 18 18 18 16 16 15 14 14 15 16 16 17 17 18

GFSWCAN_850_spd_063.txt.gz
Wind_Speed
15 34 37 37 43 56 72 67 61 57 54 53 48 47 46 47 44 50 33 23 21 5 7 12 23 19 27 29 10 10 9 5 3 4 4 4 3 5 4 6 8 7 7 3 3 3 6 8 5 9 7 10 15 14
32 30 36 40 66 66 64 62 56 52 51 47 47 44 45 43 41 40 29 35 22 8 7 5 22 24 28 39 27 22 7 9 11 4 1 3 2 3 2 3 1 3 7 6 9 6 4 8 5 9 21 24 17 19
40 43 51 54 56 57 52 50 49 48 47 46 47 43 41 36 30 42 33 40 24 6 11 7 12 21 15 24 41 18 6 7 11 5 5 2 3 4 3 4 3 3 4 4 4 4 3 6 10 22 20 23 22 19
37 39 41 42 44 44 44 44 43 44 44 43 38 35 33 33 42 34 31 35 39 1 4 4 6 15 14 18 25 43 22 13 12 8 4 3 3 7 5 5 3 4 10 6 1 1 6 8 14 24 22 22 22 22
33 35 36 36 37 37 38 40 39 38 39 36 35 33 34 32 46 34 25 31 46 17 4 8 1 3 13 25 31 36 29 21 14 4 3 2 2 4 2 3 4 8 7 6 6 19 9 15 22 22 23 22 20 20
29 30 30 31 32 36 33 33 28 34 32 33 34 31 42 43 38 32 8 21 26 26 5 3 2 4 4 19 28 31 31 19 9 8 2 3 2 3 3 4 3 12 12 12 8 28 12 27 25 22 21 19 18 19
29 31 30 28 27 26 27 26 26 35 38 37 37 35 42 37 34 19 6 12 40 34 5 3 3 2 6 14 10 12 16 9 6 6 3 3 1 3 2 3 1 6 10 12 20 31 18 28 18 23 21 21 20 22
30 32 32 32 32 33 34 37 38 41 41 37 37 35 32 31 29 10 4 8 48 29 5 2 3 2 3 5 4 4 6 6 5 4 4 2 2 3 1 2 3 9 19 24 26 12 26 27 29 26 25 28 30 31
26 28 29 29 29 30 32 34 35 36 37 38 35 33 27 21 19 12 6 18 30 12 4 3 2 2 2 5 5 4 4 3 4 2 2 6 3 5 7 8 18 21 8 21 16 16 28 33 32 30 30 30 32 32
23 25 22 21 24 26 32 34 34 37 36 41 35 15 7 14 29 25 10 7 9 10 4 3 1 2 3 3 3 4 4 3 3 2 8 2 3 2 6 18 27 21 20 28 32 21 32 30 31 32 31 30 29 30
18 16 17 20 24 29 32 34 36 36 39 30 11 8 24 32 23 5 0 1 3 2 6 1 4 1 7 3 3 2 2 1 3 3 4 1 3 3 9 20 24 18 17 21 14 22 27 33 35 34 30 27 28 27
17 20 21 24 29 33 33 35 39 42 25 28 11 30 19 7 6 4 2 2 3 5 2 3 4 4 2 3 4 3 3 2 3 5 3 3 3 8 14 22 23 20 22 14 14 24 25 28 31 32 31 29 26 23
27 25 26 27 28 29 31 32 34 25 25 7 7 5 4 2 4 6 5 3 3 4 8 6 3 4 4 4 5 3 3 1 1 1 3 3 6 15 20 23 22 21 20 23 25 23 26 31 29 28 31 27 24 22
22 24 23 27 29 25 30 32 30 24 10 2 4 5 3 2 2 1 2 2 2 6 17 16 5 3 3 3 1 4 0 2 2 1 5 1 12 18 21 23 25 24 24 24 24 28 30 30 30 28 24 22 21 19
27 28 25 23 27 35 35 31 31 8 2 4 6 4 4 3 3 0 4 5 6 13 11 9 7 5 3 4 2 3 1 1 3 4 1 12 17 21 23 26 28 27 26 27 29 29 30 29 27 25 23 20 15 13
27 30 27 27 30 36 35 25 22 6 6 7 7 3 2 1 2 7 12 9 9 11 8 8 4 3 2 3 2 1 4 4 1 1 8 23 24 23 23 24 26 27 27 29 31 28 25 25 26 24 18 15 13 9
26 19 20 24 25 27 29 12 7 4 6 4 4 11 6 9 6 5 8 7 5 3 2 3 4 2 2 3 2 3 2 2 3 12 16 22 23 23 23 24 24 26 28 27 24 24 25 23 18 15 18 15 11 8
23 17 21 23 21 18 14 6 6 7 7 11 4 8 17 16 9 13 8 6 3 3 3 3 3 4 3 2 2 1 5 10 14 17 18 19 21 22 23 25 25 23 23 24 24 22 20 17 15 14 12 10 8 5
14 10 10 12 8 5 6 8 8 5 8 5 12 13 15 14 21 15 14 18 18 12 7 6 5 3 3 3 3 7 10 14 20 24 24 21 22 24 24 23 23 25 23 21 21 20 17 14 12 10 8 6 5 5
11 9 8 6 7 7 6 6 6 8 4 6 13 19 10 9 16 24 26 25 22 10 8 5 4 8 7 7 7 13 19 23 27 28 25 23 22 20 20 20 21 19 18 18 17 16 15 13 10 7 5 6 6 7
13 14 13 14 23 13 7 6 7 6 7 7 15 13 10 24 28 22 22 19 18 8 5 11 15 19 18 16 16 17 19 20 21 25 25 23 20 20 20 19 18 17 16 16 14 12 8 6 5 4 3 6 7 8
14 13 15 14 9 7 8 10 6 5 5 7 10 8 6 8 12 19 19 18 10 12 11 15 20 22 24 25 23 21 20 22 23 23 23 21 21 20 18 15 13 14 13 11 9 7 5 3 1 2 5 8 10 11
7 10 10 11 7 6 4 8 5 5 3 3 4 3 4 6 7 8 7 9 10 19 15 17 20 23 26 24 25 25 23 23 24 21 19 19 19 17 16 15 12 11 11 9 5 3 1 2 4 6 9 11 12 13
10 8 9 8 10 2 4 5 5 4 5 3 3 3 4 5 6 7 4 5 15 19 20 16 17 21 23 26 28 25 23 20 21 21 17 15 16 16 13 12 10 9 8 5 3 2 4 6 8 10 12 14 14 14
8 11 7 7 9 6 5 4 4 3 4 4 3 4 4 6 3 3 3 6 16 18 17 16 18 21 24 23 22 20 17 15 16 19 19 15 14 13 12 10 8 7 5 4 5 7 8 10 12 13 15 16 15 15
7 10 6 7 5 4 2 3 4 3 3 3 4 5 5 3 4 4 3 7 10 13 14 14 15 18 20 18 18 17 17 14 12 16 18 12 11 9 8 6 5 5 6 8 9 10 11 12 13 13 13 13 14 16
6 6 7 10 4 4 6 9 8 6 5 5 3 3 3 5 4 3 4 6 9 10 11 13 14 17 19 19 18 17 13 11 12 16 14 10 9 8 7 6 6 7 9 10 12 12 13 14 14 15 15 15 16 16
7 9 5 12 11 14 4 4 5 4 3 6 5 5 4 3 2 3 6 9 9 9 11 12 13 13 13 14 15 14 14 13 11 9 8 8 8 8 8 9 9 11 12 14 15 16 16 16 17 18 18 18 17 16
7 9 5 10 8 9 11 5 5 7 8 3 4 3 4 5 11 16 10 7 7 8 12 14 16 12 12 11 10 9 8 7 6 6 7 8 8 9 10 11 12 13 14 14 15 16 16 16 18 19 18 18 19 19
15 9 7 8 5 5 10 10 12 13 12 13 15 27 27 23 17 12 9 7 6 8 9 9 9 5 8 7 8 6 6 7 7 8 9 10 10 12 13 14 14 15 16 17 17 17 17 18 18 18 18 18 17 16
6 9 8 8 7 17 22 23 26 26 29 32 30 29 21 19 20 16 13 11 9 6 4 5 5 7 7 6 6 7 7 9 10 11 11 11 12 13 13 14 15 16 16 17 18 18 18 18 18 18 18 17 17 17
8 7 6 4 4 14 8 10 14 15 12 12 12 13 7 5 5 4 6 5 3 2 5 5 4 4 5 8 9 10 10 11 11 11 11 12 13 13 14 16 16 17 17 18 18 17 17 17 17 17 17 17 17 17
10 14 10 5 4 5 5 6 5 5 4 3 3 5 5 4 4 3 4 4 4 4 4 3 2 3 6 8 9 10 10 11 12 12 13 14 15 16 17 18 18 17 17 16 17 16 16 16 16 16 16 17 18 18

GFSWCAN_850_spd_066.txt.gz
Wind_Speed
7 11 25 34 39 37 37 35 61 70 72 66 59 56 58 61 59 54 48 49 29 15 19 11 20 26 27 35 11 9 13 9 3 6 4 4 4 7 3 4 7 7 7 3 3 3 6 11 6 9 8 3 17 19
15 20 26 31 34 39 37 36 65 69 68 56 54 55 55 58 55 49 33 53 26 17 11 8 17 28 39 36 30 26 11 10 15 4 2 3 2 2 5 4 0 3 6 7 9 7 4 20 7 15 8 11 18 21
18 25 28 29 31 30 32 61 66 65 59 49 52 54 52 48 46 47 38 40 26 17 21 21 17 31 32 34 38 17 18 9 10 9 5 3 3 4 4 5 3 3 3 3 3 5 7 11 16 11 16 19 21 20
28 20 22 25 29 47 61 61 61 51 49 51 49 47 44 46 47 46 36 21 22 13 2 7 8 16 23 18 35 38 15 22 10 9 3 3 3 5 4 3 5 4 8 6 4 5 3 11 18 17 18 18 21 21
34 41 49 52 53 52 51 49 46 47 46 43 42 41 42 34 30 32 24 34 16 11 2 9 6 11 19 25 23 32 37 16 8 3 2 3 2 4 1 2 3 7 7 6 7 17 12 10 25 21 22 24 24 25
32 35 37 39 41 42 42 43 43 42 42 42 40 37 35 33 31 25 5 32 25 29 7 4 7 2 8 28 28 24 38 30 15 6 3 3 3 4 3 4 4 14 10 14 3 10 16 10 25 27 26 24 24 23
26 29 32 35 36 36 37 39 39 39 37 37 36 39 33 32 34 15 8 17 29 20 4 4 3 1 9 13 12 14 23 16 8 7 3 5 3 4 3 4 2 4 7 9 9 14 11 23 16 25 25 25 23 21
24 27 27 27 29 31 33 33 36 36 36 34 33 30 33 32 39 7 5 15 27 13 4 2 4 1 2 3 5 6 7 5 4 5 4 3 4 2 1 4 2 5 9 12 15 9 10 20 23 25 23 24 24 25
32 30 26 24 24 26 27 34 37 34 33 37 37 41 43 26 18 7 3 25 22 10 4 3 2 1 2 4 5 4 3 2 2 2 2 4 1 4 7 12 14 14 13 17 10 7 16 24 27 25 23 24 27 29
28 30 33 36 37 36 34 41 39 38 35 34 33 12 7 17 22 20 15 12 7 6 4 3 4 1 2 3 3 3 3 3 3 3 7 2 3 8 13 13 17 22 17 17 20 15 20 25 33 31 30 29 29 31
21 22 26 30 36 37 42 46 49 47 46 28 7 5 22 25 13 3 5 5 4 2 8 7 5 2 2 3 0 2 2 1 3 3 4 2 3 4 11 15 15 20 15 16 17 16 24 26 34 36 30 28 29 30
17 18 21 25 30 33 39 42 45 36 13 8 18 23 23 6 2 3 2 3 4 5 6 4 7 5 4 6 0 2 3 2 1 4 3 2 3 6 4 11 15 17 15 14 10 17 20 23 26 29 31 30 27 27
12 17 23 27 27 30 38 36 21 16 24 21 10 9 7 3 4 5 4 2 3 1 5 6 3 5 5 3 3 3 4 2 2 2 3 1 2 5 12 18 19 17 17 16 19 21 22 26 27 27 27 26 29 27
18 21 23 24 24 27 31 19 18 25 5 4 1 4 2 3 2 1 2 2 3 2 13 13 6 3 3 2 1 3 2 2 2 1 4 1 8 14 19 19 22 21 20 22 23 23 23 24 26 25 28 28 24 23
19 19 19 20 20 22 21 18 19 15 9 5 4 3 4 1 4 5 7 5 6 11 7 9 7 4 2 3 2 3 2 1 2 3 2 7 12 15 17 19 21 22 24 23 21 22 24 26 29 31 26 22 19 20
20 18 17 20 23 21 18 18 14 5 5 0 7 2 6 4 3 9 9 10 7 7 9 7 3 3 3 3 4 2 3 1 1 2 5 11 13 15 18 20 22 22 20 20 21 24 27 28 27 25 22 19 15 11
20 13 18 19 20 20 16 14 5 1 3 5 5 14 7 8 7 7 8 8 7 4 2 3 4 3 1 3 2 3 2 2 4 9 11 14 17 18 18 18 18 19 21 23 27 26 26 24 24 21 18 15 13 12
18 20 18 19 20 21 16 2 3 5 5 9 5 13 19 18 9 16 11 12 4 4 3 3 3 5 4 3 3 2 6 13 14 15 16 16 17 19 19 21 22 24 26 26 26 25 25 22 17 13 13 12 10 7
18 19 26 23 31 10 4 4 4 5 12 6 10 13 13 15 24 17 15 20 21 14 9 6 6 4 3 3 3 5 7 11 20 24 22 20 21 25 26 26 26 25 25 23 22 20 17 14 13 12 9 7 5 2
16 20 21 27 19 4 5 5 6 8 5 6 12 20 9 10 14 21 25 25 23 10 8 5 4 8 8 13 8 12 17 21 25 29 27 25 23 23 23 21 21 18 18 18 16 14 13 11 9 7 5 3 0 3
17 18 15 14 12 12 7 5 7 7 8 7 14 10 9 22 25 20 19 20 18 8 4 11 14 13 14 15 16 16 17 20 23 28 27 27 23 23 22 19 18 17 17 15 13 12 8 7 6 4 2 1 3 5
12 11 9 11 8 7 8 9 7 6 6 10 7 8 6 6 10 17 17 18 8 11 10 13 16 19 23 24 24 23 24 26 26 27 26 25 25 23 21 18 16 17 15 13 10 8 7 5 2 2 3 5 7 9
6 8 9 9 6 6 4 7 5 5 3 2 4 4 4 5 8 9 7 9 9 16 14 15 19 23 28 27 28 28 26 27 28 26 24 24 24 22 20 19 16 15 14 12 8 7 5 5 5 6 8 9 11 12
9 8 8 7 10 2 4 6 5 4 5 3 3 4 4 5 6 7 4 5 14 17 17 15 19 24 27 29 31 29 26 25 27 26 22 20 22 21 17 17 14 13 12 9 6 6 6 7 9 10 12 14 15 15
8 11 7 7 9 6 5 4 4 3 4 3 3 4 3 5 3 3 2 6 16 17 17 18 21 25 28 26 24 23 19 18 20 25 23 19 18 17 16 14 12 11 9 6 6 7 9 10 12 13 14 15 15 16
8 11 7 7 6 5 2 3 4 5 3 3 4 5 5 3 4 4 3 6 10 12 13 15 18 21 24 23 23 22 21 17 16 21 20 14 13 12 12 10 8 8 9 9 10 11 12 13 14 14 15 15 16 17
6 6 7 11 4 5 5 8 7 5 5 4 3 3 3 4 4 3 4 5 8 11 12 14 17 20 22 21 20 20 17 15 17 20 17 12 11 11 9 9 9 9 10 12 13 14 15 15 16 16 17 17 17 18
8 9 5 12 11 13 4 4 5 5 4 6 4 5 4 3 3 3 5 7 8 10 12 15 16 17 19 19 18 16 15 14 12 10 10 10 10 10 10 10 11 11 12 13 14 15 16 16 16 17 18 19 18 18
7 8 4 9 8 10 11 6 5 6 8 3 4 2 4 5 11 16 12 12 12 12 15 17 17 13 14 13 12 12 11 11 9 7 9 10 8 9 10 10 11 11 12 13 14 16 17 17 18 18 19 19 19 18
10 9 7 8 6 6 9 11 10 13 11 12 16 27 25 23 17 13 10 8 9 11 13 13 13 8 10 8 9 9 9 9 9 9 9 9 10 10 11 12 13 15 15 16 16 15 15 15 15 15 15 15 16 16
7 8 8 8 7 15 22 24 26 27 31 32 30 28 20 18 20 16 14 11 8 8 8 9 9 9 8 7 7 7 7 8 8 9 10 10 11 12 13 14 15 16 16 16 16 16 16 16 16 16 16 16 16 17
6 5 6 4 5 13 6 6 11 10 9 10 11 11 6 5 5 3 5 6 5 4 7 7 5 5 5 6 7 8 8 9 10 10 10 11 12 13 13 14 15 15 15 15 15 16 16 16 16 16 16 16 16 17
10 15 12 6 5 7 5 5 4 4 3 3 3 4 4 3 3 4 6 5 6 6 5 4 3 2 5 7 8 8 9 10 10 11 12 12 13 14 15 16 15 14 14 14 15 15 15 15 15 15 15 16 17 17

GFSWCAN_850_spd_069.txt.gz
Wind_Speed
27 20 8 16 13 26 36 46 45 43 39 63 75 77 67 64 68 60 42 31 38 4 5 5 19 19 28 30 10 10 9 8 3 4 4 4 3 5 5 3 5 7 7 4 3 2 8 11 6 9 8 6 6 14
19 17 14 15 20 28 37 39 42 40 51 67 77 72 63 61 64 56 35 34 26 20 7 5 14 19 35 36 24 28 11 10 13 4 3 3 2 1 6 11 3 4 5 5 9 7 4 28 11 25 9 7 9 16
14 15 18 21 22 28 34 36 37 39 61 72 71 65 58 58 58 51 32 32 28 17 38 29 23 19 29 46 45 14 10 14 16 11 5 3 5 5 4 5 4 4 4 3 2 5 6 13 23 12 16 17 13 18
13 15 16 21 22 19 29 33 31 60 68 70 59 55 53 55 51 45 34 28 30 10 5 12 9 24 24 40 36 44 20 16 12 16 4 3 3 7 5 3 5 3 9 6 3 4 4 13 21 20 18 16 15 18
20 14 13 17 19 21 31 48 59 61 59 56 50 50 49 50 48 39 30 28 35 13 4 7 26 14 21 27 38 44 30 23 15 3 2 3 3 3 0 1 2 6 6 5 7 13 9 9 23 24 24 23 21 24
34 39 33 37 41 49 51 55 58 58 53 49 49 49 46 42 41 33 12 24 49 21 4 2 15 12 21 29 31 41 41 24 9 7 3 4 4 5 4 5 3 16 10 10 3 5 17 14 15 21 27 25 25 27
32 31 34 40 45 46 48 49 45 45 44 42 40 40 41 40 43 21 10 12 45 29 3 3 3 6 14 24 22 22 30 25 19 9 3 4 3 5 1 4 3 8 12 13 10 8 7 13 11 21 22 23 24 23
27 31 35 36 38 39 41 41 42 42 42 42 39 37 36 33 29 15 7 14 30 18 2 3 4 0 6 7 7 14 11 13 8 7 4 3 4 2 3 4 7 6 5 5 8 10 11 12 13 21 23 24 24 23
23 26 29 32 35 37 39 41 43 43 42 43 40 36 32 26 8 8 15 21 22 11 3 4 3 1 6 2 7 6 7 2 5 3 3 7 2 5 5 10 19 19 13 7 10 8 10 14 19 22 23 23 26 25
22 20 25 31 32 35 37 40 40 39 42 40 38 13 11 16 14 34 20 6 5 8 5 2 4 2 3 2 3 3 3 3 4 3 11 3 3 7 6 10 18 17 15 16 18 15 18 18 22 22 21 22 23 26
27 28 22 24 27 32 34 35 36 39 40 18 8 5 27 27 12 4 5 6 5 3 7 6 6 3 9 3 3 4 2 1 4 3 5 2 2 2 6 12 11 10 12 16 11 10 16 17 29 29 25 21 23 27
23 24 27 28 32 32 29 31 37 35 6 8 17 30 20 7 3 3 4 3 2 4 6 4 5 5 4 4 3 3 2 1 3 5 3 3 1 8 5 1 5 9 13 12 6 9 13 18 20 21 21 23 26 28
22 23 28 31 34 32 40 36 22 20 32 24 8 6 6 3 4 4 7 3 4 4 9 6 3 4 4 3 3 2 2 1 2 2 2 2 3 3 7 9 11 11 12 14 15 16 17 19 19 20 25 27 27 29
22 25 25 27 27 30 30 21 11 13 5 4 2 3 2 4 3 3 1 4 4 5 12 13 4 3 3 2 2 2 1 1 2 2 2 2 5 8 10 13 17 17 15 17 18 18 19 22 24 24 25 27 28 26
23 24 23 23 24 24 17 10 13 8 6 3 2 2 1 1 3 2 5 6 6 15 15 8 6 4 2 3 1 2 2 2 3 2 1 5 7 9 13 13 15 17 18 20 20 21 23 23 27 30 27 25 24 23
22 23 20 19 21 16 11 7 2 5 7 4 6 2 6 2 2 6 9 12 8 10 7 4 3 3 2 2 3 4 2 3 2 2 3 6 10 13 16 17 19 21 21 21 20 22 25 28 30 29 26 22 21 17
17 12 19 18 16 13 8 6 4 5 7 5 4 14 6 9 7 7 7 6 6 3 2 2 4 4 1 4 3 3 3 2 4 9 10 11 16 19 20 21 21 20 22 24 27 28 29 29 28 27 26 20 14 13
6 10 19 21 16 12 4 2 4 4 5 9 4 12 20 17 6 14 14 14 4 4 4 3 4 6 4 3 3 2 8 15 17 18 18 18 19 21 21 25 25 27 29 30 29 28 25 22 19 17 16 15 13 11
16 16 15 12 11 9 4 3 4 4 7 3 8 11 10 11 25 21 19 19 22 15 9 7 6 4 3 5 4 6 10 13 20 25 24 22 24 26 28 30 30 30 28 26 23 22 18 15 16 15 13 11 7 4
27 26 24 19 16 4 4 4 5 7 4 5 9 18 10 10 17 23 28 27 24 10 8 5 4 6 6 10 9 13 19 22 27 29 28 27 27 28 29 28 27 25 24 22 20 18 17 16 14 10 7 5 3 3
27 22 13 15 7 8 5 4 6 5 7 7 11 10 10 19 26 19 19 20 19 9 4 9 13 11 11 12 16 17 20 23 25 29 28 29 26 26 25 24 23 22 22 20 18 16 13 13 10 8 5 4 4 4
17 16 14 9 5 4 7 10 6 5 5 9 6 8 7 5 8 17 14 19 8 10 10 12 15 17 21 23 24 25 27 29 29 30 30 28 28 27 26 23 21 22 20 18 15 13 12 10 8 6 5 5 6 7
15 8 5 5 4 5 4 7 5 5 3 3 4 4 4 5 8 9 7 9 8 15 14 15 17 23 27 26 28 29 29 29 31 30 28 29 28 26 24 22 20 18 18 17 13 11 9 8 6 6 7 8 9 10
8 6 7 6 9 2 3 6 5 5 5 3 3 3 4 5 6 7 4 5 14 15 14 15 19 25 28 31 33 30 28 29 30 29 26 24 25 24 21 20 17 16 15 12 9 8 7 7 8 9 9 10 11 12
7 10 7 7 10 6 6 4 4 3 4 4 4 4 3 5 3 4 3 5 14 16 16 16 21 25 28 27 25 24 23 23 25 29 25 21 21 20 18 16 15 14 12 8 8 9 9 10 10 11 12 13 13 14
8 13 6 6 6 5 3 4 4 5 4 4 4 4 4 3 4 4 3 5 8 10 13 17 20 24 26 25 25 24 22 20 19 23 22 17 15 14 14 12 10 11 10 10 10 10 10 11 11 12 13 14 15 15
6 5 7 10 4 4 5 7 7 6 5 4 2 3 3 4 3 3 4 6 8 10 11 14 18 21 23 23 23 22 19 17 18 20 18 13 12 11 9 9 9 9 9 10 10 11 12 13 13 14 14 14 15 15
7 10 5 11 11 13 4 4 5 5 3 5 4 4 3 2 3 3 5 8 11 14 17 20 21 22 23 22 20 17 16 15 13 12 10 10 10 9 9 10 10 11 10 11 11 12 12 13 13 14 14 14 15 15
8 7 4 8 8 10 10 5 5 4 6 3 3 2 4 5 8 13 13 12 12 14 16 17 17 14 15 14 13 12 11 10 9 6 7 9 8 9 9 9 9 9 10 10 12 12 13 13 13 14 14 14 14 15
8 8 7 7 5 6 9 9 8 11 8 8 11 22 22 20 17 14 15 14 14 15 16 15 15 10 11 9 10 9 8 8 6 7 7 8 8 8 9 9 10 10 11 11 11 11 12 11 11 11 11 12 12 13
6 9 8 8 6 14 22 25 25 26 30 33 31 27 19 17 19 15 13 12 11 11 11 11 10 9 7 6 6 6 6 7 8 8 8 8 9 9 9 10 11 11 12 12 12 12 12 12 12 12 12 13 13 14
7 6 6 4 4 10 5 7 10 11 10 11 11 11 6 5 4 4 8 9 9 8 10 9 6 5 5 5 5 6 6 6 7 7 7 8 8 9 10 11 11 11 12 11 11 11 12 12 12 12 12 13 13 14
13 15 11 7 5 5 4 4 4 4 3 3 3 3 3 3 4 5 8 9 9 9 7 5 4 2 3 4 4 5 6 6 7 7 8 9 9 10 10 11 11 11 11 11 11 11 11 11 11 12 12 12 13 14

GFSWCAN_850_spd_072.txt.gz
Wind_Speed
31 29 30 27 16 22 35 38 51 56 58 54 54 55 62 82 78 51 36 48 38 18 4 10 19 21 34 36 17 19 14 10 9 8 5 5 4 8 7 14 12 6 6 4 5 4 9 12 11 10 13 4 7 9
23 22 20 13 10 13 19 34 56 60 61 54 52 66 67 82 74 51 31 39 34 20 6 6 11 14 12 27 32 25 21 22 10 8 5 4 1 2 10 7 7 9 9 5 8 6 3 25 16 23 7 9 9 12
18 17 15 14 4 4 18 43 58 59 59 54 51 58 75 77 69 46 32 37 30 16 15 12 13 11 15 22 25 18 28 18 20 15 6 3 5 7 6 10 11 8 5 6 5 9 11 12 19 9 9 7 4 7
10 10 15 15 18 23 31 44 50 48 50 51 54 68 75 71 68 40 35 36 28 15 7 16 10 20 19 25 32 23 22 16 14 16 6 3 3 8 6 10 11 12 11 12 12 12 7 11 18 18 16 13 11 11
12 6 7 11 16 24 29 30 35 39 47 52 64 70 68 63 54 36 25 31 29 15 2 17 19 22 15 18 30 27 20 25 13 7 3 4 5 2 2 2 9 9 10 8 7 17 12 12 9 18 19 19 16 17
21 18 15 19 25 21 22 30 40 45 52 63 66 64 57 58 49 37 11 20 21 25 5 2 7 17 32 27 31 34 36 20 16 13 7 8 4 6 4 9 13 20 17 15 6 6 7 9 4 11 13 12 14 18
35 28 32 35 38 44 41 46 53 59 59 60 58 54 57 54 46 25 9 8 32 25 2 3 3 7 23 26 34 31 28 30 17 9 6 7 7 7 2 9 8 12 13 13 15 10 7 9 3 9 10 10 13 15
29 28 33 34 39 44 48 51 52 51 49 49 51 51 49 42 36 13 5 10 32 25 5 4 2 5 13 10 12 22 20 23 15 8 3 3 4 1 4 10 20 11 10 13 16 15 11 11 8 7 7 11 15 15
31 33 34 35 39 42 44 45 46 46 46 48 46 42 37 22 18 5 8 21 29 8 3 3 3 4 2 5 8 7 11 4 4 3 4 7 4 6 6 14 14 18 11 8 9 8 9 8 9 6 12 13 16 18
29 34 37 39 41 43 44 45 47 48 46 45 42 15 8 17 19 24 15 8 9 9 6 3 4 3 6 4 3 3 3 4 3 4 10 5 6 12 5 3 3 7 10 5 5 4 7 7 6 10 12 12 12 17
28 29 34 37 39 41 43 45 46 49 46 24 7 5 19 26 16 4 4 4 5 3 5 8 14 4 6 3 3 3 3 2 4 4 7 5 5 3 6 4 3 2 5 6 6 4 3 6 13 14 14 16 18 21
25 26 29 33 34 36 41 45 47 33 13 10 10 14 12 3 3 4 3 2 3 4 6 3 7 9 7 2 3 3 2 2 5 6 5 5 3 7 6 6 6 5 5 5 4 6 8 11 12 14 15 16 18 19
28 28 28 27 28 31 34 36 27 9 28 18 8 4 4 1 1 2 8 4 4 4 6 3 2 4 2 2 4 3 4 2 2 1 2 2 6 8 9 10 11 11 10 12 14 14 16 17 16 15 18 19 22 25
30 29 27 26 22 23 25 22 2 14 7 3 4 4 1 3 3 3 3 3 1 4 13 13 3 1 2 2 1 3 3 2 2 2 3 2 7 7 9 10 13 15 15 18 19 19 20 20 22 22 23 26 30 32
26 22 27 23 24 16 13 9 10 6 5 7 6 3 1 2 2 3 4 3 4 11 14 5 4 3 3 2 3 3 2 4 5 3 2 5 8 10 13 14 17 18 19 21 21 24 26 27 28 31 29 29 29 28
21 22 20 18 14 5 2 1 7 10 5 5 7 3 8 1 2 6 8 4 4 7 7 6 3 2 3 2 3 5 2 4 2 2 6 9 13 15 18 18 21 22 24 26 26 27 30 33 34 33 29 26 23 20
17 11 12 11 9 2 7 9 8 8 7 4 4 11 6 5 7 6 7 10 4 2 2 2 3 5 2 4 3 4 3 2 6 11 15 16 19 22 24 25 25 26 29 30 31 30 31 30 29 27 26 20 19 18
10 9 10 9 8 5 8 6 5 4 4 6 3 10 15 13 8 11 12 11 3 4 4 4 3 5 4 3 3 3 8 14 17 20 21 22 23 25 26 29 30 31 31 30 29 27 26 23 21 20 19 17 17 14
11 12 13 11 5 3 4 4 4 4 7 4 6 9 6 7 19 16 17 16 18 15 8 6 6 4 4 4 5 10 11 13 20 24 26 25 27 29 29 30 28 28 28 25 24 22 21 20 18 16 14 12 12 10
20 15 12 9 4 4 4 4 5 6 4 4 6 12 7 7 12 17 24 20 17 9 8 5 4 6 6 8 9 13 18 21 23 27 25 24 26 28 26 26 26 26 27 25 25 22 20 19 16 14 12 10 9 8
23 22 17 13 7 8 5 3 5 5 6 5 5 4 4 8 19 13 13 13 14 9 5 10 10 10 10 11 15 17 18 17 19 22 24 24 24 25 26 25 24 24 24 21 20 20 18 16 13 11 9 9 8 6
14 10 9 7 5 4 5 8 5 5 4 7 5 5 6 6 10 17 11 19 8 11 10 9 11 10 15 18 19 21 24 29 30 32 31 27 25 23 22 20 20 22 21 19 17 16 15 13 11 9 8 8 7 7
13 7 6 6 4 5 3 5 3 5 3 3 4 4 5 5 8 9 7 10 8 13 12 11 16 20 21 23 26 27 26 29 30 29 29 28 27 24 23 21 19 19 19 17 15 13 12 10 8 8 8 8 8 8
6 6 6 6 9 3 3 5 5 4 4 4 4 4 4 6 6 7 5 5 11 13 12 12 12 16 23 27 27 26 26 28 30 29 26 25 25 22 21 20 19 18 16 14 12 10 9 8 8 8 8 8 9 9
6 10 7 6 8 5 5 4 5 4 5 5 4 4 4 5 3 4 3 5 12 13 14 15 19 20 22 24 25 25 24 24 26 27 23 22 22 20 19 17 16 15 13 10 10 9 9 8 8 9 9 9 9 9
7 10 7 8 6 5 5 3 5 6 4 4 5 4 3 3 4 4 3 5 6 9 13 13 16 22 24 22 22 22 21 20 20 24 21 18 16 14 13 12 11 11 10 10 9 8 8 8 8 8 9 9 10 10
6 7 7 9 5 4 5 7 7 6 5 4 3 2 2 4 4 3 4 4 5 9 12 15 19 22 24 23 22 21 18 17 18 20 18 14 13 12 11 10 10 9 8 8 7 7 6 7 7 8 9 9 10 10
7 9 6 10 9 12 4 5 5 6 4 6 2 4 3 3 3 3 4 8 12 15 17 20 22 23 24 23 21 19 18 16 15 14 13 12 11 10 10 9 8 8 7 7 7 7 7 8 8 8 8 8 9 10
7 5 5 8 7 9 10 6 6 6 7 5 2 3 4 5 5 6 11 14 17 19 20 19 19 17 16 15 14 13 12 11 10 8 8 9 8 8 7 7 7 7 7 7 8 7 7 7 7 8 8 8 9 10
7 6 6 8 6 7 9 8 6 9 5 5 8 17 16 12 14 15 14 15 15 16 17 17 16 14 14 12 12 10 9 8 7 7 6 6 6 5 5 6 6 6 6 7 7 7 7 8 8 8 8 8 8 9
5 6 7 7 5 9 12 16 17 16 17 22 19 18 14 9 15 12 13 13 14 13 12 12 11 11 9 8 7 6 6 6 6 5 5 5 4 5 5 6 6 6 6 7 6 6 6 6 7 7 7 8 9 10
6 6 6 4 4 4 3 5 8 9 7 8 7 7 5 4 4 4 8 10 11 11 11 10 8 7 6 5 5 5 4 4 3 4 4 4 5 5 5 5 6 6 6 7 7 7 7 7 7 7 8 8 9 10
9 9 8 7 5 4 3 3 3 4 3 3 2 2 2 2 3 5 9 10 11 10 8 6 5 3 2 2 3 3 3 3 3 3 3 3 4 5 5 6 6 6 7 7 7 7 7 8 8 8 8 9 10 10

GFSWCAN_850_spd_075.txt.gz
Wind_Speed
43 42 31 34 35 36 35 36 43 45 46 48 48 49 47 58 70 69 46 51 43 24 8 27 10 21 26 28 16 25 18 16 10 10 8 8 8 12 14 16 19 10 8 5 8 7 9 9 8 11 15 21 8 10
38 30 28 29 31 35 33 29 29 43 46 48 50 49 44 66 67 68 40 48 40 27 8 7 7 9 20 33 32 28 32 19 14 10 7 8 5 5 12 10 15 15 9 6 8 5 9 21 15 24 17 11 8 9
32 20 21 22 26 24 29 31 30 40 44 48 52 51 48 62 67 60 46 42 29 18 9 7 11 7 15 23 26 11 31 24 26 29 8 6 7 8 7 11 11 12 15 11 16 18 16 15 15 15 8 11 8 7
24 14 14 18 25 12 14 39 41 45 48 50 52 53 54 61 66 49 42 44 30 11 4 8 17 14 8 17 28 17 17 24 16 21 8 5 5 11 10 10 12 11 9 11 14 16 18 10 14 14 14 12 12 11
30 5 6 12 25 34 27 36 43 52 52 54 50 50 57 64 52 42 36 38 30 18 6 13 12 18 16 11 27 21 21 20 18 11 4 6 10 5 6 8 10 14 15 10 8 13 17 19 13 15 15 19 14 13
25 13 11 10 20 30 47 47 50 55 51 49 49 50 65 60 49 47 17 25 25 11 4 2 5 28 21 18 16 26 28 21 22 17 11 18 20 14 5 11 14 22 20 19 15 12 6 3 6 4 9 11 13 13
25 23 17 17 19 26 33 39 44 45 46 46 54 68 66 52 42 19 8 19 26 13 2 3 3 7 27 26 21 18 25 23 17 20 12 15 18 10 6 10 11 15 19 21 16 7 10 8 3 7 4 5 8 5
26 24 26 30 33 36 37 38 42 44 46 55 66 67 55 41 26 15 13 26 30 11 5 2 3 1 11 14 14 24 20 25 10 10 6 10 9 5 8 13 24 24 14 7 9 11 10 2 2 1 0 2 6 7
25 29 34 35 37 41 47 52 58 60 61 62 57 50 42 27 9 7 9 27 18 6 6 3 2 1 7 14 18 19 22 8 9 7 5 6 6 7 7 12 16 16 23 16 7 7 4 2 3 3 3 6 8 9
27 29 31 33 38 43 45 52 56 57 57 54 46 18 7 11 13 24 16 11 7 5 6 3 2 3 4 6 5 6 9 5 4 5 12 4 6 14 6 3 5 6 4 2 5 5 4 3 4 5 6 6 9 13
29 31 32 35 38 40 44 45 46 47 43 20 6 6 21 21 16 3 5 4 5 3 6 5 13 4 7 3 2 5 4 5 7 7 8 5 6 7 4 4 4 4 3 3 0 2 3 5 8 12 13 14 15 19
28 31 34 36 39 42 45 44 25 11 10 8 16 24 20 5 4 4 4 4 4 4 7 4 7 6 4 5 3 6 3 2 5 11 5 4 4 7 5 5 6 6 7 10 11 12 13 15 14 15 16 17 18 18
27 27 30 33 36 41 34 17 14 25 28 24 8 4 4 1 3 4 5 3 3 2 4 5 3 5 5 6 2 2 6 3 4 2 2 3 8 9 9 10 13 13 14 16 17 18 18 20 17 15 18 19 21 22
22 23 26 29 36 34 16 15 20 15 7 4 3 5 2 2 2 4 2 5 4 6 5 6 1 2 4 4 4 4 2 3 4 4 3 2 6 9 10 10 13 15 16 19 21 22 23 23 25 25 25 25 27 30
26 21 21 18 16 18 6 11 11 7 7 6 4 3 4 4 7 4 3 5 2 7 10 2 3 4 1 1 3 4 3 3 5 3 3 7 10 14 16 18 20 22 24 27 28 29 30 30 31 32 30 30 31 30
24 24 19 11 7 9 10 11 5 2 4 4 7 2 8 3 4 6 11 5 7 1 3 1 1 1 3 2 3 4 2 4 3 3 10 13 17 18 20 22 25 27 30 32 32 32 33 33 34 34 32 29 26 23
13 11 9 5 2 5 5 7 4 6 4 4 5 13 11 6 9 6 8 11 10 2 1 1 4 4 1 3 3 4 4 5 10 13 16 19 21 23 25 29 30 31 33 34 33 31 32 31 30 28 28 24 21 19
10 13 7 5 2 3 9 8 6 7 7 9 5 12 13 13 11 13 14 18 6 3 4 4 4 6 5 4 4 4 10 16 17 17 19 22 24 27 28 30 31 29 29 30 29 26 25 25 24 23 21 19 18 16
8 10 8 4 6 5 5 6 6 4 8 5 5 9 8 10 15 15 17 16 15 13 6 5 6 4 4 5 7 14 14 16 21 23 28 28 30 31 31 30 30 28 27 25 25 26 24 22 21 18 16 14 15 13
12 11 8 6 7 5 4 4 5 5 4 3 6 13 9 7 11 13 20 18 16 8 7 5 5 8 8 11 12 15 17 19 24 27 26 24 25 27 26 26 27 26 27 26 24 22 21 21 19 17 15 14 12 11
12 11 11 12 11 9 5 3 5 5 5 4 6 4 5 9 20 17 16 17 14 8 4 10 11 11 12 15 19 18 16 16 19 22 24 24 23 24 25 24 23 22 22 21 21 20 19 18 15 13 13 12 11 10
7 8 5 7 5 4 6 7 6 6 4 7 4 5 5 6 9 12 11 17 8 12 9 12 13 12 17 19 19 21 25 29 29 28 27 24 24 23 21 19 20 21 20 19 17 17 16 14 13 12 11 10 9 9
8 6 5 5 4 5 3 4 3 4 2 3 3 3 4 4 5 6 6 8 9 13 12 12 17 18 21 22 25 26 26 28 28 27 27 26 25 23 21 19 17 18 18 17 15 15 14 13 12 11 10 10 9 10
5 5 6 6 9 4 3 4 4 3 4 3 3 3 4 5 5 6 4 5 10 11 12 12 11 16 20 23 23 22 21 23 26 25 23 23 23 21 19 19 18 18 16 14 13 12 12 12 11 10 10 10 9 9
5 10 7 6 8 4 4 3 5 3 4 5 3 4 3 3 3 4 3 4 11 13 12 13 15 16 19 20 20 22 21 21 24 26 20 19 19 19 18 17 17 15 12 11 12 11 11 10 9 8 8 7 8 8
7 12 7 8 5 5 5 3 4 6 3 3 4 3 3 3 4 5 3 6 7 9 11 10 12 16 18 17 18 19 17 17 19 23 18 15 13 12 12 12 12 12 11 10 9 8 7 7 6 6 7 6 6 6
6 7 8 9 5 5 5 7 8 6 5 5 3 3 2 4 4 4 5 6 5 7 10 13 15 18 19 20 20 19 17 16 18 19 17 14 13 13 12 11 10 9 8 7 6 6 5 5 4 5 4 4 6 6
8 10 6 10 9 14 4 4 5 6 4 7 3 5 3 4 4 5 5 5 7 10 14 17 20 22 22 22 21 20 19 17 16 15 14 13 12 12 10 9 8 7 6 5 5 4 4 4 4 4 4 4 5 6
8 6 5 8 7 9 10 6 6 7 7 6 2 3 4 6 7 9 8 10 12 14 17 19 19 18 17 14 13 12 11 10 8 10 9 9 7 7 7 6 6 5 5 5 5 5 4 4 4 4 4 4 5 6
7 7 6 8 5 6 8 7 9 8 5 7 11 18 18 11 11 11 10 10 11 14 15 15 14 12 12 11 11 10 9 9 10 7 6 6 4 4 4 4 4 4 4 4 4 4 5 5 4 5 5 5 5 5
5 6 7 8 6 8 11 15 16 17 17 17 14 17 13 9 10 12 13 13 14 14 13 12 11 10 9 8 7 6 7 7 6 5 5 4 4 3 3 3 2 3 3 4 3 3 4 4 4 4 5 6 6 7
7 6 5 4 5 5 2 4 7 10 10 11 10 9 8 6 4 2 9 11 8 11 10 8 8 7 7 6 6 5 4 4 3 3 3 3 2 2 2 2 3 3 4 4 4 4 4 5 5 5 6 7 8 9
10 10 9 6 4 3 2 2 3 4 4 4 3 3 3 3 3 3 10 12 11 8 8 8 7 5 4 4 3 3 3 2 2 1 2 3 3 3 3 3 3 3 4 5 5 5 6 6 6 7 9 9 11 11

GFSWCAN_850_spd_078.txt.gz
Wind_Speed
42 45 47 49 49 43 37 36 39 42 45 46 49 52 50 51 50 50 47 58 49 25 16 38 10 19 25 28 12 15 15 22 6 8 5 6 6 9 9 14 11 9 6 6 6 4 11 4 5 15 6 18 12 17
43 45 47 44 33 31 34 35 35 38 41 44 45 48 52 49 50 47 37 55 52 33 9 10 33 19 22 24 22 21 25 16 13 9 7 4 6 6 10 8 12 8 10 5 6 5 4 10 13 17 14 10 13 8
38 43 39 26 27 32 34 35 33 39 39 42 45 45 52 50 50 50 37 52 42 22 11 10 16 13 10 15 20 14 23 30 29 18 6 5 5 7 4 9 12 12 17 9 7 9 11 12 20 21 12 10 6 5
39 29 19 21 31 42 41 43 37 34 35 40 44 44 46 47 47 51 37 52 32 11 5 10 8 14 9 15 11 16 15 18 6 20 13 5 4 10 8 8 10 7 6 10 10 9 16 19 26 21 12 7 8 8
25 19 17 25 26 21 11 28 36 31 35 41 43 45 45 47 43 46 40 49 38 16 6 5 21 19 12 7 8 13 13 13 6 5 4 7 6 5 5 9 10 10 12 6 2 7 8 10 16 10 12 20 28 15
27 15 13 23 20 25 37 35 33 36 40 42 43 41 45 43 58 47 14 39 33 22 8 5 5 14 18 15 12 13 22 19 9 6 6 11 18 12 2 4 8 15 15 15 7 7 4 3 3 3 5 2 4 9
25 19 20 27 25 28 31 36 35 38 38 41 44 42 63 57 48 30 11 33 32 15 4 3 2 5 20 18 17 12 12 11 15 8 5 8 13 9 2 6 10 17 17 20 19 18 5 3 4 3 1 3 3 1
26 22 23 27 29 36 42 45 45 44 48 51 63 59 51 42 33 23 14 38 27 12 3 3 2 2 2 15 11 16 7 5 8 5 6 6 6 6 6 11 22 24 24 15 3 2 3 3 3 3 2 4 7 9
24 26 27 31 33 39 44 49 51 61 67 65 57 48 43 30 14 19 35 22 14 7 5 2 3 2 3 4 12 11 9 2 4 3 3 5 5 7 8 15 20 22 26 28 18 8 5 5 5 4 5 8 11 11
30 27 28 34 38 38 42 48 55 62 56 51 41 20 8 16 39 36 12 5 3 3 5 3 5 3 4 2 2 6 9 5 4 6 3 3 5 16 11 4 6 2 7 6 11 7 6 7 7 7 9 9 13 17
34 38 40 48 54 51 57 58 55 47 42 22 6 8 42 29 9 5 5 4 4 3 7 7 10 5 7 2 1 8 4 3 2 4 5 5 5 3 4 8 8 11 12 11 12 11 9 12 14 16 18 20 21 22
28 31 38 47 45 39 41 37 25 20 10 11 20 26 16 4 3 2 4 4 4 6 8 6 8 9 8 8 6 4 3 2 6 12 5 3 4 8 9 10 12 15 16 17 17 18 18 20 18 17 19 20 19 18
28 32 39 32 32 27 26 29 33 32 30 22 9 5 3 2 3 5 6 4 3 5 8 8 5 9 6 9 3 2 5 4 4 4 3 3 8 11 13 14 19 19 18 17 18 18 18 21 20 19 23 20 20 23
25 32 27 27 31 25 27 25 21 17 9 6 3 4 1 2 1 3 4 3 4 5 13 12 4 3 5 4 2 4 2 2 3 5 3 2 8 9 10 11 13 17 15 20 22 22 24 26 29 28 27 25 26 27
20 21 19 16 20 23 12 11 10 8 5 5 5 4 4 4 7 7 6 3 8 2 3 5 4 6 3 3 2 2 4 4 4 4 3 10 13 15 17 19 24 27 29 31 31 32 34 34 34 34 30 29 30 31
19 17 11 6 5 16 14 2 9 11 5 5 8 3 10 2 5 7 12 6 11 4 2 0 1 2 2 0 1 5 3 5 3 4 11 15 18 20 24 29 32 33 35 37 36 37 37 38 39 39 36 33 31 29
9 9 7 4 5 7 6 8 3 7 6 5 5 13 10 5 11 7 8 10 14 4 1 1 3 4 1 3 3 5 4 5 12 15 18 21 24 28 32 34 36 37 38 38 38 38 38 36 35 34 33 28 26 24
6 6 5 3 3 2 7 7 5 6 6 8 5 10 17 14 10 11 14 22 13 5 4 4 6 7 6 5 3 3 11 19 20 22 24 26 29 31 34 36 34 35 37 36 35 33 32 30 31 29 26 22 22 20
7 5 2 2 2 3 4 6 6 4 8 5 10 8 7 10 14 15 16 16 15 15 7 5 6 5 4 4 8 13 15 18 23 26 29 30 31 33 35 35 34 34 34 33 32 31 29 28 26 23 21 20 20 16
3 1 2 2 3 4 5 5 5 6 3 4 6 12 7 8 12 16 22 20 19 9 7 5 5 5 9 12 18 21 24 26 28 29 29 30 29 31 31 32 33 32 32 30 28 27 26 25 22 20 17 15 16 18
7 7 12 14 14 10 6 4 5 5 7 5 4 6 7 14 22 20 18 18 17 8 4 10 12 15 20 22 18 19 20 20 23 26 28 29 28 30 29 27 27 27 27 25 25 23 21 20 16 15 16 16 14 13
5 5 7 9 6 6 7 8 5 4 4 6 4 5 5 6 9 12 15 17 8 13 9 13 14 15 22 27 29 28 28 29 31 31 29 27 28 26 25 24 25 25 23 21 21 20 19 16 14 13 12 12 10 11
7 6 6 7 6 6 4 6 4 6 3 3 3 4 4 4 6 8 7 9 9 16 12 17 18 21 24 24 27 28 28 30 32 30 30 29 28 27 25 23 21 22 22 19 16 17 17 14 13 13 12 10 9 9
4 6 7 6 9 3 4 5 5 4 4 3 3 4 4 5 5 6 4 5 12 12 16 11 13 18 22 24 24 24 22 26 28 27 24 27 28 24 22 22 20 19 17 15 14 14 13 13 11 10 10 10 9 8
6 10 7 7 8 5 4 4 6 4 5 6 3 4 3 3 3 4 3 5 12 14 12 16 16 17 19 21 24 24 21 22 26 28 22 21 22 21 21 20 18 16 12 13 12 11 10 9 8 9 9 11 9 8
7 11 7 8 7 5 6 4 5 7 4 3 5 3 4 3 4 5 3 8 9 12 12 10 12 16 19 18 19 21 19 20 24 28 23 17 13 13 14 14 14 14 13 9 8 8 8 8 9 8 7 7 7 7
6 7 9 10 6 6 5 7 9 6 6 6 4 5 3 4 4 4 6 9 8 9 11 12 14 16 18 20 19 18 16 16 17 19 17 14 14 14 13 13 12 10 9 9 9 7 6 6 7 7 5 5 6 6
8 10 6 10 10 13 4 4 5 6 5 8 4 6 4 6 4 6 5 4 7 9 15 19 20 21 22 22 22 21 20 18 17 16 15 15 15 13 12 12 10 8 6 6 6 6 6 6 5 5 4 4 4 4
8 6 5 7 7 9 10 5 6 6 8 8 3 3 4 5 10 10 10 12 12 13 16 18 18 17 17 16 16 16 14 10 8 9 10 10 9 9 8 7 7 6 6 6 5 5 5 4 4 3 2 3 4 4
8 6 6 9 5 6 7 7 10 8 10 9 11 17 17 13 13 11 11 11 13 15 15 15 13 13 13 11 11 11 11 10 11 8 7 6 6 5 5 5 4 4 4 4 4 4 3 3 3 4 3 3 3 3
5 6 6 8 5 9 11 15 16 15 14 14 13 15 12 8 12 13 14 11 12 12 12 13 14 14 11 9 7 6 8 8 7 6 5 5 4 3 3 2 2 2 3 2 2 2 2 2 2 2 4 5 6 7
8 6 5 4 5 4 3 2 5 9 7 9 10 10 8 6 5 2 9 9 6 8 8 8 9 8 7 7 6 6 5 5 4 4 3 3 2 2 1 1 1 1 1 1 2 2 2 2 3 4 5 7 8 9
10 10 9 8 5 4 2 2 3 3 4 4 3 4 5 4 4 3 9 10 8 6 6 7 7 5 5 5 4 4 4 3 3 2 2 3 2 2 2 1 1 1 1 2 3 3 4 4 5 6 8 9 10 11

GFSWCAN_850_spd_084.txt.gz
Wind_Speed
35 37 39 40 40 42 43 45 45 45 46 46 46 45 43 43 41 41 36 31 35 9 5 29 38 23 16 24 10 5 6 5 3 5 5 4 3 6 5 5 9 3 4 3 2 3 6 4 8 6 5 4 5 5
38 38 38 38 39 41 44 44 45 45 45 45 47 45 44 44 46 43 35 40 32 19 10 17 39 43 40 30 20 20 7 5 11 3 1 3 4 1 5 4 10 5 7 5 9 7 10 8 5 2 3 3 7 11
36 35 39 38 40 41 42 42 43 42 43 48 47 48 48 45 44 48 41 36 37 19 20 33 18 44 38 36 22 8 5 15 8 10 4 3 5 4 4 6 3 4 6 4 3 6 9 17 12 14 11 5 6 6
34 36 34 33 32 32 34 37 39 39 37 43 51 45 48 46 47 45 40 39 39 13 4 12 26 34 42 32 34 27 17 20 14 13 4 3 3 4 5 4 5 7 6 6 4 7 6 12 21 19 21 20 13 2
31 25 26 27 25 26 31 35 36 34 34 35 44 42 43 46 48 46 41 35 40 27 8 8 28 21 37 40 35 22 20 22 15 2 2 3 3 2 3 0 9 5 5 4 5 13 6 13 27 16 23 23 16 14
17 20 16 17 18 22 20 19 30 34 31 31 36 37 41 45 48 43 16 36 42 41 6 4 15 25 26 26 29 19 24 19 9 6 3 3 4 6 3 3 6 18 18 15 5 11 11 12 12 8 17 16 16 16
16 13 11 15 15 14 22 27 31 35 33 32 34 33 36 43 53 40 12 15 47 40 9 3 2 13 29 23 20 17 16 11 8 7 3 4 2 2 3 7 13 19 9 7 11 10 9 12 5 9 12 13 10 10
13 18 17 18 20 24 26 34 31 32 32 29 33 33 39 49 42 28 5 8 44 27 7 1 3 5 17 8 7 11 7 6 6 5 3 3 3 5 5 7 23 31 36 23 16 6 7 15 14 15 15 14 16 21
21 24 24 25 26 28 30 29 31 34 34 35 35 42 47 33 18 23 9 29 41 11 4 2 4 3 8 5 6 4 5 1 2 2 3 6 3 6 5 4 16 22 30 18 9 12 19 19 20 17 15 15 19 23
39 37 37 33 32 37 33 34 40 45 49 60 48 20 8 12 29 36 19 6 8 7 4 2 5 4 5 3 2 3 2 2 2 5 6 3 4 14 9 7 15 14 16 13 18 17 23 23 21 19 17 19 21 24
33 37 41 48 47 44 41 49 53 49 45 13 6 8 29 42 23 5 4 2 4 1 2 4 5 5 5 4 3 1 2 1 3 4 7 4 3 1 11 10 13 5 5 11 19 25 20 22 23 22 22 22 23 25
29 27 33 29 27 26 25 27 26 15 14 20 24 24 13 5 4 4 2 1 2 4 4 4 6 7 6 5 3 4 3 3 6 3 4 4 3 8 15 16 8 10 14 21 25 26 24 23 22 24 26 27 27 28
27 28 24 25 27 28 26 32 38 25 19 16 8 6 3 4 7 5 3 1 1 1 7 7 4 5 4 3 3 2 4 6 2 3 2 2 7 10 12 14 17 15 18 22 26 26 25 27 25 26 30 30 31 33
22 23 21 22 24 23 20 5 7 9 5 6 4 5 4 4 4 3 3 2 3 6 14 17 5 3 4 2 2 4 5 2 5 5 4 3 8 9 14 18 18 22 21 19 25 28 29 30 31 31 32 32 32 33
18 16 16 18 14 11 8 6 1 2 6 7 7 5 4 4 7 7 7 5 11 7 8 7 5 4 1 2 4 4 4 2 0 2 2 7 11 15 19 21 23 26 28 28 28 31 33 34 35 36 33 32 33 34
9 12 14 12 8 5 5 7 11 9 6 6 10 4 8 3 6 9 15 8 14 7 4 4 2 3 4 1 2 4 3 2 1 2 8 12 15 19 21 21 22 25 27 31 32 35 38 39 42 43 40 38 36 34
7 12 14 10 9 6 2 5 8 9 7 6 5 14 7 5 6 8 12 14 12 7 2 2 3 3 3 3 3 3 2 2 5 10 15 17 22 25 27 28 30 32 35 37 40 41 43 42 42 41 39 34 32 30
10 11 10 7 4 12 16 11 8 8 7 12 5 11 18 16 14 13 15 17 6 3 4 3 5 5 3 3 2 2 8 17 19 19 23 26 30 31 33 36 38 41 41 40 42 42 40 39 38 36 34 30 29 27
8 9 9 9 10 6 6 7 7 5 10 5 7 9 11 13 20 17 15 12 17 14 8 5 4 3 3 2 5 10 13 18 23 27 31 31 32 34 35 39 39 39 39 37 37 36 35 33 33 30 28 26 28 24
10 6 7 7 6 6 6 6 6 8 3 7 15 18 11 10 18 21 23 21 19 8 6 4 3 5 3 16 22 23 23 27 31 31 29 31 33 36 36 38 38 37 36 34 33 31 30 29 25 25 24 23 23 21
4 7 10 14 17 11 7 5 7 6 10 6 12 9 9 22 29 28 25 20 15 7 3 11 13 21 23 26 27 28 26 27 25 27 29 32 31 34 34 33 33 32 33 31 30 29 27 27 24 20 20 20 19 17
11 10 11 9 6 6 7 8 7 7 5 9 6 6 5 3 7 16 21 19 9 12 11 16 19 23 27 27 26 25 27 29 30 31 31 31 31 30 29 29 29 30 29 28 26 26 24 22 19 17 17 18 16 16
8 10 8 9 6 6 4 5 4 4 3 3 3 3 3 4 5 8 6 11 10 17 16 20 23 26 29 27 28 27 26 28 29 27 26 28 27 26 26 26 25 27 27 24 22 22 22 19 17 16 15 15 14 15
6 7 8 8 12 3 4 6 6 5 6 3 3 3 3 5 6 6 3 6 17 15 13 13 17 22 24 25 25 24 23 25 28 27 26 27 28 25 24 23 21 21 20 20 19 19 18 17 16 14 13 13 12 12
6 12 8 7 11 6 6 4 5 4 4 5 3 3 3 5 3 3 3 7 18 16 11 10 15 21 24 23 22 22 22 23 26 27 23 23 25 25 23 21 20 17 15 16 17 16 15 13 12 11 11 10 10 10
8 12 7 6 7 5 4 4 5 6 4 4 4 6 4 3 4 4 3 7 10 10 8 9 14 18 19 19 20 19 19 18 22 26 22 18 18 19 21 21 20 17 13 10 11 12 13 12 10 9 8 7 7 7
6 5 8 11 5 5 5 9 8 5 5 5 3 5 3 4 3 3 2 5 5 5 4 7 11 16 19 19 19 18 16 14 17 20 18 14 14 13 12 14 15 15 12 10 10 9 9 10 10 9 8 7 5 3
8 10 5 13 10 16 4 4 5 5 3 9 4 6 3 3 2 3 2 2 4 8 14 16 16 17 18 18 18 17 17 14 14 14 15 16 15 13 11 11 10 10 8 7 6 7 7 8 8 7 7 6 4 3
6 5 5 7 7 9 11 4 5 8 9 4 3 2 3 5 6 9 9 8 8 11 14 16 15 15 16 15 15 15 14 11 10 11 11 15 13 11 10 8 8 8 7 6 8 7 6 5 5 4 4 3 2 2
7 6 6 7 5 5 8 7 7 8 11 13 14 23 21 20 16 11 9 9 10 10 9 10 10 9 10 9 10 9 7 6 5 3 6 7 8 8 7 7 7 6 6 5 5 5 5 4 4 3 2 2 1 1
5 6 7 7 5 10 18 20 22 20 22 25 25 25 18 16 17 12 10 7 5 6 7 8 9 9 8 9 7 4 5 5 5 5 5 6 6 6 5 3 3 4 5 5 4 4 3 3 3 3 2 2 3 4
6 5 6 4 4 11 9 4 8 16 12 11 8 10 6 4 4 3 4 3 3 5 5 5 4 6 6 5 4 4 5 5 5 5 4 4 2 2 2 3 3 3 3 2 2 2 2 1 2 2 2 2 3 4
18 16 12 7 5 6 4 4 3 4 3 2 3 3 4 3 3 3 6 3 2 2 4 4 6 6 4 4 4 4 4 4 3 3 3 2 2 2 3 3 3 2 2 1 2 2 3 3 3 4 3 3 5 6

GFSWCAN_850_spd_087.txt.gz
Wind_Speed
32 32 34 37 39 39 38 38 38 37 37 36 34 33 33 33 36 43 42 28 45 13 11 30 34 20 21 25 5 6 3 3 4 5 4 4 3 4 6 3 4 4 4 2 3 2 6 6 3 2 5 17 11 6
33 37 39 38 37 38 38 37 39 41 42 42 42 40 37 36 34 34 26 41 38 19 7 25 30 34 34 37 26 13 6 3 10 3 2 2 2 1 4 5 5 3 6 6 9 6 6 13 5 6 12 3 2 12
36 37 38 36 37 39 39 39 40 41 41 40 42 43 44 42 39 39 34 26 37 15 9 15 20 27 40 34 27 17 15 22 11 12 2 3 4 5 4 5 10 5 5 3 2 9 16 21 18 14 19 18 13 14
35 33 34 35 33 34 36 37 39 41 41 42 41 44 42 44 43 43 41 36 34 7 2 8 12 34 22 40 33 32 29 16 13 11 5 3 2 4 4 5 5 6 6 7 6 7 12 26 26 20 20 19 18 19
30 26 26 27 26 29 33 36 37 37 38 44 45 44 45 43 46 40 43 32 40 26 6 7 20 22 37 26 35 34 27 22 20 7 2 4 3 2 2 2 4 5 6 4 6 13 5 13 19 9 19 18 25 16
20 22 19 19 23 26 25 31 38 41 36 36 42 41 41 41 44 39 9 24 38 34 5 2 8 22 30 26 33 31 28 25 21 4 5 9 7 5 2 4 5 23 23 16 4 19 22 31 22 10 15 9 11 16
9 12 10 12 10 11 14 9 15 36 37 33 37 41 43 44 47 37 9 10 46 35 5 2 4 11 29 28 28 22 19 14 11 5 6 4 3 7 2 4 6 18 19 18 21 22 18 20 7 6 8 6 5 12
8 10 9 9 13 16 18 22 26 29 29 31 38 43 44 49 43 22 5 9 46 20 5 3 4 5 21 7 7 20 13 8 13 8 5 3 2 3 5 5 21 28 27 28 28 22 23 21 8 8 9 5 14 11
16 17 19 16 15 18 23 28 31 35 37 41 45 43 46 33 16 18 4 30 32 11 5 5 3 3 13 5 7 9 9 2 3 2 2 6 3 5 6 8 8 8 4 11 15 15 9 13 12 11 10 14 14 20
24 22 22 23 22 27 27 27 33 36 41 45 47 19 10 20 33 29 18 9 8 6 4 2 1 2 10 4 4 3 3 3 3 4 5 3 4 12 15 15 13 10 7 7 13 13 16 16 15 13 13 16 17 22
27 29 35 30 30 32 31 35 40 42 36 12 7 12 48 38 28 4 4 4 5 3 6 4 8 3 4 3 2 2 2 2 3 4 5 3 3 3 13 18 15 12 8 5 15 21 23 21 22 20 20 21 23 25
26 28 29 36 34 35 32 24 19 17 13 20 26 32 20 7 5 4 2 2 3 5 6 4 5 6 4 4 4 1 3 2 4 4 3 4 2 6 7 7 7 7 10 4 6 14 21 23 22 24 26 28 29 31
12 26 29 29 31 20 20 26 31 35 32 26 9 5 4 2 3 4 4 2 1 1 7 7 4 5 4 4 3 3 4 5 3 3 4 2 4 7 8 8 10 10 12 16 14 19 23 26 26 28 32 32 34 37
15 19 22 25 19 12 16 21 15 5 4 4 4 5 3 4 4 3 3 2 3 2 14 14 5 3 4 2 3 4 4 1 3 4 4 2 8 8 8 10 14 19 22 23 25 25 28 31 34 33 33 35 36 37
16 16 13 14 9 7 4 4 10 6 7 7 7 5 5 3 6 7 6 5 9 4 7 7 6 3 1 3 2 3 3 5 2 1 2 5 9 12 14 15 16 24 28 29 27 30 33 34 35 37 35 35 35 36
7 10 11 6 5 5 4 6 5 9 7 7 10 4 7 3 6 9 15 8 15 6 6 4 2 2 1 2 2 1 1 3 1 1 3 9 14 15 17 17 21 25 28 31 32 34 36 38 39 40 39 38 37 37
6 9 7 7 6 5 3 5 7 9 7 6 5 14 6 4 5 8 12 15 13 5 2 2 3 2 2 3 2 2 1 1 2 7 9 12 16 18 20 22 24 28 32 34 36 35 39 41 41 41 42 37 36 33
10 10 8 4 1 5 18 10 7 8 7 10 5 11 17 13 13 13 14 18 10 4 3 3 4 5 3 3 1 1 5 13 15 17 18 18 19 22 24 27 29 33 38 39 40 41 42 42 41 39 37 35 34 31
9 8 8 8 6 5 6 7 8 5 10 5 8 10 10 16 20 17 14 11 17 13 7 5 5 3 2 2 4 9 12 15 20 24 25 26 30 33 35 35 35 36 38 39 39 39 38 37 37 35 33 30 30 27
8 9 9 7 4 6 6 6 6 8 4 6 9 18 13 12 19 21 23 21 18 8 6 4 3 6 4 9 16 20 20 23 27 26 25 29 30 33 34 36 37 38 38 36 36 35 34 32 28 27 26 25 25 24
7 9 11 16 20 12 7 5 7 7 9 6 12 9 8 18 28 26 21 18 15 7 3 10 15 17 18 19 21 23 22 23 23 25 25 28 28 31 33 33 34 34 34 32 31 29 27 27 25 23 21 22 21 21
9 7 10 12 8 6 8 9 9 8 6 8 6 5 5 4 8 16 17 17 8 11 11 15 16 18 22 21 19 19 20 23 25 27 28 29 30 29 29 28 29 30 29 28 27 27 26 24 22 20 18 19 17 16
11 11 9 9 6 6 4 4 4 3 2 3 4 3 4 4 6 9 6 10 9 15 13 17 18 20 22 20 20 20 20 23 25 24 24 25 25 25 25 25 25 26 26 23 21 22 22 19 17 16 16 16 15 16
6 7 8 6 9 3 5 6 6 5 5 3 2 3 4 4 5 6 3 5 15 18 15 11 12 16 18 19 21 20 19 20 23 23 22 23 24 23 21 21 20 19 19 20 18 18 18 17 15 14 14 14 13 13
7 11 8 7 10 5 5 4 5 4 4 4 3 4 3 5 3 3 2 8 18 19 14 10 10 14 19 18 17 17 16 18 21 23 20 20 22 22 21 20 19 18 14 14 16 15 15 14 13 13 13 11 12 12
8 12 7 7 7 5 5 4 5 5 4 4 5 5 5 3 4 4 3 11 12 14 12 9 11 13 15 14 15 14 15 14 17 22 20 17 17 17 19 19 18 16 12 7 9 11 13 12 11 11 12 12 11 9
7 5 8 10 5 4 6 8 8 5 5 5 3 4 3 5 3 3 4 10 8 8 5 6 9 13 15 16 16 15 13 12 15 19 17 14 13 12 10 11 12 13 12 9 8 6 7 9 10 9 9 9 8 6
8 10 5 12 10 14 4 4 4 4 3 7 4 5 3 3 2 3 3 4 5 4 5 7 9 12 15 15 15 15 15 14 15 14 12 12 12 11 10 10 11 12 10 10 8 8 7 6 6 6 6 5 4 3
8 5 5 7 7 9 9 3 4 6 7 4 3 2 3 4 5 6 6 5 7 9 12 14 14 12 13 13 13 13 14 12 8 8 8 11 10 9 8 6 6 7 7 7 9 9 7 7 6 5 4 3 2 3
6 7 6 6 5 5 9 9 7 10 12 13 15 22 22 19 12 9 8 6 6 7 9 10 10 8 10 9 10 10 9 7 6 5 3 5 6 7 7 6 5 5 5 5 4 4 4 4 4 4 4 4 4 4
6 7 7 8 6 13 20 20 20 21 24 24 24 23 15 12 15 12 10 8 7 7 6 7 7 7 7 8 8 6 5 5 5 5 5 5 6 6 6 5 4 4 4 3 3 2 2 2 3 3 3 3 3 4
6 6 6 4 3 11 6 6 8 16 9 8 6 5 5 3 4 4 7 7 3 3 5 5 4 6 7 6 6 5 5 6 6 5 5 4 4 2 2 2 3 3 3 3 3 3 4 4 4 4 4 4 6 7
16 16 12 7 5 6 6 3 3 3 3 2 3 3 3 3 3 3 4 4 5 5 4 5 7 7 5 5 5 4 4 4 3 3 2 1 1 1 2 2 2 3 2 2 2 2 3 4 4 4 4 5 6 7

GFSWCAN_850_spd_090.txt.gz
Wind_Speed
43 41 38 36 33 32 33 33 33 32 32 30 34 37 39 40 41 43 47 41 45 14 15 25 31 22 22 26 9 6 4 4 6 5 3 4 4 5 4 7 4 4 2 5 6 5 5 8 4 2 4 14 7 14
36 33 32 33 35 37 38 36 35 34 33 34 34 32 33 34 36 38 38 40 39 27 5 25 29 36 35 36 32 20 10 4 6 3 3 2 3 0 6 3 4 3 5 3 6 5 7 5 8 19 18 12 16 21
33 33 36 37 39 39 38 36 35 34 33 35 37 38 35 31 31 33 37 27 37 24 8 18 25 32 37 35 36 19 24 18 12 11 1 3 4 4 3 5 6 5 4 4 1 7 14 17 15 19 22 17 16 20
38 37 36 36 36 35 35 37 37 37 37 36 36 38 41 38 34 33 34 29 37 8 3 4 21 29 37 40 36 36 26 18 24 12 6 3 2 4 4 5 5 6 1 1 6 14 18 15 11 18 9 3 12 10
33 29 26 27 31 31 30 30 30 34 37 42 41 39 38 42 39 34 35 26 30 17 4 4 15 18 32 38 43 40 32 23 20 3 3 3 3 3 3 0 4 5 7 3 5 11 8 14 21 22 14 11 7 13
23 21 19 20 21 22 26 30 32 35 37 35 40 40 40 39 39 35 16 30 28 28 4 2 5 12 29 39 39 32 39 28 13 8 4 6 13 5 3 3 6 22 28 23 12 19 21 26 14 9 4 2 9 10
15 14 14 12 12 13 17 21 26 34 39 40 37 42 42 39 42 34 8 9 35 31 6 1 3 8 21 29 30 27 29 27 19 4 3 6 6 12 3 8 6 17 19 17 19 24 20 18 12 10 1 5 8 14
8 9 5 3 8 13 16 11 10 22 38 40 36 42 42 39 40 27 9 14 34 18 7 2 4 3 15 10 12 21 15 21 12 6 6 3 5 4 4 5 22 28 29 28 26 24 22 22 13 6 10 15 13 20
12 9 7 8 12 15 20 11 19 29 40 37 40 41 49 34 17 16 12 34 30 9 7 5 3 1 10 6 8 9 8 3 8 4 4 5 3 6 7 14 22 24 19 16 9 14 15 13 11 11 12 14 14 14
16 16 19 16 22 24 27 27 31 36 40 43 54 28 9 20 38 41 19 5 6 5 4 2 7 3 2 3 3 3 6 3 4 4 8 4 4 12 16 21 18 18 16 13 10 15 15 16 15 15 12 11 15 18
21 24 23 24 27 25 27 40 40 49 45 21 8 18 50 44 15 6 6 5 5 3 7 8 13 4 13 3 3 3 2 3 3 3 5 3 4 5 18 22 20 15 11 10 12 18 18 19 18 17 17 17 20 23
22 25 26 24 31 29 29 25 18 23 25 37 33 35 18 6 4 4 2 3 4 5 6 4 5 7 6 6 3 4 2 3 4 6 3 4 2 3 3 4 9 8 8 8 9 9 12 16 17 20 23 26 27 28
19 15 15 15 23 30 35 35 36 45 40 27 12 6 2 2 4 5 5 2 2 2 7 6 4 8 7 4 2 2 3 3 5 3 4 2 3 2 1 2 5 5 6 6 5 8 14 20 21 23 30 31 34 37
18 14 13 20 25 26 20 20 18 6 5 8 5 5 4 4 4 3 3 2 2 1 10 10 3 2 2 2 2 3 3 2 3 3 3 2 3 0 3 4 6 6 7 9 12 15 19 26 29 29 32 35 40 41
14 8 9 17 14 14 13 12 1 2 7 6 6 4 4 3 6 8 5 3 6 4 8 6 5 3 2 3 1 3 2 3 2 3 2 6 2 1 3 6 10 14 16 17 19 24 28 32 35 37 37 37 38 41
10 8 9 5 8 3 4 6 8 9 7 6 9 4 8 3 6 9 13 8 11 3 5 3 3 3 2 2 2 1 1 3 2 2 4 1 3 6 7 9 12 16 20 23 26 30 33 36 37 39 38 37 36 37
5 4 6 6 10 12 5 5 7 9 7 6 5 13 6 4 3 6 10 14 10 5 2 2 3 0 1 3 2 3 2 2 2 5 4 3 6 10 12 15 19 22 25 28 31 34 38 41 41 42 44 40 39 37
8 6 5 5 3 6 19 11 8 8 7 11 5 10 12 11 11 11 13 17 9 4 4 3 3 4 3 2 2 1 6 11 9 10 11 9 11 13 17 22 25 28 31 32 35 37 38 41 43 43 41 38 37 34
8 7 6 5 2 4 6 7 8 6 9 6 8 9 8 11 18 16 13 11 16 12 7 5 5 3 2 2 2 7 8 9 15 19 19 18 20 22 25 27 29 32 35 36 36 37 37 38 39 38 37 34 34 30
9 9 6 4 4 6 6 6 6 8 4 6 6 15 13 10 17 19 22 20 17 8 6 5 4 7 5 8 5 11 14 18 21 23 21 23 25 27 28 29 31 33 36 36 36 36 36 35 33 31 30 28 28 28
9 9 10 14 17 12 7 5 7 7 10 6 8 6 8 18 27 21 19 17 14 8 3 10 15 15 11 10 10 12 14 15 16 20 21 23 23 25 28 30 32 34 34 33 33 32 30 30 27 25 24 25 24 23
8 10 11 11 7 6 8 9 9 8 5 8 5 6 6 4 7 14 16 17 8 10 10 15 16 13 14 14 13 11 11 14 18 20 21 21 24 25 25 26 29 30 29 29 28 27 27 25 23 22 22 24 21 21
9 9 9 9 7 6 4 4 4 3 2 3 4 3 4 4 6 7 6 9 10 17 15 12 12 13 16 13 12 13 13 16 19 20 21 23 24 23 24 25 25 27 27 25 23 24 24 22 20 19 19 20 20 20
9 7 8 7 10 3 4 6 6 5 5 3 3 3 3 4 5 6 3 5 14 20 19 12 8 12 14 16 18 17 15 16 19 19 19 21 22 22 22 22 21 20 20 22 21 21 20 19 17 16 16 16 16 16
7 11 8 7 10 5 5 4 5 4 4 6 4 4 4 4 3 3 2 8 18 20 18 14 13 14 17 16 15 14 12 14 18 20 18 18 21 21 21 20 20 19 16 15 17 17 17 16 15 15 15 13 13 13
8 12 7 6 6 5 4 3 4 5 3 4 5 4 4 3 4 4 3 11 12 15 14 12 10 12 14 13 13 13 13 12 15 20 19 17 17 17 19 20 19 18 13 9 11 13 15 14 13 13 13 13 11 9
6 6 7 10 4 4 5 8 7 5 5 5 3 4 3 5 4 3 4 10 8 9 9 8 8 11 14 14 15 14 12 11 14 20 19 16 15 13 10 11 13 15 14 11 9 8 9 11 11 11 11 11 10 8
7 9 5 11 10 13 4 4 4 4 3 6 3 5 3 2 2 3 5 8 8 6 7 10 12 13 14 15 16 15 16 16 16 16 15 14 13 12 12 11 11 12 11 11 9 9 9 8 8 8 8 6 5 4
9 5 4 7 7 10 10 4 4 6 7 4 3 2 3 4 6 5 6 7 8 10 13 13 14 12 13 12 12 13 14 13 10 9 9 12 10 10 10 8 8 8 8 8 9 9 8 8 7 6 5 3 2 2
7 8 7 7 5 5 9 9 9 11 11 12 12 20 20 16 12 8 7 7 7 9 10 10 10 8 10 9 10 10 10 9 9 8 6 7 8 8 8 7 6 6 6 5 4 4 4 4 4 4 4 4 3 3
6 6 7 8 6 13 20 21 21 22 25 26 24 22 14 10 14 12 12 12 10 8 6 7 7 8 8 8 9 9 9 9 7 7 7 6 5 5 5 4 4 4 4 4 3 3 3 3 3 2 3 3 3 4
7 6 6 4 4 7 5 5 6 7 5 4 5 4 3 3 4 4 9 8 6 5 7 7 5 7 8 9 9 8 7 7 6 5 5 4 3 3 3 2 2 2 2 2 2 2 2 2 2 2 3 4 5 5
13 15 11 7 4 4 4 3 3 3 3 3 4 4 4 3 4 3 4 6 7 7 6 7 7 6 6 6 5 5 5 5 4 4 3 2 1 1 1 1 2 2 2 2 2 2 3 3 4 4 5 5 6 7

GFSWCAN_850_spd_093.txt.gz
Wind_Speed
44 43 41 40 38 36 36 36 37 38 38 39 40 42 44 46 46 46 46 42 46 28 23 23 31 26 17 21 8 3 7 7 3 5 5 4 5 6 5 8 4 4 6 5 8 6 10 3 2 3 6 20 22 17
40 37 35 33 31 29 28 28 29 30 31 31 32 34 34 40 43 43 40 41 46 33 8 24 27 30 32 29 27 20 8 4 4 3 3 2 4 2 7 5 4 5 7 3 6 5 11 23 13 21 19 15 24 12
38 37 36 35 34 33 34 34 35 35 34 31 29 28 29 31 36 40 39 33 37 32 14 20 19 27 35 34 32 18 20 20 10 11 3 2 4 2 5 7 5 5 4 5 3 2 10 24 31 21 20 21 7 8
35 38 40 40 39 36 35 35 35 35 35 33 30 30 30 28 27 35 38 34 37 8 5 6 25 34 34 38 39 35 27 20 25 17 5 3 2 4 3 5 6 7 2 2 6 9 9 7 14 27 33 18 9 3
35 29 25 24 27 28 29 31 33 35 34 34 33 31 31 34 28 25 33 29 40 25 3 5 13 22 35 34 38 37 34 25 15 7 3 5 3 3 3 2 4 5 11 5 7 13 12 17 22 27 21 11 5 5
26 24 18 14 18 20 23 23 25 27 34 33 34 36 33 32 33 30 12 25 39 20 5 2 6 14 21 34 36 37 37 23 19 5 3 5 11 6 3 3 5 17 25 27 19 27 20 26 23 14 17 9 6 10
17 12 12 10 9 12 15 19 24 29 30 30 32 38 36 35 37 29 6 9 36 23 3 2 2 7 16 23 26 24 23 17 15 4 4 6 6 10 3 8 11 22 23 21 23 19 16 20 18 22 12 6 11 17
11 8 6 5 10 14 17 21 23 29 33 35 33 33 37 37 35 31 6 18 36 20 7 2 2 2 9 9 7 17 14 15 9 7 6 3 3 5 5 4 21 29 31 29 34 26 24 26 19 14 7 12 8 17
10 7 6 10 13 18 10 12 18 29 36 35 36 33 35 38 20 25 12 37 27 8 7 4 4 4 8 9 10 13 16 5 7 5 4 7 4 8 6 11 24 27 20 19 15 12 12 17 10 9 10 10 12 16
16 15 14 14 16 17 13 12 12 31 42 42 42 22 8 25 33 30 20 7 6 6 4 3 5 3 7 3 5 5 9 4 5 8 9 4 8 21 22 21 26 26 21 17 15 15 14 16 11 11 11 12 12 12
14 18 24 16 25 25 24 26 43 50 51 34 7 11 48 45 30 7 5 4 4 3 7 8 11 4 8 4 3 5 2 4 4 4 7 5 5 4 12 17 16 15 15 14 13 15 16 17 16 12 10 9 14 18
10 20 20 17 15 20 22 30 29 26 21 36 46 39 27 6 5 4 3 4 4 5 6 4 6 6 7 5 2 3 3 1 3 7 3 3 1 3 2 4 8 11 11 9 9 10 9 7 13 14 15 17 20 25
23 22 27 30 36 39 45 51 51 55 48 31 14 7 3 3 5 5 7 3 3 3 8 6 4 7 5 5 2 3 4 3 5 3 3 1 3 5 6 7 8 8 9 10 8 7 6 9 13 16 21 22 28 33
17 17 23 25 34 25 21 20 22 17 5 8 6 6 4 3 3 2 2 2 2 1 10 10 4 2 4 3 2 3 2 3 3 3 1 3 10 8 6 6 5 4 3 3 4 7 10 15 19 21 25 31 34 38
9 18 15 19 13 10 7 7 6 8 7 7 7 5 4 2 5 5 3 2 5 3 8 6 3 3 1 3 1 2 2 2 1 0 3 10 9 7 5 2 1 1 5 7 10 13 17 21 26 31 31 34 37 41
8 7 5 13 11 5 4 8 8 8 7 7 10 4 8 2 5 8 12 5 9 1 4 3 2 2 2 1 2 2 1 1 2 2 7 7 5 2 1 3 6 8 10 14 17 21 24 27 32 36 37 38 39 40
7 5 4 6 15 13 5 7 7 9 7 5 5 11 5 4 2 6 9 13 10 5 2 2 4 2 1 3 3 3 2 2 3 3 4 3 2 4 6 8 11 14 18 21 25 28 31 34 37 39 42 41 42 41
7 4 4 3 2 3 21 11 8 8 8 10 4 10 10 10 11 10 12 15 8 3 3 3 4 5 4 3 2 2 3 6 7 6 6 6 6 9 10 15 17 20 24 27 30 34 36 37 39 38 40 41 40 38
7 6 5 5 4 4 6 8 8 6 8 4 6 9 6 9 17 16 13 11 15 12 7 5 5 3 3 3 3 2 1 1 6 11 12 11 12 14 18 21 23 26 29 31 33 35 35 37 39 39 38 37 37 33
10 10 6 4 3 6 7 6 6 8 3 5 6 14 10 8 13 18 21 20 18 8 7 5 4 7 7 10 5 2 4 8 12 15 15 16 17 19 22 24 26 28 30 31 33 35 36 36 34 33 32 32 31 30
7 9 9 11 19 13 7 5 7 7 9 6 8 6 7 17 24 18 17 18 15 8 4 9 14 12 8 6 5 3 5 5 6 10 13 17 17 19 22 23 25 28 30 32 34 34 33 32 30 28 27 28 27 26
7 8 9 12 8 7 8 8 10 9 6 8 5 5 5 4 6 13 15 17 7 8 10 14 14 13 14 13 10 8 6 7 11 14 15 16 18 19 21 22 24 28 29 30 30 30 29 27 26 25 25 26 25 25
7 7 8 9 6 6 5 4 4 4 3 3 4 3 4 4 5 7 6 8 9 15 15 11 9 8 11 10 10 10 9 11 15 15 15 17 19 20 21 23 25 27 27 26 25 25 25 23 22 22 23 24 24 24
8 7 8 7 9 3 4 6 5 4 5 3 3 3 3 4 5 6 4 4 14 19 19 15 8 10 14 16 17 15 13 14 17 18 18 19 21 21 21 22 22 22 22 22 22 22 22 21 19 20 20 20 20 20
6 11 8 6 10 5 5 4 5 4 4 5 3 4 3 4 3 3 3 9 17 20 18 15 13 13 15 15 15 14 11 13 17 21 19 20 22 22 23 22 21 20 17 16 18 18 19 19 18 18 18 16 16 16
8 12 7 6 5 5 4 3 4 5 4 3 4 3 4 3 4 4 3 12 12 15 15 14 11 12 14 14 14 15 15 15 17 21 20 18 19 19 20 20 20 18 14 10 11 14 16 16 16 16 16 15 12 11
6 5 7 10 4 5 6 7 7 5 4 4 2 3 3 5 4 3 6 12 9 11 10 9 11 14 15 15 15 14 11 11 16 22 21 17 16 15 12 13 14 16 15 12 10 9 11 14 14 14 14 14 12 10
7 9 5 10 10 11 4 4 4 4 3 6 3 5 3 2 2 3 6 9 7 7 11 13 14 14 15 16 17 18 18 17 17 17 16 16 14 13 12 12 12 12 12 13 12 12 11 10 11 11 10 9 8 7
9 5 5 6 7 9 10 4 4 5 6 3 3 2 3 5 6 5 7 7 8 10 12 12 13 12 11 11 11 12 12 12 10 11 13 14 12 12 11 10 10 9 9 9 11 11 10 10 9 8 7 6 5 5
6 7 7 7 5 6 9 10 9 11 13 13 13 20 20 18 14 9 8 8 9 10 11 10 10 9 11 10 11 10 11 11 10 9 8 9 9 9 9 8 8 8 8 7 6 7 7 6 6 6 5 4 3 2
6 6 8 8 6 11 19 22 23 24 25 25 22 21 13 9 13 13 13 12 11 8 7 7 7 8 8 8 10 10 11 11 10 9 8 7 7 7 6 6 6 6 6 6 5 5 5 5 5 4 3 2 2 2
7 6 7 4 3 7 5 4 6 6 5 4 6 4 4 4 4 4 10 9 7 7 9 9 8 10 11 10 9 9 8 8 7 6 6 5 4 4 4 4 4 4 3 3 3 3 3 3 2 2 2 2 3 3
14 15 12 8 5 5 4 4 3 3 3 3 3 4 4 3 3 3 5 6 7 8 9 9 9 9 9 8 7 7 7 6 6 5 4 3 3 2 2 2 2 2 2 1 1 2 2 2 2 2 3 3 4 4

GFSWCAN_850_spd_096.txt.gz
Wind_Speed
35 36 39 40 38 37 36 35 35 36 35 35 35 36 36 36 35 37 42 38 39 25 29 24 24 26 10 15 9 4 2 9 6 5 4 4 5 7 10 11 5 7 6 5 6 7 13 7 6 6 12 25 24 22
37 39 37 36 34 33 31 31 31 32 33 34 36 36 36 37 40 39 40 42 41 30 10 28 41 33 25 26 20 15 11 2 8 4 5 3 4 3 9 9 10 11 10 4 7 5 13 14 5 19 23 24 25 18
38 39 38 37 35 34 33 31 28 27 26 28 30 33 36 38 41 45 47 31 39 32 22 31 27 22 34 36 32 19 17 21 11 9 2 2 5 3 5 9 14 10 7 6 5 7 13 3 19 25 17 23 19 20
38 37 36 36 37 38 37 35 33 31 30 29 28 28 27 28 33 36 46 40 40 10 9 10 13 36 34 32 35 36 31 18 22 15 5 4 4 4 5 7 11 9 4 7 9 11 14 13 13 17 22 20 15 11
34 34 33 29 30 28 26 29 32 34 33 33 32 30 27 26 25 30 37 38 42 29 2 13 15 25 21 29 30 33 29 26 19 6 4 4 6 7 8 8 10 14 13 10 11 14 15 15 19 19 22 19 17 11
29 25 23 20 22 18 15 18 24 30 32 32 31 30 30 28 26 25 13 34 35 42 4 3 6 7 15 20 20 30 30 28 24 5 4 5 8 9 4 8 12 15 17 19 17 20 18 17 17 18 13 13 10 5
19 15 13 13 13 13 16 18 20 23 26 30 34 31 32 31 32 25 7 14 36 36 7 2 3 2 9 11 15 18 19 14 11 5 6 5 15 8 7 14 19 22 21 24 28 27 23 22 18 11 9 11 4 4
12 11 9 11 13 15 18 19 19 20 23 24 32 33 34 31 31 22 7 22 42 21 6 3 3 2 8 7 8 12 11 15 9 6 5 3 4 4 5 11 20 21 26 29 29 22 22 20 15 11 5 4 5 7
5 6 9 12 14 10 13 23 28 25 25 26 30 30 32 31 18 12 21 31 30 7 6 5 5 5 9 10 9 8 10 5 6 5 6 7 6 8 9 16 20 21 17 23 21 11 11 13 10 6 4 6 8 9
13 5 9 9 8 13 13 14 23 30 33 32 35 16 8 24 28 25 16 9 8 6 4 4 7 4 10 10 7 5 6 5 4 6 5 4 12 24 23 22 25 16 16 15 17 18 14 7 5 6 7 7 9 14
8 8 5 14 11 10 6 21 36 38 43 27 8 6 40 41 26 5 6 5 5 4 9 9 16 5 9 5 4 8 2 5 4 5 6 5 9 14 23 22 15 10 8 8 11 10 11 10 8 8 9 10 12 15
15 14 10 14 18 23 34 43 50 42 26 15 30 36 25 8 5 5 4 4 4 5 7 5 10 10 6 4 3 5 3 2 4 10 4 4 3 8 4 3 4 7 9 9 10 9 9 8 8 11 12 14 15 17
25 26 33 32 32 31 34 34 33 39 47 45 18 6 5 2 4 6 8 4 4 5 8 7 5 7 4 4 2 4 5 6 5 4 3 3 6 9 9 7 7 8 7 7 7 4 3 5 8 12 16 16 19 24
27 17 17 21 28 32 38 40 40 25 8 6 4 6 3 3 3 2 2 3 4 1 13 14 6 3 4 5 2 4 2 2 4 4 1 2 10 11 10 8 6 6 5 4 2 2 4 7 11 13 16 20 25 29
18 12 7 14 14 17 12 10 10 8 6 7 6 5 4 3 4 4 2 2 3 4 8 7 3 4 3 3 3 2 3 3 1 2 3 9 11 10 8 7 5 5 3 2 2 5 8 12 15 19 21 25 29 35
10 10 10 11 8 7 7 10 11 9 7 6 8 4 4 4 4 5 6 5 5 0 4 3 3 3 2 0 3 1 3 1 3 3 9 10 10 8 6 5 4 2 2 5 8 11 15 17 21 26 27 29 33 37
4 1 6 9 14 8 3 7 9 10 7 5 5 9 6 6 6 5 6 7 7 3 0 1 2 2 1 3 2 3 3 3 7 8 8 8 8 7 5 4 3 5 8 10 14 15 18 21 24 28 34 33 37 39
6 4 1 2 3 6 20 10 8 7 7 9 5 9 12 9 8 8 9 11 5 2 3 3 3 4 4 3 3 3 3 3 6 7 8 8 7 5 4 6 7 10 13 16 19 23 26 28 31 33 36 36 38 36
6 5 4 5 4 4 6 8 8 6 8 5 6 6 6 7 11 11 10 10 11 10 6 5 5 4 3 5 7 7 5 4 2 4 6 5 5 6 8 11 13 15 17 19 21 22 25 27 32 35 37 37 38 35
11 9 5 5 3 6 6 6 6 8 4 5 7 14 8 6 8 11 17 15 16 8 7 5 4 6 7 10 10 6 3 2 2 3 5 6 6 8 10 13 16 18 21 22 25 28 30 32 32 33 35 35 34 32
9 8 8 11 18 13 7 5 7 6 8 6 7 9 8 16 19 12 13 14 13 8 4 8 10 9 8 7 5 4 4 2 1 1 5 6 6 9 11 14 16 19 21 22 26 27 29 31 31 31 30 28 27 28
8 8 8 11 8 7 7 8 9 8 5 8 5 5 5 5 7 12 10 15 7 7 7 9 11 10 10 12 9 7 5 4 6 8 8 8 9 9 10 12 16 19 21 24 26 27 28 28 28 26 26 27 26 26
7 6 7 7 6 6 5 3 3 4 3 3 4 3 4 4 5 6 6 7 7 12 12 10 7 6 7 7 7 7 6 6 8 8 9 11 12 12 14 16 20 23 25 25 25 26 25 25 25 25 25 24 24 25
7 7 8 7 9 4 4 5 5 4 4 3 3 3 3 4 4 6 4 4 11 14 14 15 9 6 8 11 12 11 10 9 12 13 13 14 17 17 19 20 21 22 23 22 21 22 23 22 21 21 22 23 22 21
6 11 7 7 8 4 4 3 5 4 4 5 3 4 3 3 3 3 3 7 13 15 15 13 12 11 10 9 9 10 9 12 14 18 17 18 21 22 22 22 21 19 17 18 19 20 21 20 20 20 19 18 18 18
8 12 7 6 5 5 4 3 4 5 3 3 4 3 3 3 4 4 3 10 10 12 13 12 10 9 12 12 11 12 11 13 15 20 19 19 19 19 20 19 19 16 14 12 13 16 18 18 18 18 18 16 15 14
6 6 8 9 4 6 6 7 7 5 4 4 3 3 3 4 4 3 5 9 7 8 9 9 9 10 11 13 13 12 10 11 16 20 19 17 16 15 14 14 15 16 14 12 11 12 14 16 17 16 16 16 14 12
7 8 6 8 9 11 4 4 4 4 3 4 2 4 3 3 3 3 5 6 6 8 10 12 12 13 14 15 15 16 16 16 15 15 15 15 14 13 13 12 13 12 11 12 11 11 11 11 12 12 11 10 10 10
8 4 5 6 7 9 10 5 4 4 4 3 2 3 4 4 4 4 5 6 7 7 7 9 10 10 10 9 8 9 10 11 10 11 13 14 13 12 10 10 9 9 9 9 10 10 10 10 11 10 10 9 8 7
5 5 6 7 5 6 9 7 6 8 9 11 14 20 17 11 11 8 7 8 9 10 9 9 9 9 9 9 10 9 9 9 9 9 9 8 9 9 9 8 8 8 8 7 7 7 8 8 8 8 7 7 6 6
5 5 7 8 6 10 13 17 17 17 15 14 15 16 12 7 11 12 10 10 9 7 6 7 7 8 8 9 10 10 11 11 11 9 8 7 7 6 6 6 6 6 6 6 6 6 6 6 6 6 6 6 5 5
6 6 6 5 6 7 5 3 4 4 4 5 5 4 4 3 4 3 7 9 7 8 9 9 9 11 10 10 9 9 8 8 7 6 5 5 5 4 4 4 4 4 4 4 4 5 5 5 5 5 4 4 4 4
12 12 10 7 5 4 3 3 3 3 4 3 3 3 3 3 3 2 4 6 7 8 8 8 9 9 8 8 7 7 7 6 5 4 3 2 2 2 3 3 3 3 3 3 3 3 4 4 4 4 4 4 4 4

GFSWCAN_850_spd_099.txt.gz
Wind_Speed
32 32 33 32 32 33 36 36 35 35 34 32 31 31 31 30 29 30 29 24 29 18 24 20 25 19 11 8 10 2 3 9 6 5 4 6 4 5 7 11 3 7 9 7 10 5 9 4 8 5 9 15 19 25
34 37 36 34 34 36 34 32 30 31 32 32 34 34 34 33 32 31 31 30 31 24 11 14 33 31 26 19 17 12 11 12 2 4 4 3 5 3 5 4 9 5 8 4 7 4 3 11 5 3 9 17 25 27
36 35 35 35 36 36 34 32 30 28 29 31 32 33 35 35 35 37 37 30 28 26 25 29 32 24 20 32 31 23 24 21 14 8 3 2 4 5 3 6 10 9 7 4 6 6 6 11 3 4 14 23 26 26
36 35 35 36 36 35 34 32 31 30 29 28 29 31 34 37 36 37 42 38 30 9 8 18 17 27 24 28 26 31 36 31 24 15 4 3 4 7 6 6 8 6 6 8 9 8 11 5 4 6 14 19 22 16
35 35 34 34 34 30 29 29 31 34 33 29 29 28 28 31 35 37 39 43 42 33 4 12 20 27 23 26 34 30 32 30 26 7 3 3 8 9 9 11 11 13 11 9 7 11 10 13 14 13 17 18 13 13
30 28 30 28 24 23 23 25 24 29 31 36 31 29 30 27 24 24 20 36 42 47 11 5 5 6 17 22 25 30 27 29 24 4 4 7 17 10 5 8 12 14 11 12 12 17 15 18 17 18 19 12 8 6
22 23 17 20 18 14 16 19 16 21 30 35 35 32 30 27 27 19 5 7 36 41 8 3 5 7 11 16 20 20 22 20 12 6 6 15 19 8 5 13 19 24 23 22 23 23 23 19 16 14 13 7 3 4
14 13 13 13 12 12 12 11 16 20 24 30 31 31 30 28 25 32 1 8 37 25 7 3 3 5 14 9 8 13 7 11 7 5 4 4 10 10 6 11 18 20 20 19 20 17 17 15 10 12 7 5 2 3
9 12 15 13 15 17 18 19 17 17 18 31 29 30 25 24 15 21 7 28 33 9 6 5 5 4 13 12 8 8 9 4 7 5 6 8 8 7 7 14 20 21 20 20 15 15 17 15 11 9 4 5 4 4
12 11 12 11 13 11 17 17 25 23 22 26 33 14 5 21 20 27 21 11 8 8 5 4 10 4 8 7 5 5 5 4 4 7 7 6 11 27 31 27 25 20 23 15 19 19 16 15 5 5 4 2 4 7
11 12 12 14 13 15 19 22 34 32 32 33 10 5 38 36 23 5 6 6 6 4 7 11 17 6 7 5 4 6 1 2 3 5 6 4 6 5 14 21 20 9 7 9 10 13 15 13 12 8 4 5 7 8
8 8 7 7 7 6 26 38 46 38 18 16 24 37 20 7 4 5 5 5 5 6 8 6 13 12 7 6 3 4 3 3 5 1 3 3 4 10 12 11 10 8 8 8 9 11 10 9 7 6 8 10 11 12
18 31 27 34 30 32 41 48 38 33 35 48 18 6 7 3 6 6 8 4 5 5 7 9 5 6 5 5 2 3 5 5 4 3 3 4 7 10 11 11 10 10 9 8 8 7 4 2 3 7 13 12 11 14
15 32 31 34 36 36 42 47 49 44 6 5 4 5 0 4 1 3 3 4 5 7 13 13 8 4 4 4 3 4 3 3 3 4 1 5 11 10 10 10 10 10 9 7 5 4 4 5 5 7 7 12 14 17
13 14 13 31 36 39 42 35 13 4 6 5 4 4 3 4 7 5 4 6 5 6 12 8 4 4 3 3 4 3 4 5 1 3 3 10 10 10 10 9 8 6 6 4 3 1 3 5 8 11 12 14 18 23
4 9 14 13 11 10 10 7 6 6 6 6 8 4 2 6 6 8 9 8 5 2 8 3 3 4 4 3 6 3 4 2 4 3 9 10 11 9 9 8 7 5 3 3 4 5 7 9 12 16 18 19 22 25
4 5 15 18 11 11 11 4 5 8 6 5 5 9 8 11 9 7 6 6 5 1 2 2 3 3 3 3 2 4 4 4 8 8 8 9 9 8 6 5 4 4 6 6 8 8 10 13 16 20 25 26 28 31
1 2 3 2 4 9 15 8 7 7 8 10 6 10 14 11 7 8 8 9 5 3 3 3 2 3 3 2 3 3 6 5 4 7 8 8 7 6 5 6 6 8 9 10 12 14 15 18 18 21 25 28 32 33
3 3 1 2 2 3 6 7 7 6 8 7 8 7 9 11 12 10 10 9 8 9 5 4 5 3 4 6 8 13 10 7 6 6 6 7 7 7 7 8 9 10 11 12 12 13 14 16 19 22 23 28 35 32
8 7 6 6 2 6 6 6 6 7 4 6 7 11 7 7 8 11 14 13 13 7 7 5 4 7 7 9 10 11 9 7 5 3 3 6 6 6 6 7 9 10 12 14 15 16 17 18 18 22 25 28 30 28
10 9 9 11 13 11 7 5 7 8 7 6 9 10 8 14 15 12 12 11 11 7 4 7 10 9 10 8 8 8 8 7 7 4 3 3 4 6 7 8 10 10 11 12 15 17 18 19 24 27 29 28 26 24
9 8 8 10 7 6 7 9 9 8 5 9 7 6 6 6 8 10 7 13 6 7 7 10 10 10 9 11 11 9 6 6 6 6 6 5 5 7 7 7 9 12 13 14 16 19 21 23 25 25 24 22 21 23
7 5 7 7 6 6 4 2 3 3 3 4 4 3 4 4 5 5 6 6 6 10 11 11 9 9 8 8 9 11 9 7 6 6 6 8 9 9 10 11 11 14 16 17 18 20 23 22 20 19 20 20 20 21
5 6 7 6 8 4 4 4 5 4 4 3 3 3 3 4 4 5 4 4 9 11 13 14 11 7 7 10 12 12 13 9 8 9 8 9 11 13 14 15 16 17 18 19 19 19 17 17 16 16 16 17 16 16
6 10 7 7 7 4 4 3 4 3 4 4 3 4 3 3 3 3 3 5 11 13 13 13 11 11 9 9 10 11 11 9 10 14 14 12 13 15 17 19 19 17 14 13 13 15 15 14 14 14 14 14 15 15
8 12 7 6 4 4 4 3 4 4 3 3 4 3 3 3 3 4 3 8 9 10 12 12 11 9 11 11 9 10 9 9 8 14 16 17 14 13 15 15 14 13 10 10 11 12 13 14 15 14 14 14 13 13
6 6 8 8 5 6 6 8 8 5 4 4 3 2 2 3 4 3 4 8 7 8 8 8 9 9 9 11 11 12 11 9 11 14 14 13 14 14 13 12 11 10 9 9 9 9 10 12 13 13 13 13 11 10
7 8 6 7 9 12 4 4 4 4 3 4 2 4 3 3 3 4 4 5 6 6 8 9 10 10 10 9 9 9 12 13 13 12 11 12 13 14 12 11 10 9 7 8 8 8 9 9 10 10 10 10 10 10
8 6 7 9 7 9 10 5 5 5 4 3 2 3 4 5 6 6 5 6 6 6 6 7 9 8 9 8 7 7 9 12 8 8 10 11 10 10 10 9 7 6 6 6 8 8 9 9 10 10 9 9 8 7
5 5 6 8 5 6 9 9 11 10 12 11 15 20 17 11 9 8 8 8 8 8 7 7 8 8 9 9 9 8 7 7 9 9 7 7 7 7 6 6 6 6 5 5 6 7 7 6 6 6 6 6 5 5
6 6 7 9 7 11 13 13 15 15 15 15 13 16 12 8 7 9 10 9 7 7 7 8 7 7 7 8 8 7 9 9 9 8 8 7 5 5 4 4 4 4 4 4 4 5 5 5 5 5 5 5 4 4
6 5 6 5 7 8 3 4 6 9 7 9 8 5 4 4 4 3 6 9 6 7 8 7 7 8 8 8 8 7 6 5 5 4 4 4 3 3 3 3 3 3 3 3 3 4 4 3 3 3 3 3 4 5
18 16 13 10 6 5 4 4 3 4 3 3 3 3 3 3 3 1 3 4 6 6 6 6 7 7 7 7 7 6 6 5 4 3 2 1 1 0 1 1 2 2 2 2 2 3 3 3 3 4 4 5 5 6

GFSWCAN_850_spd_102.txt.gz
Wind_Speed
25 25 26 28 29 30 29 28 27 28 28 29 29 26 25 24 23 24 23 19 19 12 21 19 17 13 17 16 6 5 4 4 1 5 4 5 5 4 7 12 6 11 10 8 8 7 11 5 11 5 4 8 8 14
29 31 31 31 32 33 33 31 29 33 32 32 32 31 29 27 26 25 25 20 20 17 13 9 14 22 24 20 16 6 4 6 3 2 2 3 3 4 6 4 6 3 7 3 6 4 3 10 5 3 3 7 10 14
31 33 36 36 35 33 32 32 32 32 30 29 29 30 31 30 29 29 28 20 19 18 24 27 29 25 19 18 24 21 22 16 11 10 3 3 6 2 2 4 5 6 4 4 9 15 4 10 7 3 5 8 14 16
33 32 32 34 34 34 34 34 34 32 30 28 27 28 29 30 31 32 33 26 24 6 6 17 18 18 19 27 23 22 28 27 24 18 5 3 3 6 3 5 5 8 8 6 5 11 10 8 14 11 7 12 18 15
34 34 34 34 35 34 34 34 34 33 32 29 28 27 28 30 31 32 32 33 30 21 4 7 19 22 22 17 20 26 24 20 19 8 3 2 4 6 5 8 8 11 9 5 5 6 4 11 13 12 9 14 5 7
34 35 36 32 28 30 29 26 29 29 28 32 30 27 27 28 30 27 20 34 35 34 10 4 7 10 8 16 24 23 25 25 18 4 3 6 16 8 3 5 8 13 17 15 9 15 15 15 18 15 15 5 8 8
28 25 21 24 22 23 21 18 18 23 27 30 34 28 27 27 31 33 8 9 27 37 8 3 6 11 21 14 19 18 18 17 10 5 6 9 17 11 3 6 17 22 20 21 19 19 18 18 19 13 9 6 6 4
19 18 19 17 14 15 10 14 16 18 19 30 33 32 26 27 28 33 15 5 22 31 9 4 4 4 7 6 5 13 8 10 7 5 3 3 8 6 4 9 16 18 17 20 11 13 10 11 15 10 6 4 6 5
11 10 13 14 13 14 13 13 11 19 17 29 31 31 24 20 15 23 28 6 34 11 6 4 4 3 9 13 9 9 7 3 7 4 4 6 5 5 7 14 16 15 17 19 19 14 13 15 20 12 5 5 7 4
12 13 17 15 15 16 14 20 15 15 21 31 33 16 8 15 18 18 13 19 9 6 6 4 8 4 10 7 6 5 6 3 3 6 6 4 7 23 23 24 26 24 19 14 14 13 12 14 18 13 10 3 3 5
14 16 17 18 20 21 15 22 25 21 32 24 9 5 29 34 17 7 5 6 6 3 7 7 16 5 7 3 3 3 1 2 3 4 6 4 2 8 15 17 15 13 11 10 9 9 8 10 13 14 13 5 7 5
10 10 13 16 22 24 25 27 33 34 24 16 20 35 17 7 5 5 5 5 6 5 10 6 13 12 4 4 2 2 3 1 5 2 3 2 4 11 12 13 14 13 13 11 10 10 10 7 7 9 9 10 6 6
10 7 6 3 16 32 33 32 37 29 32 42 17 5 6 5 5 6 8 4 4 4 5 6 4 5 4 3 2 2 4 5 3 2 1 4 9 12 14 13 12 11 13 10 10 9 7 6 4 5 7 4 4 9
18 19 20 25 27 38 41 44 35 41 15 5 4 6 2 5 4 2 2 5 5 9 10 9 7 3 4 3 3 3 4 3 3 4 3 4 11 12 12 12 12 12 12 12 10 9 7 5 1 3 4 5 8 13
25 29 37 43 48 49 43 42 25 17 6 5 4 4 3 4 6 3 4 6 5 6 12 7 4 4 2 2 3 3 3 5 1 4 2 9 10 10 11 12 11 10 10 10 9 7 5 2 2 6 8 10 12 17
17 23 23 32 39 40 28 17 9 8 6 6 7 4 6 6 6 11 11 9 5 7 7 3 3 3 4 3 5 5 4 4 3 3 8 8 10 10 9 9 10 10 8 7 7 5 3 4 5 8 11 13 16 19
17 16 13 17 17 15 12 8 6 8 5 4 4 10 8 12 12 8 7 5 2 2 2 2 5 4 3 4 3 4 3 4 6 7 8 9 9 9 9 8 7 6 6 6 5 6 8 10 11 14 19 21 23 25
11 14 11 12 12 6 7 8 6 6 7 9 6 10 13 12 10 9 8 9 5 3 3 3 3 3 5 4 4 5 9 8 7 6 5 7 7 6 5 5 4 4 4 6 9 10 10 12 14 17 21 22 24 26
9 10 11 9 10 5 5 6 6 5 7 8 9 10 11 12 12 10 10 9 8 9 4 4 5 4 4 5 8 11 12 9 7 4 1 5 5 6 6 7 7 8 9 9 10 10 10 11 15 16 19 19 25 27
9 7 7 5 5 5 5 5 6 7 4 6 8 11 7 7 8 12 14 13 13 7 7 5 4 8 7 8 8 9 9 9 11 7 5 5 5 4 3 3 4 5 7 9 12 13 15 16 15 15 17 22 25 24
11 12 10 11 11 10 6 5 6 8 7 6 9 8 8 12 14 11 12 11 10 7 4 7 8 7 7 7 8 7 8 9 7 6 6 5 4 3 3 4 6 7 8 10 13 14 14 15 17 20 22 22 22 23
10 9 6 9 6 6 6 8 9 8 5 9 6 5 6 6 7 9 6 13 6 6 5 8 8 9 8 9 10 9 6 7 6 6 6 4 5 6 5 4 7 9 11 11 12 14 15 17 20 21 21 21 20 20
8 5 7 7 6 5 4 1 3 4 3 4 4 3 4 4 4 5 6 6 4 11 11 10 9 6 7 8 9 9 10 9 8 8 7 8 7 7 8 8 8 11 13 13 15 17 19 19 19 19 19 19 19 19
5 6 7 6 7 4 4 4 4 4 4 3 3 3 3 4 5 5 3 4 8 10 12 13 9 10 8 10 12 12 13 10 9 10 9 8 10 10 9 11 12 12 15 18 19 19 18 16 14 13 15 16 16 15
6 10 6 7 6 3 4 3 4 4 4 4 3 4 2 2 2 3 3 4 10 11 12 13 11 10 10 9 10 11 13 9 10 14 14 11 11 14 17 19 18 15 13 15 15 16 14 12 13 13 12 13 14 13
8 11 7 6 4 4 4 3 3 4 3 3 4 3 3 3 3 4 3 8 9 10 11 11 11 10 12 12 10 11 9 9 8 13 15 16 13 11 13 14 15 14 12 10 10 11 12 12 13 13 13 13 12 11
5 6 8 8 5 6 6 8 10 6 5 4 3 3 2 3 4 3 6 8 7 8 9 9 9 9 9 11 14 16 14 10 11 13 12 10 11 12 12 14 14 12 9 8 9 9 10 11 11 10 11 10 9 8
7 7 6 8 11 12 4 4 5 5 4 5 3 4 3 4 4 5 5 5 6 6 8 10 11 10 10 9 9 10 10 10 13 12 11 12 13 13 12 11 10 8 9 8 8 7 7 7 8 9 8 8 8 8
7 7 7 8 7 9 11 5 5 5 5 5 2 4 4 7 10 7 6 7 6 7 8 9 10 9 10 9 8 8 10 13 9 7 9 11 11 12 11 10 8 7 6 6 5 6 6 7 7 6 6 6 5 5
5 5 6 9 5 6 9 9 12 13 14 14 15 20 18 12 10 10 9 9 9 8 7 7 6 7 11 10 10 9 8 7 9 9 9 9 8 7 7 7 7 5 3 4 4 5 4 3 4 4 4 5 4 4
6 6 7 9 6 11 14 16 17 16 16 16 14 14 11 8 7 9 13 9 6 7 7 8 9 9 7 6 8 7 8 8 8 8 7 5 4 4 4 4 4 4 4 4 4 3 4 3 2 3 3 3 3 2
7 5 7 5 7 7 2 3 7 10 9 9 8 6 4 5 4 2 7 9 6 7 7 6 7 8 8 7 6 6 6 5 5 4 3 2 3 3 3 3 2 2 2 2 3 3 4 3 2 2 2 2 3 5
20 18 16 12 7 6 4 4 4 4 4 4 3 4 5 5 4 2 3 4 5 5 5 6 6 7 7 7 7 7 6 6 6 5 3 2 1 2 2 1 1 2 2 2 1 1 2 2 2 3 4 5 4 4

GFSWCAN_850_spd_105.txt.gz
Wind_Speed
24 24 24 23 23 24 26 27 25 23 21 21 21 21 20 19 17 19 22 18 15 7 18 20 16 16 10 3 1 7 7 5 1 3 3 4 2 3 5 9 5 8 8 5 4 2 8 8 5 1 3 5 4 5
23 22 24 25 26 27 29 28 28 27 25 24 23 23 24 23 20 19 23 18 18 19 10 8 12 14 15 18 14 3 3 3 4 3 2 2 2 2 4 3 4 2 1 3 7 6 3 8 7 4 6 2 4 8
26 27 28 29 32 34 35 34 31 29 27 26 26 25 24 24 24 23 24 19 13 17 23 29 27 24 21 21 14 11 6 3 3 7 3 3 3 2 3 4 7 6 3 2 4 5 6 12 12 6 2 5 3 10
29 29 31 32 33 30 30 32 31 29 28 27 27 25 24 24 24 25 26 22 19 6 4 5 8 12 12 10 22 20 20 20 16 13 4 3 3 3 3 5 4 5 1 4 4 0 1 8 2 6 12 14 8 3
31 34 37 36 33 32 32 31 30 30 30 30 27 25 24 24 24 24 25 25 24 16 4 8 21 16 11 14 10 20 25 21 16 4 2 3 4 4 4 3 3 5 3 4 2 7 5 16 20 19 18 8 7 2
33 33 33 34 34 33 33 32 31 31 31 29 27 25 24 23 22 19 13 27 27 26 6 3 6 11 11 10 20 22 19 18 19 4 3 4 6 4 2 3 3 9 15 13 5 11 15 15 11 15 8 10 7 3
33 32 33 33 32 31 28 26 26 25 25 26 26 28 25 24 27 29 7 5 14 28 5 4 5 6 8 20 14 17 18 12 13 5 7 4 6 3 2 4 13 24 24 24 21 24 9 16 14 19 4 9 6 9
32 32 30 26 24 23 23 24 19 22 17 21 27 29 26 24 24 33 10 8 15 20 7 3 4 4 8 9 6 8 7 10 8 5 4 3 3 7 3 11 19 19 18 18 17 13 8 15 18 9 3 1 5 6
30 25 23 24 20 13 13 15 13 15 17 20 31 31 24 22 17 29 33 1 29 11 7 5 2 2 6 5 6 7 7 2 8 4 4 6 3 4 7 8 12 17 15 14 14 13 12 10 14 17 15 3 3 5
18 18 15 15 11 16 16 15 14 14 18 28 38 13 8 15 18 20 20 11 10 8 6 3 7 3 6 5 2 3 4 2 2 5 7 3 2 16 17 20 19 18 21 16 17 19 16 14 14 15 11 5 4 2
13 17 19 20 19 18 19 20 16 22 38 38 10 6 25 29 15 10 6 5 7 3 7 8 16 3 9 2 2 6 2 0 1 3 5 3 2 7 14 18 18 16 12 12 8 6 7 8 10 10 6 5 6 4
13 15 19 20 23 25 23 29 28 40 27 19 17 33 22 8 6 4 5 5 4 5 7 4 9 18 5 5 2 1 2 0 4 1 2 1 3 12 14 14 17 18 16 12 11 9 8 8 9 7 3 5 4 2
5 12 10 13 25 33 27 34 30 38 29 36 18 5 8 5 5 5 6 3 3 5 8 9 3 7 4 3 3 1 2 4 2 1 1 3 8 13 13 14 14 15 17 13 12 9 8 7 4 3 2 2 1 2
5 6 5 21 33 35 36 42 34 35 25 5 6 6 3 5 4 3 1 3 2 7 14 18 6 3 4 2 2 3 4 2 2 1 2 3 10 10 11 12 11 13 13 12 12 11 8 5 3 1 1 1 2 8
26 21 27 34 36 36 40 40 39 22 7 4 3 3 2 3 5 3 3 5 6 8 14 9 6 4 1 3 3 2 3 4 2 2 2 8 8 11 12 12 13 12 12 12 11 9 7 5 3 2 3 3 6 11
38 46 42 42 47 48 42 40 22 11 6 5 7 3 7 5 4 8 10 7 4 8 11 6 3 3 2 3 3 4 2 3 1 3 8 6 9 11 12 12 11 11 13 11 9 7 5 5 4 6 7 8 12 14
28 31 34 36 33 31 30 24 7 8 5 4 4 14 9 12 10 8 8 6 3 4 2 2 4 4 1 2 3 3 3 1 8 7 5 6 7 9 8 9 8 7 8 9 7 7 8 8 8 10 14 15 16 19
26 28 22 21 23 19 15 8 7 6 7 10 5 11 18 15 12 13 9 10 3 3 3 2 5 5 4 4 3 3 10 8 5 3 6 5 5 7 6 6 5 5 4 5 6 7 7 7 10 14 16 17 19 20
21 18 16 12 8 6 6 5 5 5 6 8 13 15 14 13 14 10 10 9 11 10 6 6 5 3 3 5 5 11 14 11 11 12 5 3 5 4 4 5 5 4 4 6 7 7 5 6 10 14 16 17 20 21
17 17 14 15 11 6 6 6 6 7 4 5 8 13 8 9 10 15 16 16 14 8 8 5 3 5 5 7 7 7 10 9 10 10 5 2 4 5 1 4 3 1 2 3 6 9 11 13 13 11 11 15 20 22
20 17 14 13 14 9 7 5 6 7 9 7 13 6 8 16 13 11 13 12 11 7 4 7 8 5 6 6 6 4 5 7 7 5 5 3 2 2 1 3 4 5 7 10 12 12 13 14 13 13 15 18 19 19
14 12 11 7 6 5 7 6 10 10 5 9 6 6 6 5 5 9 6 13 6 6 5 7 7 5 5 6 7 6 5 8 4 4 5 3 7 4 4 2 4 7 6 8 9 11 13 13 13 14 16 18 18 20
12 7 7 6 5 5 4 6 3 5 3 5 6 4 4 4 4 5 6 6 5 10 11 10 7 7 6 7 5 10 8 6 8 7 5 5 6 7 7 5 3 6 8 7 7 11 15 15 15 17 18 19 20 20
6 6 6 5 6 3 4 4 5 4 5 3 2 3 3 4 7 5 3 4 9 9 12 14 8 10 10 11 13 11 12 9 7 9 7 5 8 9 7 7 6 7 9 12 15 17 17 16 16 16 17 18 17 17
5 10 6 5 8 4 4 3 3 3 4 3 3 3 2 4 3 3 2 4 12 12 10 15 13 7 9 8 7 9 10 8 12 12 12 10 11 14 16 16 14 11 9 12 14 14 13 14 14 13 13 13 14 14
7 12 6 7 5 4 3 3 3 4 3 3 3 3 3 3 4 4 3 8 9 9 9 10 11 12 15 14 11 7 7 6 7 12 14 11 11 11 13 14 15 13 9 8 9 11 12 12 12 12 12 11 10 11
5 4 7 8 4 5 5 8 10 5 5 4 2 3 2 4 3 3 6 7 7 8 8 6 6 7 8 11 12 15 13 9 9 12 10 8 7 7 9 12 12 9 7 6 6 6 8 10 10 10 10 10 9 8
7 7 5 8 10 14 4 4 4 4 3 6 3 5 3 3 3 4 4 3 6 6 10 10 12 9 6 6 7 7 7 9 12 11 12 13 13 11 8 8 8 6 6 7 8 9 9 8 8 9 9 8 8 8
6 7 7 7 7 8 9 4 4 4 6 4 2 3 4 9 12 11 7 4 1 2 6 11 11 7 8 6 6 8 9 8 5 5 10 12 11 13 11 9 7 6 6 6 6 5 5 5 5 5 5 5 6 5
4 5 6 8 4 5 9 7 13 16 12 13 16 24 22 19 14 10 10 9 7 7 5 4 5 4 7 8 8 7 7 7 6 7 8 9 8 6 5 5 5 6 5 4 4 5 5 5 5 5 5 4 4 4
6 7 7 7 6 13 20 20 21 20 20 22 19 20 13 11 13 10 10 7 3 3 3 5 6 5 3 2 4 5 6 6 5 4 4 4 3 3 3 3 3 2 3 4 5 6 4 4 3 4 3 1 1 3
6 5 6 4 6 13 10 3 7 9 9 8 6 7 8 6 4 3 6 4 2 3 4 4 6 7 7 8 7 6 6 5 3 2 2 2 2 1 2 2 2 2 3 4 4 6 5 4 2 1 2 3 5 4
23 23 17 12 7 7 6 5 4 4 4 3 4 5 5 4 4 1 1 1 1 2 4 7 8 7 6 6 6 6 6 6 6 5 3 2 1 1 2 2 1 2 2 2 3 4 5 4 3 3 3 3 3 4

GFSWCAN_850_spd_108.txt.gz
Wind_Speed
26 24 24 22 17 17 19 22 23 22 20 17 15 16 16 16 15 16 18 16 15 7 21 23 20 19 13 6 0 6 6 3 3 1 2 4 3 3 3 6 5 4 6 5 5 4 9 6 9 2 4 2 2 0
28 25 25 22 22 21 20 20 21 22 23 20 19 17 18 17 16 15 19 16 15 20 16 10 14 18 16 16 12 5 2 2 3 2 2 3 2 2 4 3 2 5 2 2 6 5 3 6 3 2 4 2 3 5
26 25 22 23 24 23 24 24 25 26 24 22 21 20 19 19 19 19 20 16 13 15 22 27 28 17 17 26 17 7 6 5 5 1 1 2 4 3 2 3 5 3 4 2 1 4 7 10 5 2 6 9 5 7
27 25 26 27 25 25 25 26 25 27 29 27 23 21 22 20 17 18 22 20 16 6 5 7 8 14 12 10 15 27 27 14 14 10 3 3 3 3 3 5 6 3 6 4 3 4 10 12 2 15 15 15 9 4
27 27 27 29 28 27 28 29 28 24 24 25 23 22 23 20 18 18 21 22 19 14 3 9 20 23 13 11 16 14 23 21 12 3 3 3 4 2 3 3 3 3 2 3 3 11 8 15 15 16 14 11 4 7
24 24 25 28 29 30 29 28 27 27 26 24 24 25 24 20 18 17 13 22 22 21 6 3 7 15 19 9 9 19 16 21 21 5 4 4 5 3 2 2 6 11 22 19 5 16 22 19 5 3 6 7 7 6
26 27 29 29 30 30 28 26 27 28 28 26 26 24 24 20 24 22 6 5 18 24 4 4 5 5 7 13 17 13 15 10 10 6 5 4 4 2 2 3 7 16 21 19 16 7 12 18 7 7 8 8 6 9
29 30 32 30 28 28 27 26 26 27 28 27 26 25 21 21 22 30 7 5 19 20 5 3 4 5 7 5 4 6 7 11 10 5 3 2 3 5 2 7 14 18 12 13 12 10 12 15 14 6 3 2 5 8
30 30 29 28 28 28 26 24 25 23 20 21 20 20 24 22 15 29 12 13 25 10 6 5 2 3 5 5 3 6 7 2 6 3 3 5 2 2 5 10 16 19 15 15 9 7 9 14 12 7 3 4 4 1
28 29 29 31 28 23 23 22 21 19 18 19 29 15 8 16 15 21 17 3 10 7 6 4 7 3 4 5 3 2 4 2 2 5 6 3 2 11 11 11 14 17 16 16 16 19 18 15 15 11 7 5 6 2
28 29 26 16 21 24 23 21 19 19 31 41 11 5 22 29 18 11 7 8 6 3 7 8 19 4 6 3 2 4 2 1 1 3 4 2 2 3 10 12 14 15 17 13 9 8 9 9 10 8 9 4 2 2
16 13 15 19 20 20 24 23 23 41 27 20 18 33 25 8 6 5 5 4 5 5 7 6 10 17 4 4 3 1 2 1 4 1 2 2 3 8 10 13 13 15 18 14 12 11 10 8 6 5 6 4 2 1
15 17 19 23 24 27 26 28 26 35 33 35 16 7 8 5 5 5 5 3 3 5 9 8 2 9 4 3 3 1 2 4 1 2 2 3 6 8 11 13 11 13 14 14 14 11 9 8 6 4 3 3 3 3
17 18 19 21 28 34 32 32 36 41 27 7 5 6 4 4 4 4 4 4 5 4 17 20 5 3 3 2 2 3 4 1 2 1 2 2 6 10 11 11 12 11 12 14 13 11 10 8 6 4 2 2 3 6
7 18 26 30 37 38 37 39 31 31 12 4 3 3 2 3 3 5 4 5 4 12 19 10 6 3 2 2 2 1 2 3 2 1 1 3 5 8 9 11 12 12 13 13 11 8 7 5 4 3 1 1 3 7
24 33 34 40 41 40 46 35 31 23 5 4 6 3 6 6 3 5 7 5 5 12 11 6 3 2 2 4 3 3 2 1 2 1 2 4 5 8 9 10 11 11 13 12 10 8 5 3 2 1 2 4 7 9
41 45 43 44 51 51 43 29 15 7 4 4 4 12 11 11 8 6 6 5 4 2 2 3 3 5 1 3 3 3 1 2 7 4 3 5 7 10 9 10 9 10 10 10 10 7 5 3 1 2 5 8 9 11
41 42 41 43 40 34 22 8 7 5 6 9 6 8 16 12 7 11 8 8 2 3 3 2 3 4 3 3 1 2 7 7 4 5 6 6 5 6 7 7 8 8 7 6 6 6 5 2 2 6 8 9 11 13
31 29 29 30 26 14 5 5 5 5 6 9 11 12 12 11 14 9 9 11 13 10 7 6 5 3 1 4 3 8 11 9 10 12 6 2 5 7 6 5 7 7 5 3 2 4 4 2 5 7 8 9 12 14
24 29 22 18 13 6 6 6 6 7 4 5 8 11 9 8 7 13 14 13 12 8 8 4 2 3 3 5 5 4 6 7 8 6 2 3 4 6 5 6 5 3 3 2 1 1 3 5 4 3 5 8 12 15
20 22 23 18 15 10 7 5 6 7 8 7 11 5 7 14 10 11 12 11 11 7 4 7 6 4 3 2 5 4 4 4 3 3 4 2 4 5 4 3 5 4 3 3 3 5 4 5 5 5 7 10 11 13
18 16 11 9 7 6 7 6 11 10 5 8 7 6 6 4 4 8 6 13 6 6 5 6 6 4 2 6 6 4 4 3 3 3 4 2 3 2 2 3 4 4 4 5 4 4 4 3 4 6 9 12 12 14
16 8 7 5 5 5 5 8 4 4 4 5 5 4 3 3 4 5 6 6 5 9 10 7 5 4 5 4 5 5 4 4 2 3 4 3 1 1 2 2 2 3 3 3 3 4 5 5 7 10 12 14 16 18
7 6 5 5 6 3 5 3 4 5 5 3 3 3 3 4 5 5 3 4 7 8 11 10 10 6 5 6 7 6 6 4 2 2 3 2 2 3 2 2 2 3 3 6 8 9 8 9 9 11 13 15 17 17
5 9 6 5 7 4 4 3 3 3 3 3 3 2 2 4 3 3 2 3 8 8 11 8 8 4 5 4 4 5 4 5 4 7 8 6 7 8 9 9 10 8 7 9 10 9 10 10 11 12 12 12 13 13
7 10 5 4 4 4 3 3 3 2 3 3 1 2 4 3 4 3 2 3 6 6 5 6 7 11 13 12 6 4 5 4 5 7 7 6 6 8 9 10 9 8 4 4 5 7 9 9 8 8 9 8 8 9
5 3 6 7 3 6 5 8 9 5 4 2 1 3 3 4 2 2 5 5 5 8 7 3 2 3 6 7 10 11 9 5 3 6 6 4 4 4 4 5 5 5 3 2 2 2 3 5 6 6 6 6 6 6
6 6 4 8 10 12 4 3 3 3 1 3 4 4 3 2 1 3 4 3 8 5 4 8 8 4 2 2 4 5 9 10 8 7 8 8 7 6 4 4 3 2 2 3 5 5 5 5 6 6 5 5 6 6
6 6 7 7 8 8 8 3 4 3 3 2 4 2 3 6 11 10 6 4 4 3 3 3 4 5 3 3 3 2 6 4 1 2 6 9 8 8 8 4 2 2 3 3 5 5 5 5 5 5 5 4 5 6
4 4 6 6 4 4 9 7 8 8 8 13 16 26 25 21 15 8 5 3 3 4 5 4 2 1 2 3 4 5 6 5 2 2 4 5 6 2 2 4 4 4 4 3 2 2 3 4 4 4 4 4 4 4
6 6 7 7 6 15 18 23 24 22 25 27 25 24 15 10 10 7 4 4 5 5 2 2 4 3 2 0 2 3 3 3 2 1 0 1 2 3 2 1 1 2 2 2 4 4 5 4 5 5 4 3 3 4
6 5 7 4 6 22 12 7 11 16 13 9 6 8 7 4 3 3 3 3 5 2 2 3 3 4 3 4 3 3 2 2 2 2 2 2 2 2 3 3 4 4 3 3 2 2 1 3 3 2 2 3 2 3
25 26 21 13 7 8 6 5 4 5 4 3 3 3 3 3 3 3 2 2 2 3 6 5 5 6 7 5 4 4 4 3 2 1 1 2 2 2 1 1 1 1 2 2 3 4 4 3 2 2 2 3 2 3

GFSWCAN_850_spd_111.txt.gz
Wind_Speed
27 28 30 29 30 27 23 21 19 21 20 17 15 13 13 17 19 17 16 15 16 7 19 22 22 12 13 8 2 9 8 3 3 4 2 2 3 2 3 7 5 3 2 2 4 3 7 2 7 1 2 18 10 1
29 32 25 26 24 22 20 19 19 21 20 20 16 14 13 18 16 16 17 16 16 20 13 17 23 18 17 15 14 5 4 2 2 2 1 2 3 3 3 3 1 3 3 1 5 5 3 11 6 6 6 13 6 4
30 27 26 26 24 24 22 21 21 18 18 19 18 17 17 15 13 16 15 13 13 17 24 26 26 14 14 17 23 11 5 5 3 2 1 2 5 2 2 2 4 3 4 1 2 2 9 15 16 7 8 9 15 8
31 29 26 28 25 26 25 23 21 22 22 21 21 18 17 17 18 17 18 16 15 5 4 9 9 14 13 13 13 20 29 15 5 5 4 2 3 4 2 4 7 3 6 7 2 3 11 8 16 20 25 23 16 10
29 27 28 28 27 27 26 23 22 21 20 21 23 22 19 19 18 16 17 19 19 15 4 10 27 20 16 21 26 22 21 22 22 7 3 2 4 3 3 2 3 2 5 3 3 8 8 15 25 21 8 7 7 3
29 27 27 28 27 28 30 26 25 23 22 21 18 19 19 19 20 17 11 21 23 21 5 3 9 21 19 15 13 13 20 17 16 5 4 5 6 4 3 2 5 19 24 21 5 6 12 11 9 7 10 11 10 10
27 27 26 27 26 25 26 27 26 24 22 22 19 19 21 22 20 15 6 4 17 21 4 4 6 5 6 5 13 15 14 13 10 6 7 5 5 4 2 3 13 21 16 21 19 6 10 16 9 10 11 12 7 9
26 27 26 27 26 26 26 25 24 22 19 20 21 21 19 21 21 21 12 4 11 20 4 3 4 6 6 4 4 7 8 14 10 6 4 4 3 5 3 4 10 19 16 15 20 14 11 9 11 7 6 7 9 9
28 28 27 26 26 27 28 26 24 23 23 21 20 18 16 21 13 24 15 7 19 10 6 4 2 3 3 3 4 6 8 2 5 3 3 5 3 2 5 7 10 13 11 16 15 11 11 13 14 11 10 11 10 8
27 27 27 28 29 27 26 27 25 26 21 18 20 14 9 12 12 26 11 9 14 9 7 5 7 3 3 6 3 2 4 2 2 4 5 2 2 11 9 7 8 11 14 16 15 18 18 17 16 15 14 11 8 5
29 29 29 28 27 27 30 28 28 23 19 28 14 8 29 32 16 10 5 4 4 3 8 7 19 4 6 2 3 2 1 1 0 2 2 2 2 3 7 8 9 13 15 11 9 9 9 9 11 11 10 9 9 6
28 29 30 30 30 30 27 27 21 30 26 25 18 34 26 7 6 5 4 3 5 5 7 6 8 15 5 5 3 1 1 1 4 1 3 3 2 6 7 9 11 15 15 12 12 11 11 10 9 9 9 8 5 5
30 29 28 27 26 27 27 29 36 34 33 38 17 8 8 5 5 7 8 4 4 5 10 9 3 8 7 4 3 2 2 4 1 1 0 2 3 6 9 10 13 13 13 14 13 11 11 10 8 8 7 6 5 4
20 19 20 24 28 33 31 28 29 44 29 7 8 7 4 5 5 4 3 4 8 5 18 18 4 3 4 2 2 3 3 1 2 2 2 1 4 7 8 10 12 13 15 15 14 13 12 12 10 8 6 6 5 4
18 19 22 27 29 27 31 31 47 31 5 5 5 5 4 4 3 6 7 6 1 8 21 9 5 3 1 3 1 2 3 3 1 3 2 1 4 8 9 10 11 12 14 14 13 10 9 10 10 9 7 5 3 2
25 23 26 30 31 34 32 37 33 13 5 4 5 2 5 4 2 4 7 5 4 12 11 5 3 3 1 4 3 2 2 4 2 1 2 2 5 8 9 10 11 12 13 13 12 11 11 9 8 8 6 4 1 1
37 27 32 37 41 44 37 28 18 7 5 3 4 9 8 12 8 4 4 3 4 4 2 3 4 5 1 2 2 3 3 2 4 3 4 6 7 9 9 10 10 12 12 11 12 12 11 10 8 6 4 2 1 2
34 39 50 49 51 42 29 10 7 5 6 8 4 5 14 10 6 9 6 6 3 3 3 2 3 3 2 3 1 2 5 5 6 5 6 6 5 7 9 10 10 11 11 9 9 11 11 9 6 3 2 1 3 5
50 47 47 49 38 18 6 5 4 5 5 6 8 9 11 11 15 10 8 10 11 10 10 6 5 2 1 2 2 5 6 8 9 10 7 3 4 7 9 8 10 9 8 8 8 9 9 6 4 3 1 1 2 6
41 41 37 33 21 6 6 5 5 7 4 4 6 7 7 8 7 12 13 12 10 7 8 4 1 1 2 3 3 4 5 7 8 6 6 6 6 7 8 8 7 7 7 7 6 6 5 4 3 3 2 2 3 7
31 23 24 16 12 10 6 5 5 6 8 7 9 5 6 11 9 10 11 11 10 6 4 6 6 4 1 3 5 4 4 3 2 4 6 7 7 7 7 7 8 8 8 7 6 5 4 4 4 3 1 2 4 6
25 24 20 12 7 5 6 6 10 9 6 8 6 5 6 4 5 6 6 13 6 6 4 4 4 3 2 3 3 2 2 4 5 5 5 5 3 4 7 7 7 7 6 5 5 4 3 2 2 1 2 5 6 7
19 11 7 5 5 5 5 5 4 4 4 5 5 4 3 3 3 5 6 5 4 8 5 4 6 3 3 2 2 2 4 5 5 5 6 6 5 5 6 6 5 5 5 4 2 1 1 3 3 4 5 6 8 10
6 5 5 4 5 3 5 3 4 5 5 3 3 3 3 4 5 5 3 3 5 5 7 8 5 3 3 3 4 5 6 6 6 5 5 6 5 6 6 6 6 5 3 1 3 4 4 5 5 5 6 8 10 12
5 9 5 5 5 4 4 3 3 3 3 2 3 2 3 4 3 2 2 2 5 7 6 7 3 2 3 2 3 5 4 5 5 7 7 7 6 6 7 9 10 10 9 6 6 5 6 6 6 6 7 8 9 9
6 9 5 3 4 4 2 3 3 3 3 2 2 3 4 3 3 2 2 2 3 4 4 4 5 7 9 7 3 2 3 5 5 4 6 5 5 4 4 5 6 6 8 8 6 5 5 5 5 5 5 5 5 5
4 3 6 7 3 6 5 8 7 5 4 2 1 3 3 4 2 1 5 3 5 5 3 2 0 2 5 7 8 9 8 4 2 4 4 3 3 3 2 3 3 4 3 3 4 4 4 2 3 3 4 4 5 4
5 6 4 7 9 9 4 3 3 2 1 2 4 4 4 5 2 3 3 4 3 2 4 6 4 2 1 3 2 4 6 7 6 5 5 4 3 2 3 3 4 5 4 1 1 2 2 2 2 3 4 4 4 5
6 5 7 6 7 8 8 3 1 2 2 2 4 2 3 4 8 11 9 6 2 0 2 2 5 6 3 2 1 2 4 2 5 4 2 4 3 6 8 5 3 2 4 4 3 2 3 4 4 4 3 3 4 4
4 4 6 5 4 4 7 6 5 7 8 11 11 21 21 17 12 8 5 2 1 3 2 2 3 3 3 1 1 2 1 2 2 2 2 3 3 5 7 7 5 2 2 3 3 2 2 2 2 2 3 3 3 4
5 5 7 7 6 13 18 21 21 20 22 24 25 21 13 9 8 6 4 5 5 5 3 1 2 3 3 2 2 2 2 2 1 1 2 3 4 5 5 5 5 5 4 3 2 1 1 2 2 3 3 3 3 4
6 6 6 5 6 16 9 6 9 12 9 7 6 5 5 3 3 3 2 3 5 4 1 2 2 2 2 2 1 2 2 2 3 4 5 5 5 5 5 5 5 4 3 2 2 2 1 1 2 2 2 2 2 3
20 22 15 11 6 5 4 5 4 4 3 3 2 2 2 2 3 4 4 1 1 2 3 5 4 4 5 5 4 3 3 3 3 3 3 4 4 5 4 4 3 2 3 3 2 2 2 2 2 2 2 2 3 4

GFSWCAN_850_spd_114.txt.gz
Wind_Speed
28 24 32 28 25 21 21 23 21 20 18 20 17 14 12 13 16 18 17 13 15 7 21 21 22 19 11 6 2 9 8 5 5 3 1 2 2 4 4 5 5 3 3 2 2 2 6 6 5 3 1 13 12 16
28 28 29 29 27 25 28 26 22 21 21 21 17 15 11 13 16 17 18 15 15 19 13 13 16 19 21 21 15 3 3 8 4 2 2 2 2 2 5 3 3 3 1 3 3 3 4 12 7 13 4 10 10 13
27 27 27 26 25 23 25 23 24 22 21 19 17 16 13 13 12 17 19 14 12 17 22 26 25 16 14 16 22 11 9 8 5 5 2 1 4 2 3 3 3 3 7 2 2 2 8 16 9 13 3 10 18 12
31 31 29 27 25 27 24 23 24 21 20 19 19 17 15 15 12 12 17 14 12 5 5 11 16 18 14 13 15 20 22 12 7 3 4 2 3 4 3 7 6 4 6 7 4 5 12 3 16 16 11 7 8 1
30 31 31 30 26 24 24 27 23 22 20 18 18 17 16 15 13 15 16 13 16 12 3 12 30 25 9 22 26 22 20 21 18 6 3 3 4 3 3 3 2 7 4 3 2 11 6 6 9 10 16 14 8 6
29 28 31 34 26 23 27 29 25 23 20 18 17 18 18 17 14 14 8 20 21 19 6 3 10 26 22 18 15 17 26 21 12 6 5 5 5 3 2 3 3 13 14 13 8 22 13 9 15 16 19 16 13 15
29 28 28 26 23 25 30 27 27 23 20 20 17 15 13 17 19 22 5 1 11 21 4 5 7 5 6 4 12 13 13 12 11 6 5 5 5 2 2 3 8 14 16 15 22 21 19 22 14 15 15 12 11 10
27 27 25 26 26 28 30 25 27 25 22 18 16 16 16 18 19 21 21 4 9 21 4 3 4 7 4 4 5 8 7 12 9 6 4 4 3 6 4 3 8 13 18 13 24 16 12 11 13 14 12 13 11 11
27 29 28 26 27 28 24 23 23 21 19 15 16 17 15 17 14 20 15 11 14 9 5 3 3 3 2 2 3 4 10 3 7 4 4 5 2 3 5 6 9 15 13 18 22 16 16 16 17 17 15 14 13 10
27 27 25 26 27 28 27 24 22 21 18 20 17 12 8 9 14 13 14 18 14 8 7 5 6 3 2 4 2 2 3 1 2 3 4 3 2 10 8 6 8 12 15 16 18 21 23 19 18 16 15 13 11 8
26 28 27 26 26 25 24 22 21 22 23 21 12 8 10 25 17 8 4 5 7 4 8 8 19 6 5 2 2 3 2 1 1 1 2 2 2 3 5 7 10 14 13 10 9 9 10 11 13 13 13 11 9 7
26 28 28 26 25 25 24 23 26 30 19 22 14 20 28 8 5 4 5 3 5 5 7 5 7 11 5 5 2 2 1 2 3 0 2 2 3 4 6 8 11 13 13 13 13 12 12 11 11 10 10 10 8 6
27 28 29 29 28 26 26 29 33 31 21 27 12 9 8 6 4 8 8 4 5 5 10 8 4 6 6 5 2 2 2 4 1 0 1 2 4 5 7 10 11 12 13 15 14 12 12 11 11 11 10 9 8 6
28 28 28 28 29 31 31 36 29 30 25 8 9 7 5 5 6 4 4 5 8 6 16 16 5 5 4 2 1 2 3 1 2 2 2 1 3 7 8 9 11 13 14 15 14 14 14 13 12 11 10 9 8 6
31 31 32 32 32 32 32 30 34 38 10 5 7 6 5 4 2 5 8 9 3 6 18 7 4 3 1 2 1 1 2 3 2 2 1 1 3 6 7 8 10 11 13 13 13 13 13 14 14 12 10 9 7 5
20 18 18 25 32 35 34 50 39 11 4 3 4 3 6 5 2 4 8 7 5 12 11 2 2 3 1 3 3 4 2 4 2 1 3 2 4 6 7 8 9 11 12 12 12 14 15 14 12 12 11 8 6 5
24 12 30 31 36 42 41 36 14 6 6 4 3 8 9 10 6 4 4 4 6 8 2 3 4 5 2 2 1 3 3 2 1 4 3 4 5 6 7 9 10 12 13 12 12 13 15 15 13 10 7 5 5 3
21 27 33 44 52 47 32 10 6 5 6 7 4 4 10 9 7 6 4 3 3 4 3 2 3 2 1 3 2 2 4 2 4 5 6 5 4 5 7 8 10 12 12 12 12 13 15 13 10 8 7 6 4 2
32 36 39 39 40 26 6 5 4 5 5 7 9 9 11 11 13 8 7 8 8 10 11 5 5 2 2 1 2 3 5 6 7 8 7 5 4 7 8 9 9 9 9 10 11 12 11 10 8 7 6 5 3 1
48 49 43 31 25 7 6 5 5 7 4 4 7 7 7 7 6 12 12 10 9 6 7 4 1 1 3 4 3 3 4 6 7 6 5 7 6 8 9 9 9 10 9 9 9 9 9 9 8 7 6 4 2 1
47 35 27 22 18 13 7 5 6 6 7 7 9 5 6 7 7 8 9 9 9 6 4 5 5 6 4 4 3 3 3 3 4 6 8 10 9 7 8 9 10 9 9 9 9 9 9 8 7 5 4 2 1 3
22 29 23 12 7 5 6 6 10 8 5 8 5 5 6 4 4 6 6 11 6 5 3 3 5 3 3 3 4 3 3 4 5 5 5 6 5 6 8 8 8 7 7 7 7 7 7 5 4 3 3 4 4 4
23 21 9 6 5 5 5 5 4 4 4 4 5 4 3 3 3 4 5 5 4 6 3 7 6 3 3 2 2 3 3 5 6 6 6 7 7 7 7 7 6 5 6 5 5 5 4 4 3 4 5 6 6 9
10 6 5 4 5 3 5 3 4 5 5 3 3 3 1 3 4 5 3 3 4 5 6 8 3 2 2 3 4 5 5 7 7 6 7 8 9 11 11 12 12 10 9 7 5 5 4 5 5 5 6 7 9 10
5 7 4 4 5 4 4 3 3 3 2 2 3 2 2 3 2 3 2 2 5 6 7 6 3 2 1 2 3 5 5 4 5 7 8 9 9 8 9 11 12 14 13 11 8 7 6 6 6 7 7 7 8 8
6 8 4 2 3 4 1 3 2 3 3 3 3 4 3 2 3 2 2 2 3 4 3 4 6 7 8 6 3 2 3 5 5 4 6 6 6 6 7 8 8 8 10 10 10 7 7 7 6 5 5 5 5 5
4 3 5 6 4 7 5 7 6 5 3 2 1 2 3 4 2 1 5 4 4 4 3 2 2 3 5 7 7 8 7 5 4 5 5 5 5 5 5 6 7 7 6 4 4 5 5 5 4 4 3 4 5 5
5 5 4 5 8 8 4 3 3 2 1 2 4 4 4 5 3 3 4 6 4 6 6 6 3 2 2 2 2 4 6 7 7 6 6 6 5 4 4 5 6 6 6 4 2 0 1 2 2 2 3 4 4 5
5 5 6 6 6 7 8 3 2 2 2 2 4 2 3 4 8 10 10 7 3 1 2 3 5 5 3 2 1 2 3 3 5 4 4 4 4 5 8 8 5 5 5 5 4 2 1 1 2 2 3 3 3 3
4 4 6 6 4 4 7 4 4 6 7 9 9 16 19 16 13 9 6 3 2 2 2 2 2 3 3 2 2 2 1 2 4 3 3 4 5 6 7 8 7 5 4 3 3 3 2 2 1 1 0 0 1 1
5 5 7 7 6 12 19 21 19 17 17 18 23 21 13 9 8 7 5 4 3 2 2 1 2 2 1 1 2 2 2 2 3 4 4 4 5 5 5 5 5 5 4 4 3 4 3 2 1 0 1 1 2 2
5 5 8 5 4 15 5 5 7 9 7 5 5 5 5 4 4 7 5 4 5 3 2 2 3 3 3 3 2 3 3 3 4 5 5 6 6 6 6 6 5 4 2 3 3 3 2 2 1 1 2 3 3 3
17 21 16 10 6 7 5 5 4 4 3 3 2 2 2 2 3 6 7 4 4 5 4 4 3 3 3 4 5 4 4 4 4 4 4 5 5 5 4 4 5 4 3 3 2 2 2 2 2 3 3 3 4 4

GFSWCAN_850_spd_120.txt.gz
Wind_Speed
29 27 24 19 17 18 24 18 16 21 26 19 11 12 16 13 11 11 7 9 5 3 5 7 7 7 6 7 5 10 7 3 5 5 4 4 4 5 4 10 10 5 7 3 3 4 3 11 6 5 12 18 16 18
21 23 23 21 19 19 20 18 16 17 21 15 12 15 17 15 12 12 6 10 10 7 5 6 9 13 13 12 11 4 8 6 3 3 2 3 4 3 6 5 3 4 5 5 5 5 18 23 18 19 16 14 7 10
25 23 22 21 22 23 21 20 17 17 22 19 15 19 17 15 13 12 8 7 9 11 15 12 5 5 8 8 12 6 4 3 4 5 5 3 4 3 5 6 9 7 13 3 11 10 17 16 19 17 13 9 8 11
26 27 25 27 26 25 26 26 19 19 19 18 19 19 16 15 13 13 11 9 10 3 4 5 6 6 3 7 14 16 13 8 8 9 6 3 4 6 7 9 13 4 10 9 4 9 14 23 26 21 16 16 16 14
29 27 27 26 26 23 23 26 21 19 22 15 21 19 18 15 13 12 9 8 10 6 4 11 19 11 6 11 11 19 18 15 11 5 4 4 7 6 5 7 3 6 4 5 4 15 11 10 21 20 17 15 15 15
26 29 29 28 26 26 26 25 20 16 21 25 22 20 18 16 14 11 4 11 12 13 3 3 6 7 6 9 14 13 15 14 11 4 5 5 9 4 3 4 8 8 6 7 7 17 7 16 11 17 17 16 15 14
30 28 31 29 27 29 27 25 21 17 22 27 22 20 19 18 17 9 3 3 5 16 3 4 4 3 4 2 5 8 12 8 9 6 7 12 12 5 3 7 9 9 8 8 14 15 5 14 12 16 15 15 13 12
31 30 31 30 29 26 28 23 20 23 25 24 20 19 17 15 13 13 11 3 5 15 3 2 4 4 3 3 4 7 7 8 8 6 5 5 4 6 4 5 6 10 9 10 16 11 9 10 11 14 14 15 14 14
33 32 29 28 29 28 28 27 24 27 25 22 21 17 16 13 12 12 11 15 11 7 3 4 3 1 2 3 3 6 9 5 6 5 4 5 4 4 4 5 8 11 9 11 9 8 11 12 12 14 14 14 14 14
33 31 30 29 30 29 33 29 28 30 27 25 22 10 6 9 7 14 8 7 8 9 7 6 7 4 4 1 1 2 4 3 3 6 5 3 2 8 6 5 6 9 10 11 10 11 12 12 13 13 13 12 12 12
34 31 29 29 29 26 32 31 33 32 28 23 10 7 8 17 13 7 5 8 8 4 7 9 18 11 5 5 3 4 2 2 3 3 3 4 3 4 4 5 6 7 9 9 8 8 9 10 12 13 13 12 12 12
32 30 29 30 32 34 34 33 32 37 25 22 13 13 19 7 6 5 4 5 5 5 8 5 7 12 5 6 5 4 3 2 2 2 3 2 3 4 3 5 6 7 9 9 10 10 10 11 12 12 12 13 12 12
29 30 31 32 31 32 35 34 34 35 28 26 12 8 7 8 7 6 9 5 5 6 9 10 4 6 6 7 5 2 4 2 1 2 1 3 6 3 3 4 5 7 10 10 11 11 12 12 13 14 13 12 12 11
29 28 30 31 31 33 33 34 37 33 18 8 6 8 5 5 6 5 6 7 7 7 14 15 7 5 4 5 2 4 2 2 3 3 1 3 3 3 3 4 5 6 10 11 12 13 15 16 16 15 13 12 11 10
28 29 29 28 30 32 33 29 34 32 11 4 5 5 7 5 3 4 6 6 4 9 15 7 4 5 3 3 3 1 3 4 2 1 3 5 3 2 3 3 4 6 10 11 12 14 16 17 17 16 14 11 10 8
27 27 29 29 29 31 32 31 26 19 8 4 4 3 1 6 4 6 8 6 6 11 8 3 3 3 4 2 4 4 2 3 3 3 5 4 2 1 2 3 5 7 9 10 11 13 15 16 16 15 14 12 9 7
29 20 31 32 29 29 28 27 18 8 7 4 2 3 3 3 4 4 4 5 12 11 4 3 4 3 3 3 3 1 1 3 6 5 3 1 0 2 3 4 6 8 8 9 10 11 13 13 14 12 11 11 9 7
24 25 33 32 28 28 28 11 10 7 3 2 3 1 1 2 4 5 5 8 8 5 3 1 1 4 3 4 3 3 4 6 4 3 2 1 1 2 3 4 7 7 8 9 10 11 11 11 10 10 10 9 8 7
32 33 35 35 37 21 9 6 5 4 2 3 4 4 4 5 6 5 6 6 6 6 5 2 1 1 2 2 4 6 5 3 2 0 1 2 3 4 5 6 7 7 8 9 8 6 7 10 10 9 8 7 5 5
34 32 33 36 36 7 5 4 6 6 3 4 5 5 4 3 5 6 6 5 6 4 4 3 2 3 3 5 4 4 2 1 1 2 1 3 4 4 5 5 5 7 6 6 6 7 7 7 7 7 6 5 4 3
39 41 36 39 25 4 4 6 5 5 7 5 9 4 4 4 4 4 4 4 5 4 3 3 7 6 6 5 5 3 3 2 2 1 2 3 4 4 4 5 5 5 4 4 4 5 6 5 5 5 4 4 3 2
51 51 44 27 5 5 5 4 8 9 5 8 6 3 4 3 3 3 3 6 4 3 3 6 6 6 5 5 5 4 2 2 2 3 3 3 3 4 4 4 3 3 3 4 4 4 4 4 4 4 3 3 3 2
42 31 14 7 5 4 6 6 4 4 3 5 4 3 3 3 2 2 4 4 3 3 5 7 7 7 6 5 3 2 2 3 3 4 4 4 5 5 5 6 5 5 4 4 4 3 3 4 4 3 3 4 4 5
17 5 5 4 4 4 5 3 4 5 5 3 3 3 3 3 3 3 3 2 3 4 6 7 6 5 4 4 3 3 4 4 4 4 5 4 4 5 6 6 6 6 5 4 4 4 4 4 4 3 4 5 5 6
6 6 4 5 3 3 3 3 3 3 3 3 3 2 3 3 2 2 2 4 6 6 5 4 3 3 4 4 3 4 5 4 3 3 3 3 3 3 3 4 5 6 6 5 5 4 4 4 3 3 4 4 5 5
6 6 4 2 2 3 3 4 3 3 3 3 2 5 3 2 2 3 3 8 7 6 5 5 5 5 5 5 4 4 4 4 3 2 2 2 1 2 2 3 3 5 4 4 5 3 3 2 2 2 2 3 4 5
4 2 4 4 4 6 5 5 4 3 3 3 4 4 3 3 3 3 6 5 6 7 7 6 6 6 7 7 7 6 5 4 3 3 2 1 1 1 1 2 3 4 4 3 2 2 2 2 1 1 1 2 3 3
5 3 4 3 6 6 3 3 2 2 2 3 6 2 3 3 3 6 5 9 10 9 8 7 7 7 7 7 6 6 5 3 2 1 1 2 3 3 3 2 3 4 4 3 2 2 2 2 2 1 1 2 3 3
4 4 5 5 5 6 5 2 2 2 2 2 3 3 4 3 9 10 14 13 12 9 8 7 6 6 6 5 5 5 4 2 2 2 2 1 1 3 3 2 2 2 2 3 3 2 1 1 1 1 2 2 2 3
3 3 6 4 3 3 3 1 3 5 6 6 7 8 8 8 13 17 14 12 8 7 6 5 5 5 5 4 3 3 3 3 3 3 3 3 3 3 3 3 3 3 2 2 2 3 2 1 1 1 1 1 1 2
5 4 5 5 4 5 8 14 12 9 7 7 11 11 10 7 11 13 11 9 7 7 7 6 5 5 5 5 4 4 3 2 2 2 2 3 3 4 4 4 4 3 3 3 3 3 3 2 2 2 2 3 3 3
3 3 6 4 6 10 6 3 4 5 4 5 4 6 7 5 6 10 11 9 8 8 8 7 6 6 5 4 3 3 2 2 2 2 2 3 3 3 3 3 3 3 3 2 2 2 1 1 1 2 2 3 3 4
6 7 9 9 7 8 6 5 3 4 3 3 3 5 3 5 4 10 13 11 11 10 9 8 7 6 5 4 3 2 1 1 1 2 2 2 2 2 2 2 3 3 3 3 1 1 1 2 2 3 3 3 3 3

GFSWCAN_850_spd_123.txt.gz
Wind_Speed
27 29 31 30 29 29 26 23 23 21 20 16 11 9 15 12 12 11 5 6 4 2 2 5 5 6 5 5 4 8 6 8 5 5 4 5 4 6 5 11 6 5 9 6 5 4 2 27 14 11 14 22 16 17
35 35 32 31 26 28 26 23 21 17 23 22 16 11 15 14 11 12 5 5 5 3 4 4 6 10 10 8 9 4 5 5 2 3 4 4 6 5 7 6 5 4 5 6 6 6 15 20 11 20 21 13 12 12
25 40 35 33 28 23 20 27 21 17 13 19 17 9 16 16 13 12 5 6 5 3 9 11 10 9 11 13 11 7 2 1 1 4 6 3 4 6 6 6 7 4 9 3 10 7 16 18 26 25 24 18 15 14
21 26 34 29 26 24 22 21 18 16 14 18 16 10 18 17 13 13 8 7 5 2 3 2 7 8 6 12 14 15 13 7 6 8 7 4 5 9 9 10 12 5 7 10 4 6 18 12 24 21 19 20 19 15
23 24 26 26 26 23 21 21 20 18 18 20 12 18 18 16 13 12 8 6 6 4 4 8 13 13 14 18 14 14 15 13 11 4 3 6 9 7 9 10 2 6 3 4 4 13 11 12 21 21 21 21 19 17
25 24 27 28 29 26 24 23 22 22 20 19 16 22 18 16 15 12 2 8 9 10 3 3 3 5 6 8 14 13 12 12 11 3 6 6 12 6 3 5 3 6 2 2 8 20 19 11 12 19 19 18 15 15
25 25 27 27 28 25 24 25 26 22 19 18 19 21 18 16 14 6 1 2 5 10 2 4 5 5 6 4 6 10 9 7 6 4 8 15 16 6 3 9 5 7 7 3 13 15 8 15 15 15 15 15 13 13
29 27 26 31 31 27 27 29 27 21 18 19 25 21 18 14 12 7 7 0 5 7 2 2 4 5 7 7 6 8 7 6 7 7 8 8 5 6 4 5 5 8 8 5 13 8 10 11 12 14 14 15 14 14
27 32 27 27 33 32 31 31 27 23 22 26 23 18 16 12 9 6 10 10 5 5 3 4 3 1 4 4 1 5 7 5 6 7 5 5 4 4 4 4 5 8 9 11 12 8 12 12 14 15 16 16 15 15
27 32 30 27 32 30 37 34 29 28 28 27 26 12 5 11 8 12 5 5 4 5 6 5 11 5 3 1 2 3 5 3 3 7 5 4 2 6 4 4 4 6 8 10 11 13 15 15 17 17 16 15 15 14
28 32 33 30 33 30 37 34 34 31 32 26 9 6 8 15 11 7 5 6 7 5 8 10 19 10 7 4 2 4 2 2 3 4 3 4 3 5 3 2 4 5 7 7 8 8 10 11 14 15 14 14 14 14
28 33 34 35 33 34 39 38 38 36 25 16 12 14 17 7 6 5 5 5 6 5 9 7 7 12 7 4 4 3 3 2 4 5 2 2 3 5 3 2 3 5 6 7 8 8 10 10 12 12 12 13 14 13
32 36 37 33 30 37 39 37 40 37 24 20 8 7 7 8 7 6 9 4 5 5 7 10 5 7 5 8 4 2 4 5 3 2 2 3 7 4 2 2 2 4 6 6 7 9 10 12 13 15 15 15 14 13
35 37 35 34 34 34 39 39 38 35 17 7 7 6 5 6 6 6 7 8 9 5 11 13 7 5 5 5 3 4 3 2 3 3 2 4 6 3 2 1 1 3 7 10 9 11 14 17 18 17 16 16 14 13
37 35 34 33 38 38 35 38 34 29 9 4 5 6 8 7 3 2 4 8 7 9 12 8 4 6 3 3 4 3 3 4 3 2 2 7 5 4 2 1 2 4 8 9 11 14 16 18 19 16 17 15 13 13
34 34 34 37 37 35 36 30 32 15 8 3 5 5 1 5 4 5 9 6 6 11 10 6 3 3 5 3 5 6 2 3 3 3 6 6 4 2 1 1 4 6 8 8 9 11 12 16 17 15 14 17 14 13
35 22 34 34 33 36 33 18 17 7 6 4 3 1 3 4 5 4 5 6 9 11 4 3 5 6 2 4 4 1 1 3 7 6 4 4 2 1 1 3 6 8 7 8 8 10 11 13 15 12 14 14 14 11
18 30 33 34 35 35 30 10 6 7 7 6 3 2 1 1 1 2 3 5 7 6 7 3 3 4 3 2 3 3 5 6 6 5 4 3 2 1 2 3 6 7 7 8 12 12 11 13 12 12 12 12 11 10
21 34 33 32 33 18 4 5 3 4 2 2 3 2 1 1 3 3 2 5 7 6 1 2 3 2 3 3 4 5 5 3 4 3 1 1 2 3 4 6 8 7 9 8 9 9 9 11 10 11 11 10 8 8
25 31 29 34 19 5 4 3 7 3 4 5 4 4 3 2 2 3 2 2 3 2 1 1 3 3 2 4 5 5 3 2 1 3 4 2 3 5 5 5 5 7 8 8 8 10 9 8 9 9 9 8 7 6
28 30 30 27 11 5 4 5 4 3 6 4 7 6 3 4 3 2 2 2 3 2 2 3 6 5 7 6 6 5 4 4 3 2 2 2 4 3 4 5 6 5 5 5 6 6 7 7 8 8 8 6 6 6
25 34 27 16 2 2 2 4 5 7 4 6 8 5 3 4 4 2 1 2 3 2 2 5 7 6 6 6 5 5 3 4 3 3 5 4 2 3 4 5 4 4 5 5 6 6 6 7 6 7 6 6 6 3
35 29 19 8 3 2 3 10 3 6 4 8 7 4 3 3 3 4 3 2 3 3 5 7 7 7 6 5 4 3 4 5 2 3 4 3 4 4 4 5 5 5 5 6 6 5 5 7 8 6 6 6 5 5
26 9 5 6 5 5 6 6 5 5 5 4 4 4 4 3 5 3 2 3 3 6 6 8 7 6 5 5 3 3 4 4 3 3 3 3 3 4 4 4 5 5 5 5 5 5 5 6 7 5 5 4 4 3
9 5 6 4 4 7 6 6 5 4 4 4 5 3 4 5 3 3 2 5 8 8 7 6 5 3 3 4 3 2 5 4 3 2 3 3 2 2 2 3 4 5 5 5 5 5 6 6 5 4 3 3 2 2
5 2 2 4 5 4 5 5 5 5 4 3 3 6 5 3 4 2 2 7 8 8 7 6 5 5 5 4 4 4 2 3 3 2 2 3 2 2 3 3 3 4 7 5 5 5 6 6 5 4 5 5 1 1
4 3 3 3 4 6 4 5 5 3 3 4 4 6 4 4 4 3 6 7 8 8 7 6 5 5 6 5 5 4 3 3 5 3 2 2 2 2 1 1 3 6 6 7 4 4 5 6 5 4 3 3 3 2
4 2 5 5 5 3 3 3 3 2 3 3 8 4 5 2 2 5 5 8 9 8 7 7 8 7 7 6 6 4 3 3 2 2 3 3 3 4 3 3 5 5 5 8 5 4 3 4 4 4 3 3 4 3
4 6 6 5 5 4 4 2 2 3 2 2 4 3 4 3 5 8 9 9 9 8 7 6 6 5 6 5 4 4 3 1 2 2 2 1 2 5 6 5 4 4 2 2 9 6 4 2 2 2 3 3 4 3
4 5 5 4 2 2 2 2 4 5 5 5 6 7 8 8 8 13 10 9 8 8 8 7 7 5 5 4 3 2 3 3 4 4 1 2 6 7 6 5 5 5 4 4 3 6 7 5 6 5 4 3 3 3
6 4 5 4 4 5 8 9 9 8 6 7 8 10 11 8 7 10 11 11 10 8 6 6 6 6 5 4 3 2 2 3 3 4 5 5 6 6 6 5 5 5 4 4 4 4 3 3 3 3 3 3 4 2
4 3 6 4 5 9 6 6 5 6 8 6 5 6 6 7 7 8 12 10 8 7 9 7 6 7 6 5 5 4 4 3 3 3 3 3 4 4 3 3 3 3 4 3 3 2 2 2 2 2 3 4 4 5
6 7 10 9 7 8 7 6 5 5 5 4 5 7 5 5 5 9 14 15 11 9 10 10 8 7 6 5 4 3 2 1 1 1 1 2 2 2 2 2 2 3 3 3 2 2 2 3 3 4 5 5 6 6

GFSWCAN_850_spd_129.txt.gz
Wind_Speed
25 23 21 19 19 18 17 18 16 19 20 17 18 20 22 17 12 14 10 9 9 6 7 5 5 3 4 5 3 4 3 5 5 5 3 3 2 2 2 1 3 2 3 3 3 5 4 19 7 6 5 13 18 17
27 24 21 21 21 19 19 18 23 24 20 16 19 20 20 17 12 9 10 8 10 7 3 3 5 4 3 4 5 3 2 1 2 3 3 2 2 3 2 2 1 3 2 3 3 2 2 6 2 11 11 12 14 15
25 26 23 25 21 23 22 26 27 25 20 18 20 21 18 17 12 7 10 7 7 5 3 1 0 1 7 10 7 3 5 6 6 5 1 1 1 2 1 3 2 2 0 2 3 4 10 6 10 13 14 13 16 16
27 27 23 25 24 28 27 27 26 22 18 16 16 17 17 15 15 11 10 11 9 3 1 3 5 2 3 4 5 7 3 1 3 3 0 1 1 4 3 5 2 3 1 3 2 5 7 15 14 14 15 15 11 13
27 28 25 28 30 31 28 24 21 20 15 16 14 13 15 15 13 9 7 7 6 5 2 5 5 6 9 5 9 6 5 2 3 2 1 2 4 3 5 2 1 1 1 1 1 6 6 5 12 11 13 15 12 13
20 29 29 30 29 29 25 22 18 20 16 17 18 14 14 15 12 8 4 4 1 1 2 2 4 4 5 10 10 10 9 9 7 2 2 4 11 6 1 2 4 4 4 2 2 4 6 9 8 10 11 12 12 12
22 21 28 34 30 30 25 23 23 21 18 19 16 15 15 14 11 4 5 5 4 6 3 3 6 2 7 9 8 10 12 7 6 4 4 5 16 6 1 3 8 4 2 2 4 6 2 8 9 11 11 9 9 11
15 18 25 35 36 30 28 26 26 22 23 20 16 17 14 12 12 6 7 7 8 4 2 1 3 4 11 5 4 6 6 4 3 4 2 5 6 6 3 8 11 6 4 8 8 9 8 6 8 10 11 12 10 11
13 11 20 28 36 34 30 27 26 25 22 19 21 17 14 10 5 4 5 4 5 1 1 3 2 1 10 4 4 4 4 1 4 4 4 4 2 3 4 8 10 8 5 4 6 8 8 9 9 10 11 13 12 13
18 15 17 29 36 34 31 29 29 28 25 25 22 8 5 9 8 7 3 2 1 2 2 3 4 2 3 3 3 6 4 2 2 6 5 3 1 11 11 8 7 6 5 5 7 11 9 8 9 9 11 12 13 14
21 18 21 27 32 32 30 32 34 32 28 22 8 5 11 14 6 2 2 1 3 3 6 7 11 3 3 2 2 7 3 2 2 2 3 3 3 5 8 7 8 7 5 7 5 3 4 6 9 11 12 13 15 14
21 23 22 23 27 31 33 37 37 34 22 16 10 17 16 4 3 2 3 2 4 4 8 5 10 15 4 0 2 1 2 1 4 6 2 1 2 10 10 10 7 7 7 5 3 4 6 8 11 11 12 15 15 14
22 23 26 25 27 32 36 36 32 26 26 20 6 6 4 4 3 5 5 3 2 4 7 9 2 5 3 2 4 2 2 4 5 2 2 1 11 9 10 8 5 4 2 0 3 6 8 10 12 12 14 14 18 16
22 22 24 30 26 33 37 35 32 32 20 5 6 6 4 4 4 4 4 5 9 4 13 14 5 2 2 2 2 2 4 2 3 1 2 3 13 10 10 7 8 1 3 4 6 8 10 14 13 12 14 17 21 19
23 23 23 27 25 41 38 37 36 28 5 3 5 4 5 7 2 3 3 4 8 8 17 8 3 3 1 2 2 2 2 4 4 2 2 14 14 12 10 7 4 2 3 6 8 11 13 14 14 12 10 12 19 17
23 21 24 29 25 39 42 41 35 21 4 3 1 1 5 2 2 3 4 3 3 6 14 4 3 2 4 3 4 6 3 3 2 3 14 15 13 10 7 3 1 1 4 5 8 11 10 9 14 10 11 11 15 12
26 18 31 30 34 44 44 31 21 5 6 2 3 2 4 1 4 3 2 0 2 1 2 2 3 7 2 2 3 3 2 1 13 15 13 11 9 5 2 0 1 3 3 6 8 6 7 7 10 10 11 11 9 11
29 25 36 33 41 41 35 9 5 5 4 5 6 6 5 1 2 3 1 3 2 1 3 1 4 1 3 1 2 2 5 12 12 11 8 5 5 4 5 3 3 3 2 8 7 6 7 8 6 10 12 8 7 8
27 31 37 46 43 27 6 7 5 5 3 9 11 6 5 2 3 4 4 4 4 3 2 3 3 1 2 4 6 9 8 7 9 6 3 3 3 2 5 1 2 3 5 5 6 5 7 4 8 11 10 8 7 9
36 37 47 44 32 8 5 4 12 4 4 6 7 9 4 3 3 2 2 4 3 2 4 2 1 2 4 7 9 11 9 7 4 7 6 5 4 3 4 5 4 4 3 3 3 3 3 6 8 8 9 10 6 10
39 36 35 25 13 8 5 4 5 5 8 5 10 10 4 4 4 5 3 3 4 3 2 3 8 9 8 8 7 6 6 7 6 10 15 9 5 3 2 2 2 1 1 1 2 6 7 9 7 5 7 8 10 7
32 33 31 13 6 5 4 4 8 8 5 8 11 8 4 4 6 5 5 5 2 4 4 7 9 7 9 8 7 5 7 6 4 5 5 7 6 2 2 3 4 3 2 3 3 5 8 9 6 4 7 7 8 10
30 23 14 4 4 3 3 8 3 4 3 6 8 3 3 3 3 5 2 2 4 5 7 9 7 8 6 6 7 9 9 9 7 7 5 4 5 4 4 3 1 2 3 6 5 6 8 8 6 7 5 6 5 5
16 5 5 4 3 4 7 4 4 4 4 3 3 3 3 4 6 2 3 6 7 9 9 8 9 9 8 10 9 10 9 6 5 8 6 8 5 3 2 2 4 4 3 2 5 7 10 6 7 5 4 4 3 4
4 3 5 3 5 6 4 3 2 2 3 3 3 2 2 5 2 3 2 7 12 12 9 13 10 9 12 15 10 7 10 7 9 6 8 7 6 5 4 5 3 2 3 3 1 4 6 8 8 6 5 7 2 1
3 2 3 7 5 5 5 4 6 4 3 2 3 6 5 3 3 4 2 12 15 15 14 13 12 9 13 10 9 10 11 10 6 4 3 6 8 7 7 7 4 2 7 4 2 0 6 5 8 7 6 6 7 1
3 3 4 4 4 4 3 3 8 3 4 4 3 3 3 4 4 3 8 12 17 16 14 13 14 13 14 14 12 8 6 10 9 4 1 1 1 3 7 8 7 5 2 5 1 3 3 2 3 5 4 4 6 8
2 5 4 5 3 3 2 2 3 4 3 6 11 4 4 2 2 5 9 15 17 16 15 14 14 13 11 9 8 6 5 8 7 4 3 3 5 5 5 4 2 3 2 3 6 7 4 5 3 3 4 4 5 6
3 6 8 3 4 2 1 1 1 3 4 5 2 3 3 4 4 13 17 16 14 13 16 16 14 11 11 11 11 9 11 11 8 5 3 9 7 4 7 8 5 1 5 3 2 6 7 4 4 3 3 2 3 4
6 13 5 2 3 3 3 3 3 4 6 6 7 7 7 10 13 11 11 11 12 12 12 12 13 12 12 11 10 8 7 8 10 8 9 10 7 8 10 8 5 3 2 3 2 2 2 0 2 1 5 4 5 8
14 7 6 4 2 2 6 6 6 8 7 5 5 7 9 10 14 15 15 15 16 16 14 14 12 9 9 7 5 7 8 7 8 9 8 7 7 7 5 4 3 2 2 2 1 2 0 3 3 4 6 7 6 6
9 6 6 3 3 7 11 7 6 3 5 4 4 6 7 7 9 16 19 19 19 17 15 16 18 16 15 12 9 7 5 3 3 3 3 2 1 2 3 3 2 2 2 0 1 2 2 2 3 4 4 7 8 8
6 9 8 6 6 7 9 7 7 6 7 8 8 11 12 11 7 13 18 22 19 17 18 17 14 12 12 11 9 6 5 4 3 3 2 1 2 2 3 4 5 4 4 4 5 5 5 5 5 7 7 7 8 9

GFSWCAN_850_spd_135.txt.gz
Wind_Speed
30 30 29 27 27 27 29 30 29 27 27 31 31 25 23 21 19 18 18 21 14 10 13 13 15 11 10 10 4 6 4 3 3 3 2 2 2 1 1 2 3 3 1 2 2 3 4 9 4 4 5 12 9 12
28 29 28 26 26 28 29 30 28 26 28 31 27 22 21 19 18 16 19 15 26 13 18 20 16 11 8 9 15 5 3 3 4 4 1 2 1 2 2 2 2 2 4 3 4 3 2 3 2 7 8 10 10 10
29 31 30 28 28 27 28 29 27 26 29 29 25 19 18 16 19 17 23 22 19 26 19 12 9 8 9 10 9 6 4 4 4 4 6 2 1 3 1 3 1 2 3 2 2 2 3 1 1 5 6 9 8 8
29 30 29 29 28 28 27 27 26 26 28 27 24 19 15 13 18 18 25 20 19 13 6 5 11 7 5 5 7 4 13 12 10 5 3 2 1 5 2 3 3 4 6 2 3 2 3 6 4 6 6 6 8 10
29 29 29 29 28 26 29 28 26 27 27 27 24 20 18 18 18 20 21 18 16 5 6 9 10 10 9 7 9 13 13 12 7 3 2 2 2 1 2 1 2 5 4 3 4 4 3 3 6 5 3 6 9 12
30 29 29 28 28 31 29 25 28 30 27 26 25 22 21 21 22 24 9 11 16 27 8 3 5 9 9 7 9 10 8 7 4 3 2 3 3 2 1 2 3 5 4 2 3 4 1 2 2 1 4 6 10 14
31 29 28 28 31 33 31 30 31 30 27 25 24 23 20 18 9 7 7 12 14 11 6 5 3 3 10 9 6 6 6 3 2 3 3 2 2 3 2 2 3 7 5 5 4 4 4 6 2 3 6 9 11 12
30 31 30 32 35 34 31 29 28 28 26 25 24 23 21 18 20 19 16 15 12 8 6 3 0 4 11 5 4 4 5 4 2 2 1 3 2 2 2 4 6 9 10 5 2 3 4 4 3 7 9 11 13 14
32 30 34 35 36 35 29 28 27 27 25 26 25 25 22 16 6 12 13 9 8 6 5 3 4 3 9 4 3 3 3 2 1 1 3 3 2 4 4 13 13 13 6 7 3 3 2 3 4 7 10 12 14 16
36 33 37 36 32 27 30 30 30 28 28 28 26 7 6 8 16 10 4 2 4 5 4 3 4 2 7 3 2 3 1 0 1 3 4 2 3 2 3 11 11 8 2 3 5 3 3 4 6 9 12 13 15 16
38 37 35 34 32 27 31 32 32 30 31 21 4 4 21 14 3 4 3 4 2 3 2 3 4 4 5 3 3 3 3 1 1 2 3 2 3 6 14 14 8 3 2 4 3 1 2 4 7 9 11 12 14 16
32 37 36 35 31 29 34 35 33 35 16 7 13 21 9 3 4 4 1 2 0 2 5 7 6 4 4 3 4 3 3 1 3 4 2 3 1 17 18 12 8 4 2 2 1 2 4 6 9 10 10 10 13 16
28 32 39 36 31 38 38 33 30 21 24 29 7 5 2 1 5 4 4 1 1 5 7 7 3 6 3 2 5 3 3 3 1 2 3 3 9 17 14 12 10 6 3 1 2 4 6 8 9 9 10 10 13 14
22 32 35 40 41 39 36 35 29 30 14 3 4 3 3 1 2 3 3 3 2 4 15 14 6 3 3 3 2 3 3 2 2 2 4 2 14 18 15 12 8 6 3 3 4 6 7 8 10 11 9 10 12 11
23 30 38 41 40 39 36 32 31 12 3 3 2 3 3 3 3 3 2 2 3 10 18 9 6 3 3 3 0 2 3 3 4 4 2 6 14 16 15 11 7 5 4 4 5 7 7 7 9 11 10 11 13 10
23 32 38 44 41 41 34 32 23 5 3 3 3 4 3 6 4 5 9 8 7 15 13 6 3 3 1 3 2 4 3 5 4 2 5 13 13 14 12 8 6 4 4 5 6 6 6 6 9 10 15 16 11 11
23 19 36 38 38 38 32 22 10 4 3 3 2 7 9 11 8 8 5 5 8 9 2 3 3 6 2 2 2 3 4 3 5 7 9 11 12 10 7 5 4 3 3 4 5 5 6 6 8 11 14 11 10 11
13 26 40 42 39 36 26 12 4 3 3 3 2 5 4 10 11 8 4 6 4 4 4 2 2 2 4 4 3 3 4 6 8 9 9 9 8 6 4 5 5 4 3 4 5 6 7 8 7 11 11 11 11 11
17 22 30 45 39 25 6 5 3 4 2 4 5 8 6 7 6 8 6 7 6 7 6 3 2 2 3 5 5 8 11 12 12 11 10 7 5 4 4 4 3 4 5 7 6 6 6 7 9 11 10 10 8 10
15 19 23 38 30 7 5 5 6 5 6 6 8 6 5 4 7 6 6 6 6 4 3 3 4 4 3 5 7 7 11 11 10 12 11 9 7 6 4 1 2 2 3 3 5 5 7 10 11 7 7 6 9 5
18 21 24 18 15 6 5 6 5 4 8 4 10 7 3 4 3 5 5 5 5 4 5 8 8 7 7 5 6 7 8 8 10 9 8 12 11 8 4 2 3 2 2 2 4 5 8 9 7 4 5 6 6 8
19 27 23 11 5 4 5 4 8 10 5 6 9 3 2 1 1 3 4 7 5 6 7 7 9 9 9 8 8 7 7 8 9 9 10 11 11 8 4 3 3 3 2 3 4 4 5 5 5 5 6 6 8 6
26 25 6 4 4 4 4 5 4 3 4 6 4 2 1 2 2 4 4 6 6 9 10 9 8 9 8 8 7 6 6 6 7 8 9 9 8 4 3 3 3 3 4 2 1 3 5 5 6 7 7 8 6 7
13 5 4 4 3 3 5 3 4 5 5 4 3 1 2 3 5 2 3 4 7 7 11 12 14 14 11 10 9 9 9 8 7 8 7 7 8 7 4 3 2 1 2 3 4 6 6 6 7 9 7 8 8 7
5 3 3 4 4 5 3 4 2 3 2 3 3 2 3 4 1 2 3 4 10 13 14 13 14 12 12 13 12 12 11 7 6 8 10 9 8 8 7 5 4 3 4 6 9 10 8 7 6 6 7 8 8 7
5 1 2 5 2 4 5 4 4 5 4 2 4 5 4 3 0 6 3 4 9 17 17 17 16 15 13 12 13 13 11 9 7 7 10 12 10 8 8 8 8 7 9 9 9 8 6 6 7 6 6 7 7 9
4 2 3 3 4 7 4 3 6 4 4 5 3 4 3 3 5 3 3 7 7 11 11 11 13 13 12 15 13 9 9 11 9 6 6 7 8 8 7 9 10 11 10 8 7 7 7 7 6 7 7 7 8 8
3 5 5 7 4 4 4 2 4 6 4 7 12 4 5 7 4 4 6 8 7 11 13 14 12 10 10 14 13 12 13 12 11 9 7 6 6 6 5 4 5 6 6 6 7 8 7 5 5 6 7 8 9 9
3 8 9 3 3 4 5 5 6 5 7 10 6 4 4 5 4 7 6 9 11 12 13 15 15 15 17 16 14 12 11 11 12 12 10 8 7 6 2 2 3 4 5 6 7 7 7 6 6 5 5 7 7 8
4 10 3 3 4 4 3 5 4 5 8 9 6 4 4 5 5 7 10 14 15 14 12 12 14 18 17 15 15 14 14 14 13 10 7 5 6 5 3 5 5 4 4 4 6 7 7 6 5 6 8 10 10 10
7 10 3 2 2 2 4 6 6 6 6 7 10 9 7 5 7 12 14 16 17 17 16 17 18 17 16 15 14 13 13 11 10 9 7 6 5 4 4 3 2 2 3 3 3 3 3 3 5 7 7 7 8 9
9 7 6 2 2 6 6 5 3 4 4 5 6 9 7 7 7 9 20 26 26 25 22 20 21 21 17 12 12 13 12 11 10 9 8 6 5 4 3 2 1 2 2 1 1 1 2 2 3 5 7 8 9 10
5 5 4 4 4 4 6 6 5 2 5 4 6 9 13 7 9 8 8 22 29 23 22 19 16 16 16 15 13 13 12 11 11 9 8 6 5 4 4 4 4 4 4 3 2 1 2 4 5 7 9 11 13 14